     2              OBSERVATION DATA    GPS                 RINEX VERSION / TYPE
teqc 2002Apr3 20041109 01:33:05UTC                          PGM / RUN BY / DATE
                                                            COMMENT
L2: 1 -> 1; 5 -> 5; 60 -> 9                                 COMMENT
L2: 1 -> 1; 5 -> 5; 60 -> 9                                 COMMENT
L2: 1 -> 1; 5 -> 5; 60 -> 9                                 COMMENT
L2: 1 -> 1; 5 -> 5; 60 -> 9                                 COMMENT
L2: 1 -> 1; 5 -> 5; 60 -> 9                                 COMMENT
Original Marker Name: 0467                                  COMMENT
Campaign Name: CSRC/Caltrans post-San Simeon                COMMENT
4-Character Station Name: K707                              COMMENT
6-Character Antenna Code: TRZEPH                            COMMENT
Vertical Measurement Point: BPA                             COMMENT
Vertical Offset to Rinex Ref. Point: 0.0000                 COMMENT
Radial Measurement Point: RRP                               COMMENT
Radial Offset to Rinex Ref. Point: 0.0000                   COMMENT
Antenna Height from Field Measurement: 2.0000 m             COMMENT
Original XYZ: -2669313.1170 -4455790.0659 3689606.5204      COMMENT
New XYZ position is based on association with SCEC monument COMMENT
E1F1B0N7+0011. Position of that monument is believed to be  COMMENT
valid to within 1 m horizontally; vertical accuracy         COMMENT
should be no worse than 3-times this value.                 COMMENT
                                                            COMMENT
Revised Rinex header created by UCSD GPS archive for        COMMENT
GSAC on 11-Feb-2005 (2005:042) 22:03:22 GMT                 COMMENT
For assistance contact dagnew@ucsd.edu                      COMMENT
or anderson@python.ucsd.edu                                 COMMENT
                                                            COMMENT
K707                                                        MARKER NAME
0467                                                        MARKER NUMBER
L. Scott CALIF DEPT TRANSPORTATION DISTRICT 5               OBSERVER / AGENCY
0440100467 TRIMBLE 5700 NP 2.01 / SP 0.00                   REC # / TYPE / VERS
12234994 TRM41249.00                                        ANT # / TYPE
 -2669313.0000 -4455789.0000  3689606.0000                  APPROX POSITION XYZ
        2.0000        0.0000        0.0000                  ANTENNA: DELTA H/E/N
     1     1     0                                          WAVELENGTH FACT L1/2
     7    C1    L1    L2    P1    P2    S1    S2            # / TYPES OF OBSERV
     0                                                      INTERVAL
  2004     6    29    14    56   30.000000                  TIME OF FIRST OBS
  2004     6    29    16    45   45.000000                  TIME OF LAST OBS
                                                            END OF HEADER
 04  6 29 14 56 30.0000000  0  9G 6G15G16G18G21G22G26G29G30
  20801638.0304     328409.49249    246494.24648                  20801634.7034
        51.5004         42.0004
  23335801.9484    -641367.92649   -472406.53147                  23335799.2904
        41.5004         26.5004
  23357791.4224    -249662.35549   -195636.32047                  23357787.6534
        43.7504         28.2504
  20973328.2954    -459761.91849   -355625.75048                  20973324.1744
        49.2504         40.7504
  20828054.1314    -209612.59449   -164746.05948                  20828049.4624
        50.2504         41.2504
  23048815.5984    -786488.39149   -606233.28547                  23048811.1084
        47.0004         31.2504
  22111572.7794    -122533.10949    -98693.71546                  22111569.0884
        43.7504         24.7504
  22958403.2024      96597.80149     70148.39547                  22958401.1444
        45.0004         26.5004
  24778664.1504     698019.75049    523038.77046                  24778661.4314
        37.0004         16.2504
 04  6 29 14 56 45.0000000  0  9G 6G15G16G18G21G22G26G29G30
  20805452.0864     348452.54749    262112.17648                  20805448.9444
        51.7504         41.2504
  23328252.3644    -681040.71549   -503320.38747                  23328249.8924
        42.5004         27.7504
  23354973.2554    -264470.86749   -207175.44147                  23354970.0924
        44.5004         28.5004
  20968046.5864    -487518.19949   -377254.02048                  20968042.4094
        48.2504         40.2504
  20825552.0304    -222760.65249   -174991.31648                  20825547.5624
        49.5004         41.0004
  23039465.4094    -835623.05949   -644520.03147                  23039461.1724
        47.0004         30.7504
  22110065.0314    -130453.70349   -104865.62546                  22110062.2024
        43.2504         24.7504
  22959749.6484     103669.13349     75658.51647                  22959746.6964
        45.2504         27.0004
  24787783.5424     745947.64149    560385.21546                  24787781.2334
        36.5004         14.7504
 04  6 29 14 57  0.0000000  0  8G 6G15G16G18G21G22G26G29
  20809274.8184     368540.04749    277764.75048                  20809271.8694
        51.5004         41.5004
  23320693.2464    -720763.22349   -534272.96147                  23320690.9244
        40.7504         26.0004
  23352168.4164    -279212.90249   -218662.72747                  23352165.2144
        43.7504         28.5004
  20962772.6514    -515232.98049   -398849.94548                  20962768.8454
        46.5004         40.5004
  20823046.2954    -235928.60949   -185252.06248                  20823041.5544
        47.2504         40.5004
  23030114.9444    -884759.90649   -682808.46147                  23030111.0474
        47.2504         31.2504
  22108576.3524    -138281.03549   -110964.88347                  22108574.1204
        45.0004         25.7504
  22961108.0884     110808.91449     81222.00847                  22961105.6864
        44.0004         26.7504
 04  6 29 14 57 15.0000000  0  8G 6G15G16G18G21G22G26G29
  20813106.1044     388675.57849    293454.77748                  20813103.4794
        51.5004         41.2504
  23313125.5624    -760531.73849   -565261.37147                  23313124.3784
        41.0004         26.2504
  23349376.2444    -293884.79349   -230095.38347                  23349373.7204
        44.2504         28.5004
  20957507.4184    -542902.53949   -420410.64148                  20957503.1044
        48.0004         40.5004
  20820537.2994    -249113.14849   -195525.73448                  20820532.2024
        48.2504         41.0004
  23020764.8424    -933895.24649   -721095.73047                  23020760.4534
        46.5004         32.0004
  22107104.5734    -146011.53949   -116988.65247                  22107103.0224
        44.5004         27.0004
  22962479.9044     118020.69149     86841.57446                  22962477.1574
        43.2504         24.5004
 04  6 29 14 57 30.0000000  0  8G 6G15G16G18G21G22G26G29
  20816946.7904     408859.64849    309182.61748                  20816944.5544
        50.7504         40.7504
  23305549.7184    -800345.47749   -596285.07847                  23305546.9034
        41.0004         27.0004
  23346597.6344    -308485.84049   -241472.82847                  23346594.1034
        44.5004         27.0004
  20952250.8464    -570525.96949   -441935.38748                  20952246.1574
        49.5004         40.7504
  20818025.8074    -262313.29349   -205811.56648                  20818020.8014
        50.5004         41.0004
  23011414.7984    -983027.96549   -759380.94147                  23011410.8564
        47.5004         30.7504
  22105652.5704    -153644.23849   -122936.24647                  22105650.8924
        44.5004         26.0004
  22963865.7784     125305.21149     92517.81347                  22963863.4234
        43.5004         26.0004
 04  6 29 14 57 45.0000000  0  8G 6G15G16G18G21G22G26G29
  20820797.6864     429094.18849    324949.76648                  20820795.3304
        51.2504         40.5004
  23297965.1664    -840202.52049   -627342.48447                  23297961.5764
        43.2504         28.5004
  23343832.9264    -323014.06249   -252793.53547                  23343828.9754
        44.5004         28.5004
  20947003.1704    -598101.29749   -463422.64548                  20946998.9654
        50.0004         40.5004
  20815510.9944    -275527.10249   -216108.05148                  20815506.4644
        50.2504         41.0004
  23002066.6944   -1032155.96549   -797662.49247                  23002061.8574
        48.0004         32.0004
  22104218.9394    -161177.15649   -128806.07046                  22104216.7294
        44.0004         25.5004
  22965266.8264     132664.18849     98252.07047                  22965264.4954
        44.5004         28.0004
 04  6 29 14 58  0.0000000  0  8G 6G15G16G18G21G22G26G29
  20824658.1484     449382.71149    340758.98848                  20824655.5594
        51.5004         40.5004
  23290373.0584    -880099.34049   -658430.89147                  23290370.7564
        40.7504         27.7504
  23341083.2884    -337465.87149   -264054.68747                  23341079.2614
        45.2504         27.0004
  20941765.7964    -625624.91849   -484869.62148                  20941761.7844
        49.2504         40.5004
  20812994.5104    -288750.95749   -226412.35948                  20812989.6114
        49.2504         40.5004
  22992719.6184   -1081275.65249   -835937.55547                  22992715.1284
        48.5004         32.7504
  22102804.8454    -168606.63349   -134595.29747                  22102802.6894
        43.7504         27.0004
  22966682.2424     140101.28149    104047.18047                  22966680.0154
        44.0004         27.5004
 04  6 29 14 58 15.0000000  0  8G 6G15G16G18G21G22G26G29
  20828529.5784     469727.02049    356611.69148                  20828526.8034
        51.2504         40.7504
  23282773.0944    -920033.98849   -689548.80147                  23282771.0884
        41.2504         26.7504
  23338348.0374    -351839.30549   -275254.79747                  23338343.7154
        42.7504         26.5004
  20936538.3564    -653094.85249   -506274.76248                  20936534.3434
        49.0004         41.0004
  20810476.4014    -301983.14849   -236723.16048                  20810471.8814
        48.5004         41.0004
  22983374.1864   -1130384.78149   -874204.39147                  22983369.4964
        48.2504         32.2504
  22101412.0694    -175930.62949   -140302.29747                  22101407.4844
        43.5004         25.7504
  22968112.5944     147618.43049    109904.66847                  22968110.0774
        43.5004         26.2504
 04  6 29 14 58 30.0000000  0  8G 6G15G16G18G21G22G26G29
  20832412.3744     490128.64849    372509.05948                  20832409.1444
        51.2504         41.2504
  23275167.3784    -960005.06649   -720695.06647                  23275164.7864
        41.7504         28.0004
  23335627.1414    -366132.85949   -286392.63747                  23335623.9934
        43.0004         27.0004
  20931321.6804    -680509.61349   -527636.90648                  20931317.2574
        50.5004         41.2504
  20807957.7404    -315221.77349   -247038.98048                  20807952.7934
        50.0004         41.0004
  22974031.5984   -1179481.80549   -912461.78147                  22974026.6054
        48.7504         32.5004
  22100038.0124    -183147.51649   -145925.84846                  22100034.5264
        43.7504         25.0004
  22969557.9834     155216.86349    115825.54346                  22969555.3904
        42.7504         22.7504
 04  6 29 14 58 45.0000000  0  8G 6G15G16G18G21G22G26G29
  20836305.4244     510587.72749    388451.17648                  20836302.5984
        52.0004         40.7504
  23267554.2604   -1000012.12549   -751869.39547                  23267552.4694
        42.0004         26.7504
  23332923.0874    -380346.12149   -297467.93047                  23332919.6004
        43.5004         25.7504
  20926115.6214    -707868.63749   -548955.62548                  20926111.6204
        50.5004         41.5004
  20805437.0764    -328466.62549   -257359.64548                  20805432.8224
        50.0004         41.0004
  22964690.8564   -1228566.16849   -950709.31247                  22964686.2124
        48.2504         32.0004
  22098685.0234    -190256.87549   -151465.59847                  22098682.6374
        44.7504         27.2504
  22971019.4804     162896.88349    121809.99246                  22971016.3044
        41.5004         23.5004
 04  6 29 14 59  0.0000000  0  8G 6G15G16G18G21G22G26G29
  20840210.5604     531108.31349    404441.20748                  20840207.5984
        51.2504         41.5004
  23259935.3654   -1040051.03949   -783068.53147                  23259932.3034
        43.0004         29.0004
  23330233.8534    -394474.96149   -308477.41047                  23330230.7264
        45.0004         25.7504
  20920920.5674    -735167.93749   -570227.79748                  20920916.7114
        50.2504         41.2504
  20802916.2044    -341713.83649   -267682.16048                  20802912.0294
        50.7504         41.5004
  22955353.3734   -1277633.47349   -988943.57447                  22955349.3064
        48.5004         33.0004
  22097353.8184    -197254.53549   -156918.30547                  22097351.3614
        45.5004         28.2504
  22972497.6604     170662.70349    127861.27346                  22972494.0254
        42.0004         23.0004
 04  6 29 14 59 15.0000000  0  8G 6G15G16G18G21G22G26G29
  20844127.3404     551690.05149    420478.90248                  20844124.1764
        52.0004         41.0004
  23252309.9314   -1080122.11749   -814292.73847                  23252307.7054
        44.2504         30.0004
  23327561.6064    -408519.65649   -319421.34847                  23327558.5244
        45.5004         26.7504
  20915736.8644    -762407.74249   -591453.62548                  20915733.0474
        50.2504         41.2504
  20800394.8004    -354963.55949   -278006.62548                  20800390.2084
        51.0004         41.0004
  22946019.4994   -1326683.96549  -1027164.70747                  22946015.0464
        48.0004         33.5004
  22096043.0014    -204140.75849   -162284.16447                  22096040.6924
        44.7504         26.2504
  22973992.0224     178513.56349    133978.81346                  22973987.9894
        41.7504         21.5004
 04  6 29 14 59 30.0000000  0  8G 6G15G16G18G21G22G26G29
  20848055.3254     572333.50849    436564.71148                  20848051.9534
        52.2504         41.2504
  23244678.3354   -1120224.67649   -845541.45747                  23244675.3994
        43.0004         29.2504
  23324905.7844    -422479.50849   -330299.21547                  23324902.1444
        46.0004         27.7504
  20910564.8524    -789587.26249   -612632.46148                  20910560.5964
        50.7504         41.5004
  20797873.3144    -368214.89149   -288332.34048                  20797868.7384
        50.7504         41.0004
  22936688.7994   -1375716.71549  -1065372.03947                  22936684.6964
        48.5004         32.7504
  22094753.8424    -210914.59049   -167562.49247                  22094751.3804
        45.0004         27.5004
  22975501.9044     186450.35549    140163.32446                  22975498.4784
        41.2504         21.5004
 04  6 29 14 59 45.0000000  0  8G 6G15G16G18G21G22G26G29
  20851995.6584     593039.79749    452699.49248                  20851992.4904
        52.0004         41.0004
  23237041.1984   -1160357.69549   -876813.93047                  23237039.7854
        44.5004         29.5004
  23322265.4284    -436353.49649   -341110.12147                  23322261.8884
        45.0004         27.5004
  20905404.6994    -816705.46549   -633763.52348                  20905400.3204
        51.0004         41.7504
  20795351.4794    -381466.97349   -298658.63748                  20795346.6814
        51.2504         41.5004
  22927362.2804   -1424730.59449  -1103564.66047                  22927357.5484
        48.2504         32.0004
  22093486.7354    -217575.03949   -172752.44147                  22093483.7804
        45.7504         29.7504
  22977029.1364     194474.04349    146415.54346                  22977024.7414
        42.2504         22.2504
 04  6 29 15  0  0.0000000  0  8G 6G15G16G18G21G22G26G29
  20855947.9274     613809.99649    468884.06648                  20855944.9194
        51.2504         41.2504
  23229398.8954   -1200519.86349   -908109.09847                  23229396.3504
        44.7504         31.0004
  23319641.6714    -450140.19949   -351853.02347                  23319637.6814
        41.5004         27.0004
  20900255.7554    -843761.00449   -654845.76248                  20900252.0434
        51.0004         41.0004
  20792829.5944    -394718.43749   -308984.46948                  20792825.3764
        51.5004         40.2504
  22918039.1704   -1473724.09849  -1141741.39547                  22918034.0684
        48.5004         32.0004
  22092241.4584    -224120.66849   -177852.92647                  22092239.0014
        46.5004         30.7504
  22978571.5244     202585.83649    152736.45346                  22978569.0084
        41.2504         22.0004
 04  6 29 15  0 15.0000000  0  8G 6G15G16G18G21G22G26G29
  20859912.8324     634645.42649    485119.45348                  20859910.1254
        52.0004         41.2504
  23221751.5994   -1240709.69149   -939425.83647                  23221748.7554
        45.5004         31.2504
  23317035.3744    -463838.21949   -362526.80947                  23317031.6774
        38.5004         28.0004
  20895119.4044    -870752.33649   -675877.96548                  20895115.8184
        50.7504         40.5004
  20790308.3644    -407967.86349   -319308.70348                  20790304.3154
        49.7504         41.2504
  22908719.9254   -1522695.55949  -1179900.96947                  22908715.6214
        48.0004         32.0004
  22091018.2214    -230549.86749   -182862.68747                  22091015.5064
        46.2504         30.5004
  22980132.9884     210787.23449    159127.13746                  22980130.1054
        41.0004         22.7504
 04  6 29 15  0 30.0000000  0  8G 6G15G16G18G21G22G26G29
  20863891.7504     655554.07449    501411.89848                  20863889.2284
        51.7504         41.2504
  23214099.1084   -1280919.25449   -970757.94147                  23214096.5544
        45.7504         31.2504
  23314446.7054    -477439.59049   -373125.25047                  23314443.7194
        37.5004         27.5004
  20889997.2854    -897671.47349   -696853.90648                  20889993.3044
        51.0004         41.0004
  20787789.3254    -421207.22349   -329625.09848                  20787785.1024
        50.5004         41.2504
  22899406.7714   -1571636.78949  -1218036.98047                  22899402.0334
        48.2504         31.7504
  22089818.1874    -236854.64849   -187775.51647                  22089816.1744
        45.2504         30.5004
  22981713.1304     219086.09849    165593.74647                  22981710.1144
        42.5004         26.0004
 04  6 29 15  0 45.0000000  0  8G 6G15G16G18G21G22G26G29
  20867883.7824     676531.80949    517758.17248                  20867881.5024
        52.5004         41.2504
  23206443.3064   -1321152.51249  -1002108.52347                  23206440.4784
        45.2504         30.0004
  23311876.1814    -490948.29749   -383651.50047                  23311873.1484
        39.2504         28.0004
  20884887.7164    -924522.37949   -717776.68448                  20884883.2374
        51.2504         40.5004
  20785271.0594    -434440.56649   -339936.81248                  20785266.9394
        50.0004         41.5004
  22890098.6124   -1620551.67249  -1256152.46547                  22890093.4824
        47.2504         31.5004
  22088640.9064    -243038.97349   -192594.46947                  22088639.0374
        46.0004         31.2504
  22983309.7314     227478.15649    172132.96947                  22983307.5584
        43.5004         27.0004
 04  6 29 15  1  0.0000000  0  8G 6G15G16G18G21G22G26G29
  20871886.8154     697566.89549    534149.11748                  20871884.0974
        51.7504         41.0004
  23198779.8884   -1361421.19149  -1033486.71547                  23198777.6324
        44.0004         29.7504
  23309321.0274    -504375.80549   -394114.52347                  23309317.2254
        40.2504         27.5004
  20879788.7064    -951316.73049   -738655.39548                  20879784.4344
        51.7504         40.7504
  20782751.5804    -447679.53949   -350252.89548                  20782747.3824
        50.0004         40.7504
  22880793.0574   -1669451.71149  -1294256.38747                  22880788.2264
        47.2504         31.5004
  22087485.1274    -249114.39849   -197328.57847                  22087482.1574
        46.2504         30.5004
  22984922.2554     235951.79749    178735.78947                  22984920.3194
        44.0004         27.0004
 04  6 29 15  1 15.0000000  0  8G 6G15G16G18G21G22G26G29
  20875901.4074     718665.96149    550589.92648                  20875899.2784
        52.0004         41.0004
  23191111.8324   -1401718.53149  -1064887.24247                  23191109.6154
        43.7504         28.0004
  23306782.2824    -517715.54749   -404509.13747                  23306778.6994
        42.2504         29.2504
  20874702.1884    -978047.55949   -759484.60548                  20874697.7264
        51.2504         41.2504
  20780232.1954    -460917.27349   -360568.00848                  20780227.6164
        50.2504         40.7504
  22871491.7374   -1718330.00049  -1332343.35547                  22871487.2124
        48.0004         32.7504
  22086350.9644    -255074.15649   -201972.55147                  22086347.9124
        45.5004         28.0004
  22986551.7604     244513.57449    185407.32447                  22986549.3624
        43.7504         27.7504
 04  6 29 15  1 30.0000000  0  8G 6G15G16G18G21G22G26G29
  20879929.3664     739832.83649    567083.57848                  20879927.0224
        51.2504         41.0004
  23183438.2804   -1442040.75849  -1096307.15247                  23183436.9594
        42.0004         27.0004
  23304261.8024    -530963.68749   -414832.36347                  23304257.7584
        42.5004         28.0004
  20869628.0864   -1004711.14549   -780261.43048                  20869623.8044
        51.7504         41.2504
  20777714.2414    -474149.98449   -370879.22348                  20777709.8224
        50.2504         40.5004
  22862195.2794   -1767182.60549  -1370410.29747                  22862190.2034
        48.7504         32.0004
  22085239.7414    -260914.17249   -206523.21147                  22085236.5444
        46.5004         29.5004
  22988198.9264     253167.37949    192150.53547                  22988195.8504
        44.0004         26.7504
 04  6 29 15  1 45.0000000  0  8G 6G15G16G18G21G22G26G29
  20883970.7274     761069.12149    583631.34848                  20883967.7824
        51.7504         41.2504
  23175760.9094   -1482386.02049  -1127745.01647                  23175759.5734
        44.0004         27.7504
  23301758.3754    -544118.48449   -425082.87547                  23301754.4074
        42.2504         27.2504
  20864566.9684   -1031305.78549   -800984.51648                  20864563.5184
        50.7504         41.0004
  20775197.5804    -487375.98449   -381185.19948                  20775192.6324
        50.0004         40.5004
  22852904.5784   -1816007.52049  -1408455.67247                  22852899.3834
        48.5004         32.0004
  22084151.6254    -266632.74249   -210979.25847                  22084148.9194
        45.7504         30.5004
  22989862.2254     261914.75049    198966.66046                  22989859.6164
        42.2504         22.5004
 04  6 29 15  2  0.0000000  0  8G 6G15G16G18G21G22G26G29
  20888025.3514     782376.48849    600234.47748                  20888022.5044
        52.0004         41.0004
  23168079.7844   -1522752.62149  -1159199.50047                  23168077.1254
        43.7504         27.5004
  23299273.1634    -557178.14149   -435259.23447                  23299268.6764
        40.7504         28.7504
  20859519.9534   -1057829.64149   -821652.45748                  20859516.0624
        51.0004         41.5004
  20772682.1344    -500593.53549   -391484.59448                  20772677.4574
        50.0004         41.0004
  22843618.8194   -1864802.82849  -1446477.98447                  22843613.8404
        48.5004         32.5004
  22083086.5774    -272228.09049   -215339.27047                  22083084.9384
        46.0004         31.0004
  22991545.1464     270757.37949    205856.98846                  22991542.1084
        40.5004         22.2504
 04  6 29 15  2 15.0000000  0  8G 6G15G16G18G21G22G26G29
  20892093.3144     803753.81349    616892.10948                  20892090.2894
        52.0004         41.5004
  23160393.4214   -1563141.48849  -1190671.31647                  23160390.5784
        43.0004         27.5004
  23296805.5634    -570143.52749   -445362.12947                  23296802.5954
        39.5004         28.0004
  20854486.2234   -1084283.52349   -842265.86748                  20854481.9614
        50.7504         41.5004
  20770168.8464    -513803.59049   -401778.16048                  20770163.9994
        49.5004         40.5004
  22834338.8024   -1913569.34849  -1484477.84047                  22834334.0934
        47.7504         32.7504
  22082044.4654    -277701.00849   -219603.88347                  22082043.1984
        44.5004         30.0004
  22993245.6714     279694.33249    212820.81346                  22993242.6684
        40.5004         21.0004
 04  6 29 15  2 30.0000000  0  8G 6G15G16G18G21G22G26G29
  20896174.8254     825203.52049    633606.14548                  20896171.9164
        51.0004         41.2504
  23152704.7374   -1603550.18749  -1222158.60247                  23152701.9634
        43.2504         28.5004
  23294357.1464    -583012.21149   -455389.68447                  23294353.4654
        39.5004         28.5004
  20849465.7634   -1110664.85949   -862822.74648                  20849461.8504
        50.5004         41.5004
  20767656.3924    -527003.64849   -412063.91048                  20767652.2204
        49.0004         41.5004
  22825064.9634   -1962304.39549  -1522453.19547                  22825060.1984
        48.0004         33.2504
  22081026.8254    -283049.07449   -223771.18747                  22081025.8724
        44.5004         29.2504
  22994965.2394     288727.83649    219859.89146                  22994961.1914
        41.2504         21.0004
 04  6 29 15  2 45.0000000  0  8G 6G15G16G18G21G22G26G29
  20900270.6844     846726.68049    650377.40648                  20900267.9274
        52.0004         41.0004
  23145011.4394   -1643977.51249  -1253660.39147                  23145008.3044
        42.5004         28.0004
  23291927.4484    -595782.91049   -465340.87947                  23291922.9744
        40.2504         28.2504
  20844459.6774   -1136972.51649   -883322.21548                  20844455.4204
        50.5004         41.2504
  20765146.6834    -540192.35549   -422340.83248                  20765142.1244
        49.5004         41.0004
  22815797.3234   -2011006.62549  -1560402.97747                  22815793.0224
        47.5004         33.0004
  22080033.1934    -288270.97349   -227840.19947                  22080031.0744
        45.0004         27.5004
  22996702.6114     297858.98849    226975.03946                  22996698.3644
        41.0004         21.2504
 04  6 29 15  3  0.0000000  0  8G 6G15G16G18G21G22G26G29
  20904380.2174     868323.73849    667206.25448                  20904377.7574
        52.0004         40.5004
  23137315.0764   -1684422.82049  -1285176.19147                  23137312.0414
        43.2504         27.2504
  23289514.9344    -608455.24649   -475215.44147                  23289511.7914
        42.5004         27.5004
  20839467.3394   -1163206.00449   -903763.89848                  20839463.3434
        50.5004         40.5004
  20762639.5124    -553369.19949   -432608.50048                  20762635.0154
        50.7504         41.0004
  22806535.7794   -2059675.33649  -1598326.64147                  22806531.2784
        49.0004         33.7504
  22079064.3994    -293366.03549   -231810.39847                  22079061.1424
        45.0004         28.7504
  22998459.0134     307088.32049    234166.72346                  22998455.1244
        41.7504         21.2504
 04  6 29 15  3 15.0000000  0  8G 6G15G16G18G21G22G26G29
  20908504.4784     889995.44949    684093.30548                  20908501.8464
        51.5004         40.5004
  23129614.2504   -1724885.42649  -1316705.48047                  23129612.0444
        41.2504         29.0004
  23287122.9954    -621028.49649   -485012.77047                  23287118.9154
        44.2504         27.0004
  20834489.9714   -1189364.48449   -924147.12548                  20834485.1094
        51.0004         41.0004
  20760134.0554    -566533.58249   -442866.47348                  20760130.1824
        51.0004         41.0004
  22797281.1444   -2108309.67249  -1636223.51247                  22797276.7994
        48.0004         33.5004
  22078119.0854    -298333.53549   -235681.16447                  22078116.5014
        45.5004         30.0004
  23000233.6294     316416.48049    241435.38746                  23000231.2634
        41.0004         21.7504
 04  6 29 15  3 30.0000000  0  8G 6G15G16G18G21G22G26G29
  20912643.0024     911742.82049    701039.32048                  20912640.7964
        51.0004         40.7504
  23121911.2524   -1765364.30149  -1348247.44547                  23121909.9264
        42.5004         29.2504
  23284749.7794    -633501.43449   -494731.94147                  23284745.6064
        46.0004         27.7504
  20829526.4144   -1215446.69549   -944470.91848                  20829521.9654
        50.7504         41.5004
  20757631.5964    -579684.14549   -453113.66048                  20757628.2344
        51.2504         41.2504
  22788032.8264   -2156908.24249  -1674092.51247                  22788028.1174
        47.7504         33.2504
  22077197.8324    -303172.23849   -239451.57447                  22077195.7174
        45.0004         29.5004
  23002028.4114     325844.48449    248781.86746                  23002025.7194
        40.5004         21.5004
 04  6 29 15  3 45.0000000  0  8G 6G15G16G18G21G22G26G29
  20916795.5384     933564.60949    718043.31648                  20916793.2534
        52.0004         41.0004
  23114206.2184   -1805860.34849  -1379802.78947                  23114203.9644
        42.5004         29.5004
  23282395.3174    -645875.19549   -504373.85947                  23282391.0954
        46.2504         28.5004
  20824577.6224   -1241453.82449   -964736.21548                  20824573.1094
        51.2504         41.0004
  20755131.7694    -592821.92249   -463350.90648                  20755127.6034
        51.0004         41.0004
  22778791.7954   -2205472.03949  -1711934.41447                  22778786.6664
        48.2504         33.5004
  22076301.8004    -307883.13349   -243122.40247                  22076298.9614
        44.5004         29.5004
  23003841.1214     335371.25049    256205.29746                  23003838.5824
        40.7504         21.0004
 04  6 29 15  4  0.0000000  0  8G 6G15G16G18G21G22G26G29
  20920962.5964     955463.12549    735107.08648                  20920960.6294
        51.7504         41.0004
  23106497.0274   -1846371.14149  -1411369.62547                  23106495.0934
        43.5004         29.5004
  23280059.7034    -658147.22749   -513936.51647                  23280054.8604
        44.7504         27.2504
  20819643.1904   -1267383.46149   -984941.11748                  20819639.0894
        50.5004         41.5004
  20752634.7674    -605944.46149   -473576.27048                  20752630.2874
        50.5004         40.7504
  22769557.2184   -2253998.41049  -1749747.14147                  22769552.1394
        47.2504         33.5004
  22075430.0344    -312463.77049   -246691.74247                  22075427.8534
        45.5004         28.7504
  23005673.2574     344999.05149    263707.48046                  23005670.5744
        41.0004         21.7504
 04  6 29 15  4 15.0000000  0  8G 6G15G16G18G21G22G26G29
  20925144.1674     977437.81349    752230.19948                  20925142.2384
        52.0004         41.0004
  23098785.1354   -1886897.28949  -1442948.41847                  23098783.4164
        43.2504         30.7504
  23277743.8574    -670318.23849   -523420.40247                  23277738.9354
        45.2504         27.0004
  20814723.6954   -1293236.23049  -1005086.13348                  20814719.5854
        50.7504         41.5004
  20750140.5024    -619052.57849   -483790.38348                  20750135.1724
        51.0004         40.7504
  22760329.9844   -2302487.88349  -1787531.15247                  22760324.7384
        47.2504         33.5004
  22074582.8194    -316914.62549   -250159.98047                  22074581.1194
        45.2504         29.5004
  23007523.8744     354727.00449    271287.70746                  23007521.7224
        40.5004         22.2504
 04  6 29 15  4 30.0000000  0  8G 6G15G16G18G21G22G26G29
  20929340.4044     999489.87549    769413.62148                  20929338.3104
        51.2504         41.0004
  23091070.7854   -1927437.42249  -1474538.12147                  23091068.5794
        43.0004         30.2504
  23275446.8104    -682386.78949   -532824.48447                  23275443.0784
        41.7504         26.0004
  20809818.5154   -1319010.58249  -1025170.04748                  20809814.5704
        49.7504         41.5004
  20747649.0894    -632144.89849   -493992.19548                  20747644.1434
        51.5004         41.2504
  22751110.1544   -2350938.90249  -1825285.16447                  22751105.3854
        48.7504         33.5004
  22073761.2464    -321234.39849   -253526.05147                  22073759.2194
        45.7504         29.5004
  23009394.3604     364556.67649    278947.20346                  23009392.3764
        39.2504         22.5004
 04  6 29 15  4 45.0000000  0  8G 6G15G16G18G21G22G26G29
  20933552.1224    1021620.54349    786658.28948                  20933549.6594
        51.7504         40.7504
  23083353.8404   -1967990.12949  -1506137.62547                  23083351.6094
        44.2504         30.0004
  23273169.5944    -694351.60949   -542147.71547                  23273166.6344
        41.5004         28.0004
  20804929.2034   -1344704.94949  -1045191.63748                  20804925.2674
        50.2504         41.0004
  20745160.7514    -645219.78149   -504180.42248                  20745156.7124
        50.2504         41.0004
  22741897.7814   -2399349.80949  -1863007.93047                  22741893.2524
        47.5004         32.7504
  22072964.3394    -325421.56649   -256788.75847                  22072961.6054
        45.5004         28.5004
  23011284.0404     374489.18849    286686.84446                  23011282.2384
        40.5004         22.0004
 04  6 29 15  5  0.0000000  0  8G 6G15G16G18G21G22G26G29
  20937778.0184    1043830.21549    803964.52748                  20937776.1134
        51.5004         40.7504
  23075635.1364   -2008555.06649  -1537746.64847                  23075632.8424
        43.7504         30.5004
  23270913.6614    -706212.18749   -551389.73447                  23270909.1984
        44.5004         28.2504
  20800055.4004   -1370318.88349  -1065150.54348                  20800051.0554
        50.5004         41.0004
  20742676.4244    -658276.74649   -514354.69148                  20742672.4214
        51.2504         41.7504
  22732693.3914   -2447719.91449  -1900698.91447                  22732688.8904
        47.5004         32.5004
  22072192.0584    -329475.69549   -259947.80547                  22072189.2974
        44.2504         28.5004
  23013194.5504     384524.90249    294506.88346                  23013191.6804
        41.0004         22.7504
 04  6 29 15  5 15.0000000  0  8G 6G15G16G18G21G22G26G29
  20942019.3324    1066118.30149    821331.84048                  20942017.4974
        51.7504         40.2504
  23067912.4534   -2049132.58249  -1569365.48447                  23067910.7424
        43.7504         29.7504
  23268675.7314    -717968.94149   -560550.85947                  23268672.2174
        44.5004         28.5004
  20795196.3064   -1395852.97749  -1085047.24648                  20795192.2934
        50.7504         41.7504
  20740194.8754    -671316.27349   -524515.36748                  20740190.9474
        51.0004         41.2504
  22723496.4834   -2496049.50849  -1938358.34047                  22723492.2804
        47.0004         33.2504
  22071446.1784    -333397.14149   -263003.48847                  22071444.1534
        43.7504         29.0004
  23015123.3284     394663.29749    302406.91846                  23015120.5754
        43.0004         22.2504
 04  6 29 15  5 30.0000000  0  8G 6G15G16G18G21G22G26G29
  20946276.2144    1088486.53549    838761.62148                  20946274.1274
        50.5004         40.5004
  23060189.1404   -2089720.89849  -1600992.73047                  23060186.5684
        44.5004         29.5004
  23266458.5884    -729620.15249   -569629.73047                  23266455.0484
        43.2504         27.7504
  20790352.9954   -1421305.23049  -1104880.16448                  20790348.5844
        50.7504         41.5004
  20737717.4534    -684336.55549   -534661.04748                  20737712.6544
        51.0004         41.2504
  22714307.5314   -2544336.69149  -1975984.68047                  22714303.6114
        47.0004         33.7504
  22070726.2034    -337183.96549   -265954.27047                  22070724.1384
        43.7504         29.0004
  23017073.1814     404906.10549    310388.29746                  23017069.2714
        43.5004         22.2504
 04  6 29 15  5 45.0000000  0  8G 6G15G16G18G21G22G26G29
  20950547.5504    1110934.69149    856253.68848                  20950545.5884
        50.2504         40.7504
  23052463.5204   -2130320.05149  -1632628.42647                  23052460.5234
        44.5004         29.5004
  23264261.0024    -741165.82449   -578626.36747                  23264258.6414
        43.2504         28.2504
  20785525.1924   -1446675.85949  -1124649.47748                  20785520.8534
        50.2504         40.7504
  20735243.1614    -697337.75849   -544791.85548                  20735238.7114
        51.5004         41.2504
  22705126.8354   -2592581.46149  -2013578.00447                  22705122.9014
        47.7504         33.5004
  22070030.8604    -340836.38749   -268800.30147                  22070028.7384
        45.7504         30.2504
  23019042.1974     415253.16849    318450.93846                  23019037.8634
        44.0004         23.0004
 04  6 29 15  6  0.0000000  0  8G 6G15G16G18G21G22G26G29
  20954834.6234    1133463.20749    873808.35548                  20954832.8644
        50.0004         40.2504
  23044735.5614   -2170929.59849  -1664272.20347                  23044732.3214
        43.5004         28.2504
  23262084.7564    -752605.61349   -587540.50847                  23262081.1334
        43.0004         29.5004
  20780713.1154   -1471964.25849  -1144354.73048                  20780708.5204
        50.5004         41.0004
  20732772.9314    -710319.28149   -554907.33648                  20732768.6754
        52.0004         40.5004
  22695954.4534   -2640783.22749  -2051137.80947                  22695950.4044
        48.0004         33.7504
  22069361.2574    -344353.76249   -271541.09847                  22069358.2404
        45.0004         29.2504
  23021030.9874     425704.77749    326595.02746                  23021028.0114
        45.0004         22.7504
 04  6 29 15  6 15.0000000  0  8G 6G15G16G18G21G22G26G29
  20959137.4434    1156072.56349    891426.00048                  20959134.9974
        51.7504         40.7504
  23037005.6014   -2211548.88749  -1695923.59847                  23037002.8884
        42.0004         28.5004
  23259928.0304    -763938.79349   -596371.54747                  23259924.8584
        42.5004         28.7504
  20775916.6454   -1497169.80549  -1163995.42248                  20775912.0064
        50.7504         41.2504
  20730306.3634    -723280.56249   -565007.04748                  20730302.1124
        51.2504         41.0004
  22686790.6904   -2688940.98449  -2088663.32447                  22686786.7354
        48.2504         34.0004
  22068718.5304    -347735.39149   -274176.12547                  22068715.2314
        45.0004         30.0004
  23023040.1234     436261.51649    334821.02746                  23023037.5994
        45.0004         23.0004
 04  6 29 15  6 30.0000000  0  8G 6G15G16G18G21G22G26G29
  20963455.4894    1178763.35549    909107.12948                  20963452.8984
        51.2504         41.0004
  23029274.4074   -2252177.23049  -1727582.03547                  23029272.4754
        42.5004         28.7504
  23257792.1184    -775164.62949   -605118.97347                  23257788.8864
        42.5004         28.5004
  20771135.5754   -1522291.91449  -1183571.08648                  20771131.5324
        50.7504         41.5004
  20727844.1354    -736220.71149   -575090.28148                  20727839.3664
        51.2504         41.2504
  22677634.6414   -2737054.06249  -2126154.02047                  22677630.5994
        48.5004         33.5004
  22068100.9234    -350980.64849   -276704.90647                  22068098.0834
        46.0004         30.5004
  23025068.9554     446923.90649    343129.36346                  23025066.3874
        45.0004         24.7504
 04  6 29 15  6 45.0000000  0  8G 6G15G16G18G21G22G26G29
  20967788.9874    1201536.52349    926852.43448                  20967786.3424
        52.2504         41.7504
  23021542.2744   -2292813.56649  -1759246.73047                  23021539.0504
        43.5004         29.0004
  23255675.9194    -786282.21949   -613782.01647                  23255673.5154
        43.5004         30.2504
  20766371.4504   -1547329.44949  -1203080.85248                  20766367.1554
        50.7504         41.5004
  20725385.6824    -749138.91449   -585156.41848                  20725381.4664
        51.5004         41.7504
  22668487.8294   -2785121.29349  -2163608.99247                  22668483.8044
        48.0004         33.5004
  22067509.0734    -354088.41449   -279126.53547                  22067507.4024
        46.5004         31.2504
  23027118.1514     457692.85549    351520.72346                  23027114.9824
        44.7504         23.2504
 04  6 29 15  7  0.0000000  0  8G 6G15G16G18G21G22G26G29
  20972138.1734    1224390.58249    944660.77748                  20972135.1014
        51.2504         41.0004
  23013807.3184   -2333459.25449  -1790918.68747                  23013804.8404
        42.7504         29.0004
  23253581.1154    -797292.98449   -622361.87547                  23253577.4914
        44.0004         29.5004
  20761622.5554   -1572283.75849  -1222525.77048                  20761618.7224
        50.2504         41.5004
  20722931.5924    -762036.48449   -595206.47748                  20722926.8964
        51.0004         40.7504
  22659349.5624   -2833143.79349  -2201029.11347                  22659345.3524
        49.0004         34.2504
  22066943.4484    -357059.98849   -281442.04347                  22066941.6144
        46.0004         31.2504
  23029187.3124     468566.92249    359994.00846                  23029183.8244
        44.5004         22.5004
 04  6 29 15  7 15.0000000  0  8G 6G15G16G18G21G22G26G29
  20976502.4044    1247325.75449    962532.34448                  20976499.5194
        52.0004         40.5004
  23006070.5254   -2374113.82849  -1822597.55147                  23006068.7904
        44.0004         29.5004
  23251505.8334    -808196.49249   -630858.10247                  23251502.8944
        44.7504         30.2504
  20756889.7834   -1597154.43049  -1241905.50848                  20756886.0474
        50.5004         41.5004
  20720480.8904    -774912.77049   -605239.94948                  20720476.6674
        50.7504         40.7504
  22650219.1324   -2881120.96949  -2238413.91447                  22650215.2144
        47.2504         34.0004
  22066403.9894    -359895.04349   -283651.17647                  22066400.9644
        46.2504         29.2504
  23031275.9444     479546.38349    368549.45346                  23031273.6134
        43.5004         23.7504
 04  6 29 15  7 30.0000000  0  8G 6G15G16G18G21G22G26G29
  20980883.0484    1270344.69149    980469.18048                  20980880.2434
        52.0004         40.2504
  22998333.3234   -2414774.55549  -1854281.24247                  22998331.2784
        43.5004         30.0004
  23249451.8494    -818990.03549   -639268.68047                  23249448.4074
        45.0004         29.5004
  20752173.2154   -1621938.66449  -1261217.89148                  20752169.9724
        50.2504         41.5004
  20718035.3664    -787765.22749   -615254.86348                  20718031.1504
        51.0004         40.7504
  22641099.2394   -2929049.92249  -2275761.12947                  22641094.2514
        48.0004         34.0004
  22065890.8704    -362590.74249   -285751.72347                  22065888.3184
        46.0004         28.0004
  23033385.7414     490633.82849    377189.01246                  23033384.2614
        42.5004         24.5004
 04  6 29 15  7 45.0000000  0  8G 6G15G16G18G21G22G26G29
  20985278.6244    1293445.96949    998470.15248                  20985275.9914
        51.2504         40.2504
  22990594.4654   -2455442.89849  -1885970.85547                  22990592.4694
        45.0004         29.7504
  23247418.1354    -829675.02049   -647594.66447                  23247415.5924
        43.2504         30.0004
  20747473.4954   -1646637.92649  -1280464.08248                  20747469.2844
        50.2504         41.7504
  20715593.7804    -800595.27349   -625252.30948                  20715589.9744
        51.0004         40.7504
  22631987.3764   -2976932.08249  -2313071.88347                  22631982.8684
        48.0004         33.7504
  22065404.4454    -365148.49249   -287744.77747                  22065401.7444
        46.0004         29.0004
  23035516.2744     501827.78149    385911.57447                  23035514.5874
        44.5004         26.7504
 04  6 29 15  8  0.0000000  0  8G 6G15G16G18G21G22G26G29
  20989691.4034    1316631.54749   1016536.81648                  20989688.1454
        51.0004         41.0004
  22982854.7074   -2496116.64849  -1917664.67247                  22982852.9784
        44.0004         30.2504
  23245406.7654    -840249.31649   -655834.37947                  23245403.3374
        44.0004         30.5004
  20742789.8244   -1671249.98449  -1299642.30948                  20742785.9954
        50.5004         41.2504
  20713157.1634    -813400.46949   -635230.38748                  20713152.7204
        51.5004         40.5004
  22622884.6144   -3024765.00449  -2350344.28147                  22622880.6044
        47.0004         34.2504
  22064944.8184    -367565.98449   -289628.55547                  22064942.4894
        46.0004         29.7504
  23037667.5264     513130.21149    394718.66847                  23037665.2994
        44.2504         26.7504
 04  6 29 15  8 15.0000000  0  8G 6G15G16G18G21G22G26G29
  20994118.8154    1339900.15249   1034668.18848                  20994116.2024
        51.7504         40.2504
  22975113.4374   -2536796.92649  -1949363.59447                  22975111.5004
        44.5004         29.2504
  23243415.0764    -850714.18049   -663988.82847                  23243412.1124
        44.2504         30.5004
  20738122.6964   -1695775.93049  -1318753.43748                  20738119.2194
        50.5004         41.2504
  20710725.0524    -826182.04349   -645190.05548                  20710720.7014
        51.0004         40.5004
  22613792.1404   -3072549.55949  -2387578.96947                  22613787.8484
        47.2504         34.2504
  22064510.7894    -369844.53549   -291404.04747                  22064508.0234
        44.0004         28.5004
  23039838.8274     524539.73849    403609.22746                  23039836.9964
        44.2504         25.5004
 04  6 29 15  8 30.0000000  0  8G 6G15G16G18G21G22G26G29
  20998563.1474    1363253.89849   1052865.90648                  20998560.1834
        51.0004         40.2504
  22967371.5484   -2577481.60249  -1981065.96547                  22967368.6844
        44.0004         29.7504
  23241444.9964    -861067.43749   -672056.30947                  23241441.8724
        45.5004         30.5004
  20733472.5944   -1720213.64149  -1337795.80548                  20733468.3774
        50.2504         41.2504
  20708297.7104    -838937.97749   -655129.75448                  20708293.0784
        51.5004         41.2504
  22604708.6094   -3120283.65249  -2424774.34847                  22604704.3384
        47.5004         34.0004
  22064103.5204    -371981.88749   -293069.50847                  22064101.1824
        43.5004         28.0004
  23042030.7944     536058.59849    412584.93046                  23042028.5004
        43.5004         25.5004
 04  6 29 15  8 45.0000000  0  8G 6G15G16G18G21G22G26G29
  21003023.0794    1386691.62149   1071129.05548                  21003019.8984
        52.0004         40.7504
  22959628.5934   -2618171.75449  -2012772.55547                  22959625.4064
        44.7504         29.7504
  23239495.6304    -871310.14849   -680037.66447                  23239492.6164
        42.5004         30.0004
  20728838.6404   -1744564.11749  -1356770.20348                  20728834.4654
        50.0004         41.5004
  20705874.9834    -851669.05949   -665050.08248                  20705870.2254
        51.2504         41.2504
  22595634.4994   -3167968.11749  -2461931.06647                  22595630.1974
        46.5004         34.0004
  22063723.9514    -373979.00449   -294625.69147                  22063721.2504
        44.7504         27.5004
  23044242.9944     547685.60249    421644.90646                  23044240.0174
        44.7504         25.5004
 04  6 29 15  9  0.0000000  0  8G 6G15G16G18G21G22G26G29
  21007499.0594    1410213.34049   1089457.65648                  21007496.1014
        51.5004         40.0004
  22951884.4064   -2658867.09849  -2044483.20347                  22951881.0124
        45.0004         29.7504
  23237567.7524    -881442.13749   -687932.73847                  23237564.7534
        43.0004         29.0004
  20724221.6154   -1768827.10949  -1375676.42648                  20724217.3694
        51.0004         41.7504
  20703457.0584    -864375.09449   -674950.89148                  20703452.3174
        50.7504         41.0004
  22586569.3264   -3215602.44949  -2499048.71547                  22586565.5834
        46.7504         33.7504
  22063370.9294    -375835.75049   -296072.52047                  22063367.5264
        43.7504         28.0004
  23046476.3884     559420.88349    430789.25046                  23046472.2724
        43.0004         24.5004
 04  6 29 15  9 15.0000000  0  8G 6G15G16G18G21G22G26G29
  21011991.3564    1433819.79349   1107852.30948                  21011988.8544
        52.5004         40.5004
  22944139.6854   -2699566.70349  -2076197.17647                  22944136.5494
        46.0004         29.2504
  23235660.7284    -891462.66849   -695740.98847                  23235657.3364
        43.0004         28.5004
  20719621.6434   -1793001.87949  -1394513.91048                  20719616.9564
        51.0004         41.7504
  20701044.1174    -877055.08649   -684831.41448                  20701039.3434
        50.5004         41.0004
  22577515.2814   -3263185.73449  -2536126.61347                  22577511.0494
        47.0004         34.2504
  22063044.1684    -377551.12949   -297409.19147                  22063041.3324
        44.2504         28.0004
  23048730.4244     571265.10949    440018.49647                  23048727.0154
        42.5004         25.7504
 04  6 29 15  9 30.0000000  0  8G 6G15G16G18G21G22G26G29
  21016499.6594    1457510.84849   1126312.84448                  21016497.4714
        52.0004         40.7504
  22936393.1064   -2740270.73049  -2107914.59047                  22936391.4444
        45.5004         29.5004
  23233775.4494    -901371.75049   -703462.35947                  23233772.0724
        45.0004         28.0004
  20715037.8564   -1817088.53949  -1413282.72748                  20715033.4014
        51.0004         41.5004
  20698636.0404    -889709.11349   -694691.70348                  20698631.5924
        51.2504         40.5004
  22568469.8774   -3310717.94949  -2573164.68047                  22568465.6744
        47.0004         33.7504
  22062744.4604    -379125.42649   -298635.90647                  22062741.9954
        44.0004         27.0004
  23051004.5664     583218.11349    449332.52747                  23051001.9744
        41.5004         26.5004
 04  6 29 15  9 45.0000000  0  8G 6G15G16G18G21G22G26G29
  21021023.7614    1481285.91449   1144838.84448                  21021021.5674
        51.5004         41.0004
  22928646.5884   -2780979.65649  -2139635.80947                  22928645.0614
        44.5004         29.0004
  23231911.5054    -911169.89549   -711097.29347                  23231907.4534
        44.0004         29.2504
  20710470.8364   -1841087.39849  -1431983.14148                  20710466.7524
        50.7504         41.0004
  20696233.0274    -902337.65649   -704532.12548                  20696228.5094
        51.0004         40.5004
  22559434.7034   -3358199.43449  -2610163.23047                  22559430.5304
        47.5004         34.5004
  22062472.3394    -380558.99249   -299752.96547                  22062468.5764
        44.5004         28.0004
  23053299.8434     595279.12549    458730.71547                  23053297.3054
        42.5004         27.7504
 04  6 29 15 10  0.0000000  0  8G 6G15G16G18G21G22G26G29
  21025564.0934    1505146.41849   1163431.40248                  21025561.7004
        51.5004         41.0004
  22920899.5804   -2821691.62949  -2171359.41447                  22920897.1844
        44.2504         28.5004
  23230067.1574    -920855.45349   -718644.48447                  23230064.7464
        44.0004         29.2504
  20705921.1434   -1864996.81649  -1450613.85248                  20705917.1224
        49.7504         41.2504
  20693835.0554    -914939.34449   -714351.61748                  20693830.3424
        51.5004         41.0004
  22550409.4544   -3405628.28949  -2647120.77047                  22550405.0134
        48.5004         34.0004
  22062226.0484    -381850.02749   -300758.94947                  22062222.5544
        43.5004         26.0004
  23055615.5674     607449.86349    468214.40247                  23055613.6494
        41.2504         27.5004
 04  6 29 15 10 15.0000000  0  8G 6G15G16G18G21G22G26G29
  21030121.2634    1529093.10249   1182091.14148                  21030118.5614
        52.2504         40.7504
  22913151.6154   -2862405.94149  -2203084.84447                  22913149.2164
        45.0004         28.2504
  23228246.5534    -930427.73449   -726103.41047                  23228243.0414
        43.5004         29.5004
  20701388.3464   -1888816.05949  -1469174.30148                  20701384.2824
        50.7504         41.5004
  20691442.1724    -927513.10549   -724149.36348                  20691438.1344
        50.2504         41.0004
  22541394.0534   -3453003.53149  -2684036.54347                  22541389.9994
        49.2504         34.0004
  22062007.3234    -382997.84449   -301653.36746                  22062004.1424
        43.7504         25.2504
  23057953.2724     619730.88749    477784.03947                  23057950.8244
        42.0004         28.0004
 04  6 29 15 10 30.0000000  0  8G 6G15G16G18G21G22G26G29
  21034694.6184    1553125.38749   1200817.58648                  21034691.7654
        51.7504         40.5004
  22905403.6074   -2903123.14849  -2234812.52747                  22905400.3334
        44.5004         28.5004
  23226446.6234    -939887.28549   -733474.50847                  23226443.1804
        42.7504         28.5004
  20696872.9504   -1912545.59049  -1487664.84848                  20696868.8434
        50.0004         41.7504
  20689055.1324    -940059.60949   -733925.87948                  20689050.4674
        51.2504         40.2504
  22532388.7114   -3500325.70749  -2720910.94547                  22532384.6124
        48.7504         34.0004
  22061816.0414    -384002.94549   -302436.53547                  22061814.0894
        45.0004         27.0004
  23060310.2604     632121.57849    487439.14547                  23060308.3374
        43.7504         28.7504
 04  6 29 15 10 45.0000000  0  8G 6G15G16G18G21G22G26G29
  21039283.7174    1577243.53149   1219610.94948                  21039281.2944
        51.7504         40.0004
  22897654.5524   -2943842.80549  -2266542.10547                  22897652.1834
        44.7504         27.7504
  23224667.9944    -949233.70749   -740757.45747                  23224664.5834
        44.0004         29.5004
  20692374.4784   -1936184.99249  -1506085.16448                  20692370.4824
        50.0004         41.2504
  20686672.6074    -952578.23049   -743680.64848                  20686668.0214
        51.2504         40.7504
  22523393.7384   -3547594.03149  -2757743.40247                  22523389.2154
        48.2504         34.2504
  22061652.1704    -384864.93749   -303108.23447                  22061650.5294
        45.2504         28.5004
  23062689.9634     644622.21549    497179.89547                  23062687.6234
        43.7504         29.0004
 04  6 29 15 11  0.0000000  0  8G 6G15G16G18G21G22G26G29
  21043889.8564    1601447.38749   1238471.08248                  21043886.9614
        51.5004         40.2504
  22889905.7984   -2984564.87949  -2298273.59047                  22889903.1234
        44.2504         28.2504
  23222910.5894    -958467.01649   -747952.25447                  23222907.4044
        44.2504         29.0004
  20687893.2084   -1959734.15649  -1524435.16048                  20687889.4114
        50.7504         41.5004
  20684295.7364    -965068.88749   -753413.63348                  20684291.5034
        51.0004         40.7504
  22514409.1394   -3594808.41449  -2794533.81647                  22514405.1024
        49.0004         34.5004
  22061516.0444    -385583.82049   -303668.41047                  22061513.4514
        47.0004         29.5004
  23065088.8244     657232.65249    507006.20747                  23065087.0964
        43.5004         28.0004
 04  6 29 15 11 15.0000000  0  8G 6G15G16G18G21G22G26G29
  21048511.8484    1625737.79349   1257398.66448                  21048509.3724
        52.0004         40.0004
  22882156.1464   -3025288.33649  -2330006.13747                  22882153.2654
        45.0004         29.2504
  23221174.8524    -967586.44149   -755058.31647                  23221172.5124
        43.7504         29.0004
  20683429.2904   -1983192.23449  -1542714.18448                  20683425.1484
        50.7504         41.7504
  20681924.2094    -977530.64549   -763124.09448                  20681920.0954
        51.2504         40.7504
  22505435.4444   -3641967.80549  -2831281.37547                  22505430.8244
        48.5004         34.2504
  22061406.3194    -386158.51649   -304116.23447                  22061404.3974
        47.0004         29.2504
  23067509.9474     669953.89849    516918.83247                  23067507.2664
        43.0004         26.7504
 04  6 29 15 11 30.0000000  0  8G 6G15G16G18G21G22G26G29
  21053150.7404    1650114.50449   1276393.50848                  21053148.0774
        51.2504         39.7504
  22874406.7974   -3066013.29749  -2361739.85547                  22874403.4334
        46.5004         29.2504
  23219461.9224    -976591.90649   -762075.58247                  23219457.7814
        44.0004         29.5004
  20678982.3874   -2006559.29349  -1560922.27048                  20678978.8484
        50.2504         41.5004
  20679558.2844    -989963.67649   -772812.17648                  20679554.5594
        51.0004         40.7504
  22496472.0474   -3689072.11749  -2867986.02047                  22496466.7144
        49.2504         34.0004
  22061324.0364    -386589.19949   -304451.87147                  22061322.3084
        46.2504         29.0004
  23069952.2874     682785.52049    526917.48847                  23069948.4934
        44.7504         26.0004
 04  6 29 15 11 45.0000000  0  8G 6G15G16G18G21G22G26G29
  21057805.7614    1674577.48049   1295455.55948                  21057803.4074
        51.5004         40.7504
  22866656.6654   -3106739.73849  -2393474.72747                  22866654.3874
        46.5004         31.2504
  23217769.6984    -985483.50449   -769004.13747                  23217765.7954
        45.2504         30.2504
  20674553.3284   -2029835.19949  -1579059.33648                  20674549.6984
        49.5004         41.5004
  20677197.8104   -1002367.90649   -782477.81248                  20677193.4144
        51.2504         40.0004
  22487518.6104   -3736121.10949  -2904647.57447                  22487513.4624
        48.2504         33.7504
  22061269.9624    -386875.78549   -304675.19947                  22061267.2874
        46.5004         29.0004
  23072414.6424     695727.42649    537002.10547                  23072411.4504
        45.2504         27.7504
 04  6 29 15 12  0.0000000  0  8G 6G15G16G18G21G22G26G29
  21062477.8554    1699128.59449   1314586.26648                  21062475.5004
        51.5004         40.5004
  22858907.2894   -3147465.74249  -2425209.25847                  22858904.3514
        47.0004         30.0004
  23216099.6744    -994259.32049   -775842.44947                  23216096.4084
        43.5004         30.2504
  20670141.5624   -2053018.18049  -1597123.99248                  20670137.8994
        50.0004         41.2504
  20674843.3294   -1014741.20349   -792119.35548                  20674839.0094
        51.5004         41.0004
  22478575.9404   -3783112.78549  -2941264.43447                  22478571.9654
        48.5004         34.0004
  22061243.2134    -387016.29349   -304784.69147                  22061240.1904
        48.2504         30.0004
  23074899.4584     708781.51649    547174.09847                  23074895.1584
        45.2504         27.0004
 04  6 29 15 12 15.0000000  0  8G 6G15G16G18G21G22G26G29
  21067166.3374    1723766.70349   1333784.78948                  21067163.5474
        51.7504         40.2504
  22851156.7154   -3188192.13349  -2456944.10547                  22851154.4884
        44.5004         30.5004
  23214451.6514   -1002920.30949   -782591.27347                  23214449.1014
        43.5004         29.0004
  20665747.4914   -2076109.01649  -1615116.86348                  20665743.9504
        50.2504         41.5004
  20672494.6004   -1027084.52349   -801737.52748                  20672490.1864
        51.0004         41.2504
  22469644.6744   -3830047.87549  -2977837.21147                  22469639.9644
        48.0004         34.2504
  22061244.1574    -387011.89149   -304781.26247                  22061240.1504
        48.5004         28.7504
  23077404.3434     721946.68849    557432.64847                  23077400.5074
        45.5004         27.2504
 04  6 29 15 12 30.0000000  0  8G 6G15G16G18G21G22G26G29
  21071871.3934    1748492.55549   1353051.67248                  21071869.1534
        51.0004         41.0004
  22843407.5374   -3228918.05149  -2488678.59047                  22843404.3514
        46.0004         30.5004
  23212825.6984   -1011465.84849   -789250.15647                  23212822.7034
        43.2504         28.7504
  20661371.2654   -2099106.89849  -1633037.29748                  20661367.5644
        50.0004         41.2504
  20670151.3774   -1039397.12149   -811331.76648                  20670147.3864
        51.5004         40.5004
  22460724.5714   -3876925.33249  -3014365.07847                  22460719.5084
        49.0004         34.7504
  22061273.1404    -386861.58249   -304664.09847                  22061268.6814
        48.2504         30.0004
  23079930.5264     735223.61349    567778.29347                  23079927.7374
        45.0004         29.0004
 04  6 29 15 12 45.0000000  0  8G 6G15G16G18G21G22G26G29
  21076593.0534    1773306.07449   1372386.88348                  21076591.0654
        51.0004         40.7504
  22835657.6764   -3269643.51249  -2520412.71147                  22835654.5584
        45.7504         30.5004
  23211221.3724   -1019895.80949   -795818.96547                  23211218.1554
        42.2504         29.0004
  20657012.7454   -2122011.83249  -1650885.28948                  20657008.9054
        50.5004         41.5004
  20667814.2504   -1051678.96149   -820902.02748                  20667810.0044
        51.0004         40.5004
  22451814.6494   -3923745.09449  -3050848.00047                  22451810.0954
        48.5004         34.0004
  22061328.6484    -386565.30949   -304433.23047                  22061326.2524
        48.0004         30.5004
  23082478.4244     748612.19149    578210.94147                  23082475.8554
        45.0004         28.2504
 04  6 29 15 13  0.0000000  0  8G 6G15G16G18G21G22G26G29
  21081331.7184    1798206.27749   1391789.63748                  21081329.6144
        51.5004         40.7504
  22827907.1944   -3310369.27749  -2552147.04347                  22827904.8774
        46.5004         31.5004
  23209638.4004   -1028211.14849   -802298.46547                  23209635.3844
        43.0004         28.0004
  20652671.4804   -2144824.65249  -1668661.50048                  20652667.7494
        50.7504         41.5004
  20665482.6324   -1063930.80149   -830448.91848                  20665478.5784
        52.2504         41.2504
  22442915.5654   -3970507.82849  -3087286.48447                  22442911.4834
        48.2504         34.5004
  22061412.8114    -386123.94549   -304089.33247                  22061410.9824
        46.7504         30.7504
  23085047.7654     762111.43849    588729.81347                  23085044.7074
        44.5004         28.7504
 04  6 29 15 13 15.0000000  0  8G 6G15G16G18G21G22G26G29
  21086086.9374    1823194.28949   1411260.78948                  21086084.1084
        51.7504         40.5004
  22820157.4634   -3351093.97749  -2583880.55947                  22820155.6214
        46.2504         30.5004
  23208078.3664   -1036410.54349   -808687.60247                  23208075.0954
        41.5004         28.5004
  20648348.1804   -2167543.96549  -1686364.86348                  20648344.7484
        50.0004         41.5004
  20663157.5444   -1076151.12949   -839971.27048                  20663153.2114
        51.0004         41.2504
  22434028.2144   -4017212.05149  -3123679.37947                  22434023.8924
        47.7504         34.5004
  22061524.5354    -385536.18449   -303631.34447                  22061522.8744
        47.0004         30.2504
  23087637.5824     775722.49649    599335.85247                  23087634.9194
        43.7504         27.7504
 04  6 29 15 13 30.0000000  0  8G 6G15G16G18G21G22G26G29
  21090858.7434    1848271.04749   1430801.11748                  21090855.9844
        52.0004         40.7504
  22812408.0224   -3391816.58649  -2615612.44147                  22812405.7114
        45.2504         30.2504
  23206540.3204   -1044492.95349   -814985.60247                  23206536.6604
        43.5004         29.0004
  20644043.1094   -2190168.71149  -1703994.54348                  20644039.1314
        50.5004         41.2504
  20660838.4394   -1088338.87549   -849468.21148                  20660833.4194
        51.2504         41.0004
  22425152.3424   -4063856.51649  -3160025.69947                  22425148.0354
        48.7504         34.7504
  22061664.4034    -384800.99249   -303058.46547                  22061662.2544
        47.0004         30.2504
  23090248.6024     789446.43449    610029.85247                  23090246.3554
        45.0004         29.2504
 04  6 29 15 13 45.0000000  0  8G 6G15G16G18G21G22G26G29
  21095647.7404    1873436.72749   1450410.72748                  21095645.4104
        51.7504         40.7504
  22804659.3124   -3432536.89849  -2647342.54747                  22804657.0564
        44.5004         30.5004
  23205025.1544   -1052458.32449   -821192.40247                  23205021.1394
        42.7504         28.0004
  20639755.5034   -2212698.89849  -1721550.53148                  20639751.5444
        50.0004         41.5004
  20658525.1194   -1100493.78149   -858939.56648                  20658520.6834
        51.0004         41.0004
  22416287.6074   -4110440.95349  -3196325.25047                  22416283.0774
        49.5004         34.7504
  22061832.6954    -383918.20349   -302370.57047                  22061829.6974
        47.2504         28.0004
  23092882.0394     803283.18049    620811.71547                  23092879.5014
        44.5004         29.0004
 04  6 29 15 14  0.0000000  0  8G 6G15G16G18G21G22G26G29
  21100453.1394    1898689.41449   1470088.14148                  21100450.8914
        52.0004         40.2504
  22796910.2434   -3473256.52349  -2679072.12147                  22796908.5604
        44.5004         29.5004
  23203530.9974   -1060308.37149   -827309.31647                  23203527.7804
        43.0004         29.5004
  20635486.1904   -2235136.08249  -1739034.05148                  20635481.8824
        50.2504         41.7504
  20656218.2224   -1112617.57049   -868386.68048                  20656213.4414
        51.0004         41.2504
  22407434.4814   -4156966.73049  -3232579.08647                  22407429.8824
        49.2504         35.0004
  22062028.1174    -382889.57849   -301569.06647                  22062024.7014
        47.0004         27.5004
  23095535.9484     817231.02749    631680.14847                  23095533.5444
        44.5004         30.5004
 04  6 29 15 14 15.0000000  0  8G 6G15G16G18G21G22G26G29
  21105275.1964    1924029.66049   1489833.77048                  21105272.9044
        51.0004         41.0004
  22789162.2024   -3513974.80549  -2710800.64147                  22789160.9544
        44.7504         29.5004
  23202059.3704   -1068042.50049   -833335.93047                  23202055.7774
        44.5004         29.2504
  20631233.7814   -2257479.57849  -1756444.56648                  20631230.0644
        50.5004         42.0004
  20653916.9124   -1124709.48849   -877808.95748                  20653912.6384
        50.7504         41.0004
  22398592.0184   -4203433.19149  -3268786.70347                  22398587.4064
        48.5004         35.0004
  22062252.3084    -381714.32049   -300653.28547                  22062248.7294
        46.0004         27.5004
  23098211.4884     831290.35249    642635.44147                  23098209.0044
        45.2504         30.0004
 04  6 29 15 14 30.0000000  0  8G 6G15G16G18G21G22G26G29
  21110113.6114    1949457.07049   1509647.31648                  21110110.8474
        50.5004         40.0004
  22781413.3304   -3554691.94949  -2742528.25447                  22781412.2134
        44.5004         29.5004
  23200609.7374   -1075660.91449   -839272.35947                  23200606.2474
        43.0004         29.7504
  20626999.9884   -2279729.54749  -1773782.19148                  20626995.5844
        50.0004         41.5004
  20651622.1024   -1136769.82049   -887206.62148                  20651617.7034
        51.0004         41.0004
  22389760.6834   -4249840.31649  -3304948.09847                  22389756.5104
        48.5004         35.2504
  22062503.2564    -380392.82849   -299623.56647                  22062500.5904
        46.2504         28.5004
  23100907.9684     845460.70349    653677.26647                  23100905.1804
        44.5004         30.0004
 04  6 29 15 14 45.0000000  0  8G 6G15G16G18G21G22G26G29
  21114969.1084    1974973.24649   1529530.03148                  21114966.2324
        51.2504         40.0004
  22773666.1204   -3595406.22349  -2774253.65647                  22773663.9354
        44.0004         30.5004
  23199182.2684   -1083162.03949   -845117.39847                  23199179.2544
        45.0004         29.7504
  20622783.8844   -2301884.43449  -1791045.74648                  20622779.5594
        50.0004         41.5004
  20649333.4164   -1148796.59849   -896578.14148                  20649329.2914
        51.0004         40.5004
  22380941.9064   -4296186.29749  -3341061.84847                  22380937.5754
        48.5004         35.5004
  22062782.7064    -378923.26249   -298478.45747                  22062780.3294
        46.2504         30.5004
  23103625.7444     859743.84049    664806.96947                  23103623.3274
        44.0004         29.2504
 04  6 29 15 15  0.0000000  0  8G 6G15G16G18G21G22G26G29
  21119841.6014    2000578.22749   1549481.94948                  21119839.0754
        50.7504         39.7504
  22765919.2684   -3636117.47349  -2805976.68047                  22765916.1804
        45.7504         30.5004
  23197777.0024   -1090545.69549   -850870.92647                  23197773.7634
        45.0004         29.7504
  20618585.8484   -2323944.02749  -1808235.03148                  20618582.0364
        49.0004         41.2504
  20647051.3344   -1160789.85949   -905923.53948                  20647046.9664
        50.7504         41.0004
  22372134.0844   -4342470.88749  -3377127.75047                  22372129.4814
        48.7504         35.5004
  22063090.6174    -377305.63349   -297217.98847                  22063088.6954
        46.7504         30.7504
  23106365.5844     874139.63349    676024.44147                  23106362.3864
        42.7504         28.0004
 04  6 29 15 15 15.0000000  0  8G 6G15G16G18G21G22G26G29
  21124731.0844    2026271.43849   1569502.61348                  21124728.5634
        51.2504         39.7504
  22758173.0374   -3676826.05949  -2837697.64547                  22758170.1954
        46.0004         31.5004
  23196394.5434   -1097812.51649   -856533.39147                  23196390.9984
        43.7504         29.2504
  20614406.5034   -2345908.77349  -1825350.41448                  20614402.7484
        49.0004         41.5004
  20644775.4214   -1172749.92249   -915243.07448                  20644770.6904
        51.0004         41.2504
  22363337.0834   -4388694.33249  -3413146.02347                  22363332.8494
        48.0004         35.0004
  22063426.7184    -375540.34449   -295842.43047                  22063424.9934
        46.5004         32.0004
  23109126.1014     888647.61749    687329.37147                  23109123.0084
        42.7504         29.5004
 04  6 29 15 15 30.0000000  0  8G 6G15G16G18G21G22G26G29
  21129637.4134    2052054.23849   1589593.08648                  21129634.7704
        51.0004         39.5004
  22750426.8024   -3717530.48849  -2869415.36747                  22750424.6484
        45.5004         30.5004
  23195034.0894   -1104961.07049   -862103.69947                  23195030.8584
        43.7504         28.2504
  20610244.6424   -2367777.25049  -1842390.78548                  20610241.4264
        50.0004         41.5004
  20642505.9364   -1184675.28949   -924535.55948                  20642501.8024
        51.0004         41.0004
  22354553.5744   -4434855.02049  -3449115.36347                  22354548.9004
        49.0004         34.5004
  22063790.9794    -373625.82449   -294350.59847                  22063789.3844
        46.0004         32.5004
  23111908.1934     903268.96149    698722.64147                  23111905.8564
        43.0004         29.5004
 04  6 29 15 15 45.0000000  0  8G 6G15G16G18G21G22G26G29
  21134560.2634    2077925.16849   1609752.24247                  21134557.6124
        51.0004         39.0004
  22742681.8514   -3758232.10549  -2901130.90647                  22742679.3004
        44.7504         31.7504
  23193695.5284   -1111992.75849   -867582.95347                  23193692.0444
        44.5004         28.5004
  20606101.8544   -2389550.80949  -1859357.19548                  20606098.2094
        50.2504         41.5004
  20640243.4834   -1196567.29349   -933802.06648                  20640239.1754
        50.7504         41.2504
  22345781.1384   -4480954.20749  -3485036.79747                  22345776.6424
        48.7504         34.5004
  22064183.2634    -371563.65649   -292743.70747                  22064181.2384
        45.5004         32.5004
  23114712.2944     918002.27049    710203.12147                  23114709.9574
        43.2504         29.2504
 04  6 29 15 16  0.0000000  0  8G 6G15G16G18G21G22G26G29
  21139500.5634    2103886.27749   1629981.69147                  21139497.4794
        50.5004         39.0004
  22734937.2544   -3798928.62149  -2932842.47347                  22734935.5814
        45.0004         31.0004
  23192380.9444   -1118905.27749   -872969.34447                  23192377.2204
        43.5004         27.5004
  20601976.4524   -2411227.21149  -1876247.89148                  20601972.9924
        49.5004         42.2504
  20637987.0754   -1208423.68049   -943040.80948                  20637982.8664
        50.0004         41.2504
  22337020.9964   -4526989.48449  -3520908.41447                  22337016.5114
        49.0004         34.2504
  22064604.5044    -369351.50449   -291019.94547                  22064601.5784
        42.5004         31.5004
  23117537.1874     932849.54349    721772.42247                  23117535.5264
        43.5004         30.2504
 04  6 29 15 16 15.0000000  0  8G 6G15G16G18G21G22G26G29
  21144457.5994    2129935.63349   1650279.88347                  21144454.7194
        51.0004         39.0004
  22727193.6744   -3839621.75449  -2964551.39847                  22727191.6334
        46.0004         31.5004
  23191087.5284   -1125700.56649   -878264.37947                  23191083.7194
        43.5004         28.0004
  20597869.9724   -2432808.24249  -1893064.28948                  20597866.1854
        49.5004         42.2504
  20635736.9314   -1220246.31249   -952253.25848                  20635732.6034
        50.2504         41.2504
  22328272.7124   -4572962.47749  -3556731.51647                  22328268.2444
        49.0004         34.7504
  22065054.1134    -366991.28549   -289180.82847                  22065050.4084
        45.7504         31.5004
  23120384.1994     947808.95749    733429.08647                  23120381.8364
        45.0004         29.5004
 04  6 29 15 16 30.0000000  0  8G 6G15G16G18G21G22G26G29
  21149431.9004    2156073.66449   1670647.14848                  21149428.7514
        51.2504         40.0004
  22719450.7984   -3880310.95349  -2996257.26247                  22719448.7464
        45.7504         31.2504
  23189816.5554   -1132378.17249   -883467.70747                  23189812.9384
        43.5004         27.5004
  20593781.7244   -2454293.28549  -1909805.88348                  20593777.9994
        50.2504         41.7504
  20633493.8824   -1232034.33249   -961438.74248                  20633489.1464
        50.2504         40.5004
  22319536.0684   -4618872.44549  -3592505.50447                  22319531.8134
        48.5004         34.7504
  22065531.2624    -364482.32449   -287225.80547                  22065528.4634
        44.2504         30.5004
  23123252.4504     962880.94949    745173.48847                  23123249.8734
        44.5004         30.2504
 04  6 29 15 16 45.0000000  0  8G 6G15G16G18G21G22G26G29
  21154422.7104    2182300.61749   1691083.71148                  21154419.8664
        51.0004         40.2504
  22711709.0074   -3920995.88749  -3027959.78547                  22711706.2084
        45.0004         32.0004
  23188568.3094   -1138937.68449   -888579.03147                  23188565.1584
        43.0004         26.2504
  20589711.4444   -2475682.03549  -1926472.42648                  20589707.8244
        50.5004         42.0004
  20631257.7044   -1243787.33649   -970596.93748                  20631252.7104
        51.0004         41.2504
  22310811.4924   -4664718.79349  -3628229.91847                  22310807.2114
        49.0004         35.2504
  22066037.0354    -361824.43449   -285154.70347                  22066034.6954
        43.0004         31.0004
  23126141.8924     978065.70349    757005.75447                  23126139.4424
        44.2504         30.0004
 04  6 29 15 17  0.0000000  0  8G 6G15G16G18G21G22G26G29
  21159430.4184    2208616.07849   1711589.25048                  21159427.7134
        51.2504         40.5004
  22703967.4134   -3961676.66449  -3059659.09047                  22703964.9214
        45.0004         31.5004
  23187342.2604   -1145379.68049   -893598.74647                  23187339.6264
        40.5004         27.5004
  20585659.4934   -2496974.59049  -1943064.03548                  20585655.6524
        48.5004         41.7504
  20629027.6464   -1255505.75049   -979728.16048                  20629023.3254
        51.5004         41.2504
  22302099.4844   -4710501.87149  -3663905.03947                  22302095.5524
        48.7504         34.5004
  22066570.6514    -359017.89849   -282967.80147                  22066569.1444
        44.5004         31.5004
  23129053.1374     993362.66449    768925.44947                  23129049.9434
        45.0004         29.0004
 04  6 29 15 17 15.0000000  0  8G 6G15G16G18G21G22G26G29
  21164455.0644    2235021.12949   1732164.60248                  21164452.4604
        50.5004         39.5004
  22696227.0004   -4002352.02749  -3091354.17247                  22696224.3694
        45.2504         30.7504
  23186139.3364   -1151702.73049   -898525.82847                  23186135.5724
        43.7504         27.7504
  20581626.2014   -2518169.85949  -1959579.83248                  20581622.3614
        49.0004         41.5004
  20626804.3864   -1267188.50049   -988831.61348                  20626800.0504
        50.7504         41.5004
  22293399.7224   -4756220.17249  -3699529.67647                  22293395.6914
        49.2504         35.2504
  22067133.5704    -356061.40249   -280664.05147                  22067132.0794
        43.7504         31.2504
  23131985.6384    1008772.90249    780933.43447                  23131983.1014
        44.7504         28.0004
 04  6 29 15 17 30.0000000  0  8G 6G15G16G18G21G22G26G29
  21169496.6344    2261514.29349   1752808.61748                  21169493.9274
        50.2504         39.7504
  22688487.2644   -4043023.35249  -3123046.09847                  22688484.7724
        44.5004         30.0004
  23184958.3654   -1157908.32049   -903361.35947                  23184954.8384
        43.5004         28.2504
  20577611.1814   -2539269.28949  -1976020.94548                  20577607.3664
        49.2504         41.7504
  20624588.0414   -1278836.31649   -997907.83648                  20624583.1694
        51.0004         41.2504
  22284711.6374   -4801874.91449  -3735104.78947                  22284707.5794
        48.2504         35.5004
  22067724.5804    -352956.45349   -278244.60547                  22067722.7484
        45.2504         31.7504
  23134938.9614    1024295.06349    793028.62147                  23134936.9104
        45.0004         28.5004
 04  6 29 15 17 45.0000000  0  8G 6G15G16G18G21G22G26G29
  21174555.0914    2288096.49649   1773522.00847                  21174552.9014
        51.0004         39.2504
  22680748.8334   -4083689.55149  -3154734.03547                  22680746.4244
        44.5004         30.2504
  23183800.4854   -1163995.53149   -908104.65647                  23183797.3874
        43.7504         29.7504
  20573614.4794   -2560271.72749  -1992386.48448                  20573611.0724
        50.0004         42.2504
  20622378.3514   -1290448.37149  -1006956.18748                  20622373.6964
        51.2504         41.0004
  22276036.4564   -4847464.86749  -3770629.41847                  22276032.5594
        48.2504         35.2504
  22068343.3184    -349701.95749   -275708.63747                  22068341.9144
        45.0004         31.2504
  23137914.1444    1039929.94149    805211.65247                  23137911.9154
        45.5004         28.5004
 04  6 29 15 18  0.0000000  0  8G 6G15G16G18G21G22G26G29
  21179630.2244    2314768.06349   1794305.03148                  21179627.8404
        51.5004         39.5004
  22673011.3794   -4124350.24249  -3186417.67647                  22673009.5394
        44.2504         30.0004
  23182664.6434   -1169963.96549   -912755.38747                  23182662.0384
        42.0004         30.0004
  20569636.4494   -2581176.82849  -2008676.17248                  20569632.7704
        50.0004         42.0004
  20620175.2514   -1302024.14149  -1015976.27748                  20620171.0094
        51.0004         40.7504
  22267373.4774   -4892989.41849  -3806103.10247                  22267369.2374
        48.0004         35.5004
  22068991.6064    -346297.60549   -273055.93047                  22068988.9964
        45.7504         30.5004
  23140910.9654    1055677.93049    817482.80147                  23140908.2164
        45.0004         28.5004
 04  6 29 15 18 15.0000000  0  8G 6G15G16G18G21G22G26G29
  21184722.5174    2341528.99249   1815157.68448                  21184720.2224
        50.7504         39.5004
  22665275.1444   -4165005.15649  -3218096.80947                  22665273.1674
        44.2504         29.5004
  23181551.1514   -1175813.53549   -917313.50847                  23181548.3194
        42.2504         30.7504
  20565677.0804   -2601984.28149  -2024889.77348                  20565673.3724
        49.5004         41.7504
  20617979.7304   -1313563.19549  -1024967.75048                  20617974.9764
        49.5004         40.7504
  22258722.9574   -4938448.36749  -3841525.64147                  22258718.2954
        49.5004         35.5004
  22069668.0314    -342743.19949   -270286.25847                  22069664.2214
        45.2504         29.7504
  23143929.3544    1071539.01249    829842.06647                  23143926.7294
        45.7504         29.2504
 04  6 29 15 18 30.0000000  0  8G 6G15G16G18G21G22G26G29
  21189832.0824    2368379.82849   1836080.39847                  21189829.3304
        51.2504         39.0004
  22657539.6394   -4205653.50849  -3249770.82447                  22657537.8104
        43.0004         29.7504
  23180460.4134   -1181543.61349   -921778.49647                  23180457.5964
        44.5004         30.0004
  20561736.1064   -2622693.66449  -2041026.95348                  20561731.9854
        50.2504         41.7504
  20615790.8744   -1325064.98849  -1033930.19148                  20615786.4684
        51.0004         41.0004
  22250085.1064   -4983840.83649  -3876896.37947                  22250080.5864
        49.2504         34.5004
  22070373.3244    -339038.04349   -267399.15247                  22070369.9184
        47.5004         30.5004
  23146969.6344    1087513.58249    842289.77047                  23146966.7794
        46.7504         30.5004
 04  6 29 15 18 45.0000000  0  8G 6G15G16G18G21G22G26G29
  21194958.5024    2395318.99649   1857071.93847                  21194955.8864
        51.2504         38.5004
  22649806.2144   -4246296.77049  -3281440.88347                  22649803.4824
        43.5004         30.7504
  23179392.6754   -1187155.68749   -926151.55947                  23179390.0204
        44.0004         29.7504
  20557813.7354   -2643306.27049  -2057088.71948                  20557809.9584
        50.2504         41.2504
  20613609.0634   -1336531.44949  -1042865.10548                  20613604.5224
        50.0004         41.0004
  22241459.4364   -5029168.10549  -3912216.31247                  22241454.9564
        48.5004         34.7504
  22071106.3634    -335183.68749   -264395.77047                  22071104.2994
        46.2504         32.2504
  23150030.1094    1103600.29349    854824.84847                  23150028.1174
        46.2504         29.5004
 04  6 29 15 19  0.0000000  0  8G 6G15G16G18G21G22G26G29
  21200102.0434    2422348.47349   1878133.86347                  21200099.8404
        50.7504         39.0004
  22642073.1634   -4286932.72349  -3313105.25847                  22642070.9714
        44.0004         31.0004
  23178348.0124   -1192647.81249   -930431.15247                  23178343.9614
        43.0004         29.7504
  20553910.1564   -2663820.06649  -2073073.50848                  20553906.1104
        49.7504         41.5004
  20611433.8714   -1347959.69149  -1051770.23448                  20611430.1014
        50.0004         41.0004
  22232846.5704   -5074428.05149  -3947483.79747                  22232841.8554
        49.0004         35.0004
  22071868.9144    -331178.13749   -261274.60247                  22071866.7394
        46.2504         32.7504
  23153113.2004    1119800.85949    867448.65247                  23153110.6884
        46.5004         28.7504
 04  6 29 15 19 15.0000000  0  8G 6G15G16G18G21G22G26G29
  21205262.7294    2449467.86749   1899265.87147                  21205260.2244
        51.0004         39.0004
  22634341.5124   -4327561.56649  -3344764.08247                  22634339.4174
        44.2504         31.2504
  23177325.9754   -1198020.30949   -934617.52347                  23177321.2334
        43.5004         29.5004
  20550025.1764   -2684235.39149  -2088981.54348                  20550021.5414
        49.5004         41.7504
  20609266.9244   -1359349.98849  -1060645.78948                  20609262.6094
        49.2504         41.5004
  22224246.9454   -5119620.81649  -3982698.91847                  22224242.4094
        48.7504         35.7504
  22072659.8024    -327021.59449   -258035.75047                  22072657.8114
        45.0004         34.0004
  23156217.5344    1136114.84849    880160.82047                  23156214.5074
        45.7504         28.2504
 04  6 29 15 19 30.0000000  0  8G 6G15G16G18G21G22G26G29
  21210440.8154    2476677.70349   1920468.35248                  21210438.1724
        50.0004         39.5004
  22626612.1404   -4368182.58649  -3376416.82447                  22626608.8154
        45.5004         31.7504
  23176325.8674   -1203272.55949   -938710.20347                  23176322.2564
        43.7504         29.7504
  20546158.9684   -2704551.41849  -2104812.21548                  20546155.3114
        49.5004         41.7504
  20607106.7914   -1370701.71149  -1069491.28948                  20607101.9834
        50.5004         41.2504
  22215659.6454   -5164745.41449  -4017860.93047                  22215655.2064
        49.7504         34.7504
  22073479.3104    -322713.53949   -254678.81647                  22073477.4534
        47.5004         35.7504
  23159343.6254    1152542.82049    892961.80947                  23159340.8314
        45.0004         26.5004
 04  6 29 15 19 45.0000000  0  8G 6G15G16G18G21G22G26G29
  21215635.2284    2503977.84849   1941741.18447                  21215633.5784
        50.2504         39.0004
  22618883.7484   -4408795.81249  -3408063.48847                  22618880.9074
        45.0004         31.7504
  23175349.5144   -1208404.57849   -942709.16847                  23175345.2564
        43.0004         28.5004
  20542311.8734   -2724768.06249  -2120565.45348                  20542308.4784
        48.7504         41.7504
  20604953.5594   -1382014.86349  -1078306.73448                  20604948.8884
        50.0004         41.2504
  22207085.5834   -5209801.56649  -4052969.61347                  22207081.0704
        48.7504         34.5004
  22074328.4874    -318253.80549   -251203.71147                  22074325.8294
        46.7504         36.0004
  23162491.4394    1169084.68049    905851.56347                  23162489.1154
        44.7504         27.5004
 04  6 29 15 20  0.0000000  0  8G 6G15G16G18G21G22G26G29
  21220847.5114    2531367.96949   1963084.12147                  21220845.8934
        51.0004         38.7504
  22611156.6184   -4449401.28949  -3439704.10247                  22611153.4854
        45.2504         30.7504
  23174395.4634   -1213416.53549   -946614.60947                  23174392.3264
        43.0004         28.7504
  20538483.6264   -2744885.62549  -2136241.47748                  20538479.9204
        49.0004         42.0004
  20602808.1314   -1393289.48049  -1087092.16048                  20602803.7064
        49.2504         40.7504
  22198525.5324   -5254789.42249  -4088025.07447                  22198520.4204
        49.0004         35.5004
  22075205.7154    -313642.79749   -247610.72347                  22075203.7304
        47.0004         35.5004
  23165660.8504    1185740.12949    918829.84047                  23165657.7854
        45.0004         29.0004
 04  6 29 15 20 15.0000000  0  8G 6G15G16G18G21G22G26G29
  21226077.0484    2558846.88749   1984496.25848                  21226075.1244
        51.5004         40.0004
  22603430.5054   -4490000.11749  -3471339.53947                  22603427.5944
        44.0004         31.5004
  23173464.3444   -1218309.75049   -950427.50447                  23173460.7434
        43.5004         29.0004
  20534674.1694   -2764905.15649  -2151841.11348                  20534670.1184
        50.0004         42.0004
  20600669.5324   -1404526.54749  -1095848.32048                  20600665.5184
        50.2504         41.0004
  22189976.9624   -5299709.87149  -4123028.01647                  22189972.0924
        49.5004         36.0004
  22076111.5594    -308881.50849   -243900.62947                  22076109.3014
        47.2504         34.7504
  23168851.9084    1202507.94149    931895.65647                  23168849.1114
        45.7504         27.7504
 04  6 29 15 20 30.0000000  0  8G 6G15G16G18G21G22G26G29
  21231323.0414    2586415.09449   2005977.96948                  21231321.0804
        52.0004         40.2504
  22595707.1364   -4530591.53949  -3502969.20747                  22595703.6624
        45.5004         31.5004
  23172556.3034   -1223083.75449   -954147.50447                  23172552.9094
        43.0004         29.5004
  20530883.6494   -2784826.10249  -2167363.92648                  20530879.3374
        49.5004         42.2504
  20598538.7894   -1415725.65649  -1104574.90248                  20598534.8244
        51.0004         41.5004
  22181442.1604   -5344562.24649  -4157977.91047                  22181437.4514
        49.2504         36.2504
  22077046.2824    -303969.47349   -240073.08647                  22077044.0614
        46.5004         33.2504
  23172064.0104    1219388.46949    945049.30947                  23172061.6174
        45.5004         29.2504
 04  6 29 15 20 45.0000000  0  8G 6G15G16G18G21G22G26G29
  21236586.2224    2614073.15249   2027529.69948                  21236584.0974
        51.0004         39.7504
  22587983.3084   -4571174.88349  -3534592.59047                  22587981.2084
        43.5004         30.5004
  23171670.3584   -1227737.70349   -957773.97747                  23171667.1854
        42.5004         30.0004
  20527111.2824   -2804647.91849  -2182809.50048                  20527107.2524
        49.7504         41.7504
  20596414.8474   -1426885.83649  -1113271.15248                  20596410.6684
        50.0004         41.5004
  22172920.1684   -5389345.61749  -4192874.03147                  22172915.2644
        50.2504         36.0004
  22078010.1054    -298906.11749   -236127.61347                  22078006.7864
        46.5004         32.5004
  23175297.0524    1236382.34849    958291.30947                  23175296.0034
        44.5004         28.0004
 04  6 29 15 21  0.0000000  0  8G 6G15G16G18G21G22G26G29
  21241866.8604    2641821.03549   2049151.41447                  21241863.7594
        51.0004         39.0004
  22580262.1684   -4611749.83649  -3566209.41447                  22580260.0204
        44.0004         31.2504
  23170807.3114   -1232271.44949   -961306.76247                  23170804.1964
        43.2504         29.5004
  20523358.2404   -2824370.18749  -2198177.50448                  20523354.1334
        49.5004         41.7504
  20594298.4354   -1438006.80549  -1121936.84048                  20594294.4334
        50.7504         40.7504
  22164410.8294   -5434059.71949  -4227716.18447                  22164406.2874
        49.2504         36.0004
  22079002.4804    -293691.12949   -232063.96947                  22079000.0024
        46.0004         34.0004
  23178553.2564    1253489.53149    971621.57847                  23178550.7154
        44.7504         27.2504
 04  6 29 15 21 15.0000000  0  8G 6G15G16G18G21G22G26G29
  21247163.8484    2669659.80149   2070843.94947                  21247161.5374
        51.2504         39.2504
  22572543.3794   -4652315.34449  -3597818.89847                  22572540.4664
        44.7504         30.5004
  23169968.7144   -1236684.10949   -964745.21147                  23169964.7244
        46.0004         29.5004
  20519624.5124   -2843991.92649  -2213467.16448                  20519620.6834
        50.0004         41.7504
  20592190.4164   -1449087.32849  -1130571.01248                  20592185.3414
        51.0004         41.2504
  22155915.5764   -5478703.34049  -4262503.41047                  22155911.0674
        49.5004         35.5004
  22080023.9724    -288323.57849   -227881.47347                  22080021.8554
        47.5004         34.0004
  23181830.0994    1270711.02749    985040.93047                  23181827.3264
        44.0004         27.7504
 04  6 29 15 21 30.0000000  0  8G 6G15G16G18G21G22G26G29
  21252478.9744    2697589.68849   2092607.48447                  21252476.5164
        50.0004         39.2504
  22564825.5644   -4692870.98449  -3629420.68047                  22564822.8014
        45.2504         30.7504
  23169151.4654   -1240975.38349   -968089.05947                  23169148.2724
        44.5004         30.5004
  20515909.5664   -2863512.67249  -2228678.14148                  20515906.1014
        50.0004         41.7504
  20590089.5444   -1460126.93749  -1139173.31648                  20590085.0054
        50.0004         41.0004
  22147433.7984   -5523275.76249  -4297235.16447                  22147429.4584
        49.0004         36.2504
  22081074.5154    -282803.00449   -223579.73847                  22081072.1834
        47.2504         34.5004
  23185129.4294    1288047.06649    998549.52047                  23185126.4184
        44.5004         26.7504
 04  6 29 15 21 45.0000000  0  8G 6G15G16G18G21G22G26G29
  21257810.8304    2725610.62149   2114441.96547                  21257808.5154
        51.0004         39.0004
  22557109.3304   -4733416.52049  -3661014.58247                  22557107.0034
        44.0004         31.5004
  23168357.9964   -1245145.23449   -971338.30147                  23168355.1504
        43.7504         30.0004
  20512214.2654   -2882932.34849  -2243810.34848                  20512210.5274
        49.0004         41.2504
  20587996.6164   -1471125.71149  -1147743.78548                  20587991.8384
        50.5004         41.2504
  22138966.1294   -5567776.87949  -4331911.34847                  22138961.6114
        49.2504         35.5004
  22082154.1584    -277129.41849   -219158.76647                  22082152.2624
        48.0004         34.0004
  23188450.4034    1305497.52749   1012147.29347                  23188447.7044
        44.5004         27.0004
 04  6 29 15 22  0.0000000  0  8G 6G15G16G18G21G22G26G29
  21263160.6554    2753723.44949   2136348.05147                  21263158.7124
        50.2504         39.0004
  22549396.5984   -4773950.88349  -3692599.79347                  22549393.3114
        44.7504         31.7504
  23167587.4054   -1249192.74649   -974492.22747                  23167584.5434
        43.2504         29.5004
  20508538.0264   -2902250.08249  -2258863.14148                  20508534.6734
        49.2504         41.7504
  20585911.5534   -1482082.54749  -1156281.57848                  20585906.8694
        51.0004         41.0004
  22130510.8944   -5612205.63749  -4366531.13747                  22130507.0754
        49.0004         37.0004
  22083262.9874    -271301.99249   -214617.91447                  22083260.4904
        47.2504         34.0004
  23191792.6104    1323063.25049   1025834.83647                  23191790.9754
        45.0004         28.0004
 04  6 29 15 22 15.0000000  0  8G 6G15G16G18G21G22G26G29
  21268527.9154    2781927.09849   2158324.91447                  21268525.2184
        51.5004         39.0004
  22541684.8544   -4814474.95749  -3724176.99647                  22541682.8404
        44.7504         31.7504
  23166840.1434   -1253118.94149   -977551.60547                  23166837.0744
        44.0004         29.0004
  20504881.5224   -2921466.69949  -2273837.12948                  20504877.6924
        50.0004         42.2504
  20583834.2354   -1492998.15649  -1164787.25048                  20583830.1044
        50.2504         41.2504
  22122069.8944   -5656562.69149  -4401095.05547                  22122066.0804
        49.5004         36.0004
  22084401.4004    -265321.68049   -209957.91847                  22084398.2324
        46.7504         32.7504
  23195157.0814    1340743.10249   1039611.31347                  23195155.2884
        45.2504         29.0004
 04  6 29 15 22 30.0000000  0  8G 6G15G16G18G21G22G26G29
  21273911.7514    2810221.61349   2180372.55947                  21273909.3364
        49.5004         38.5004
  22533975.7514   -4854988.57049  -3755746.02747                  22533973.6654
        46.7504         33.0004
  23166116.1404   -1256923.69549   -980516.34847                  23166113.5114
        42.5004         29.7504
  20501243.7304   -2940582.14849  -2288732.28148                  20501240.5204
        49.5004         42.0004
  20581764.8394   -1503872.41049  -1173260.69548                  20581760.9134
        50.7504         41.7504
  22113642.5894   -5700847.71949  -4435602.84847                  22113638.8314
        48.7504         36.0004
  22085567.9894    -259188.27749   -205178.64547                  22085565.4374
        47.5004         32.2504
  23198543.8424    1358537.15649   1053476.78147                  23198540.2024
        45.7504         28.2504
 04  6 29 15 22 45.0000000  0  8G 6G15G16G18G21G22G26G29
  21279314.0514    2838607.60549   2202491.50047                  21279311.1334
        51.0004         38.5004
  22526268.5944   -4895490.74249  -3787306.15247                  22526265.9784
        46.0004         31.7504
  23165415.8024   -1260606.30149   -983385.91847                  23165412.1514
        43.5004         29.2504
  20497626.0624   -2959595.53949  -2303547.90648                  20497622.2234
        49.0004         42.2504
  20579703.3844   -1514704.35949  -1181701.18448                  20579699.4494
        50.0004         41.0004
  22105229.5464   -5745059.75049  -4470053.77047                  22105225.5144
        49.0004         36.5004
  22086764.0554    -252901.04749   -200279.51247                  22086762.4754
        47.7504         31.2504
  23201951.7854    1376446.04749   1067431.73047                  23201948.1854
        45.0004         29.5004
 04  6 29 15 23  0.0000000  0  8G 6G15G16G18G21G22G26G29
  21284732.7634    2867084.98849   2224681.64147                  21284729.8544
        50.2504         39.0004
  22518562.7344   -4935981.48449  -3818857.38347                  22518560.8184
        46.0004         32.5004
  23164737.9384   -1264166.86749   -986160.39847                  23164735.2734
        44.0004         29.5004
  20494027.3744   -2978506.97749  -2318284.09448                  20494023.7514
        49.7504         42.0004
  20577650.1384   -1525493.95749  -1190108.67248                  20577646.5824
        50.2504         41.5004
  22096830.0684   -5789198.76249  -4504447.78947                  22096825.9134
        49.2504         36.0004
  22087989.9074    -246460.05549   -195260.59047                  22087988.3564
        46.7504         31.0004
  23205381.4354    1394469.59449   1081476.05147                  23205378.6794
        45.7504         29.2504
 04  6 29 15 23 15.0000000  0  8G 6G15G16G18G21G22G26G29
  21290169.5534    2895654.68449   2246943.73847                  21290166.8154
        50.7504         39.2504
  22510860.4564   -4976459.83649  -3850398.93047                  22510857.4514
        46.5004         32.2504
  23164084.2414   -1267604.49249   -988839.08647                  23164081.6974
        43.0004         29.7504
  20490447.9884   -2997315.47349  -2332940.06648                  20490444.4024
        49.5004         42.2504
  20575605.5184   -1536240.20349  -1198482.36348                  20575601.4764
        50.7504         41.7504
  22088444.8714   -5833263.59449  -4538784.00447                  22088440.8454
        48.7504         36.5004
  22089244.9414    -239864.45349   -190121.17247                  22089243.0024
        46.5004         30.7504
  23208833.0514    1412608.52749   1095610.28147                  23208830.0554
        44.5004         29.5004
 04  6 29 15 23 30.0000000  0  8G 6G15G16G18G21G22G26G29
  21295623.7384    2924316.27749   2269277.44547                  21295620.6944
        50.5004         38.5004
  22503160.2924   -5016925.88349  -3881930.92247                  22503157.1644
        46.5004         32.5004
  23163453.1214   -1270919.43449   -991422.18047                  23163450.2954
        42.2504         29.0004
  20486888.4444   -3016021.22349  -2347515.97748                  20486884.2914
        50.0004         42.5004
  20573569.4084   -1546943.19549  -1206822.36348                  20573564.8374
        51.0004         41.7504
  22080074.2074   -5877254.20349  -4573062.40647                  22080069.5384
        50.0004         36.0004
  22090530.0424    -233114.49249   -184861.44547                  22090527.9504
        47.5004         30.5004
  23212306.7594    1430862.62549   1109834.25047                  23212304.0844
        44.5004         30.0004
 04  6 29 15 23 45.0000000  0  8G 6G15G16G18G21G22G26G29
  21301095.3164    2953069.15249   2291682.27047                  21301092.5064
        50.7504         38.5004
  22495461.8234   -5057380.03949  -3913453.65247                  22495458.9564
        46.2504         31.5004
  23162845.4854   -1274112.30149   -993910.12947                  23162842.7914
        42.5004         28.2504
  20483347.7374   -3034624.62149  -2362012.12948                  20483344.2974
        49.2504         42.2504
  20571540.1544   -1557603.37949  -1215129.00848                  20571536.1204
        50.5004         41.5004
  22071717.4614   -5921171.04349  -4607283.31247                  22071712.0864
        49.5004         36.0004
  22091843.0354    -226210.74249   -179481.90647                  22091840.7934
        46.2504         29.2504
  23215801.3134    1449231.16849   1124147.39547                  23215799.4434
        42.5004         29.0004
 04  6 29 15 24  0.0000000  0  8G 6G15G16G18G21G22G26G29
  21306583.8064    2981913.89549   2314158.69547                  21306581.6744
        50.5004         38.5004
  22487766.2654   -5097821.42249  -3944966.39547                  22487763.0604
        45.5004         32.0004
  23162261.1984   -1277182.37549   -996302.42647                  23162257.6764
        43.2504         28.5004
  20479828.0724   -3053124.93449  -2376427.95748                  20479823.9154
        50.0004         42.0004
  20569520.0274   -1568219.73449  -1223401.50448                  20569515.8954
        50.7504         41.2504
  22063374.2214   -5965013.12949  -4641445.96147                  22063369.2354
        51.0004         36.5004
  22093186.5634    -219152.33249   -173981.84847                  22093183.0484
        46.5004         28.2504
  23219318.7804    1467714.93449   1138550.29347                  23219317.2014
        42.2504         27.5004
 04  6 29 15 24 15.0000000  0  8G 6G15G16G18G21G22G26G29
  21312090.6124    3010851.09049   2336707.14547                  21312088.1764
        50.7504         38.7504
  22480073.0894   -5138249.47749  -3976468.74647                  22480070.1444
        46.0004         32.0004
  23161700.5734   -1280129.10249   -998598.60547                  23161697.1164
        43.5004         27.5004
  20476326.9914   -3071521.63349  -2390763.03948                  20476323.1154
        50.0004         42.2504
  20567508.3234   -1578791.69549  -1231639.39548                  20567504.3654
        50.7504         41.5004
  22055045.7324   -6008779.66049  -4675549.73447                  22055040.4844
        50.7504         36.5004
  22094559.4044    -211938.88349   -168361.00047                  22094555.8484
        46.7504         29.5004
  23222857.7404    1486314.16449   1153043.20747                  23222856.3394
        41.2504         26.7504
 04  6 29 15 24 30.0000000  0  8G 6G15G16G18G21G22G26G29
  21317614.3804    3039879.59449   2359326.75447                  21317612.6344
        50.5004         39.0004
  22472382.1324   -5178665.05549  -4007961.41447                  22472379.5014
        46.0004         32.0004
  23161162.7814   -1282953.63749  -1000799.55547                  23161159.8234
        43.7504         28.2504
  20472845.5854   -3089815.76649  -2405018.21148                  20472841.6464
        50.2504         42.2504
  20565504.5944   -1589320.11349  -1239843.35548                  20565500.5534
        51.0004         41.2504
  22046730.6534   -6052471.38349  -4709595.22347                  22046726.4124
        49.7504         36.0004
  22095961.4944    -204571.35949   -162620.09847                  22095958.9114
        46.2504         29.7504
  23226419.7894    1505027.71549   1167625.17247                  23226416.9564
        42.7504         26.7504
 04  6 29 15 24 45.0000000  0  8G 6G15G16G18G21G22G26G29
  21323155.9764    3068999.26249   2382017.38347                  21323153.5994
        50.5004         38.5004
  22464693.6104   -5219067.93049  -4039444.16047                  22464691.0134
        44.5004         31.2504
  23160648.7204   -1285655.74649  -1002905.12947                  23160645.7474
        43.7504         28.7504
  20469383.8784   -3108007.12549  -2419193.29348                  20469380.1744
        49.7504         42.0004
  20563509.9964   -1599804.63349  -1248013.11748                  20563505.3764
        50.7504         41.2504
  22038431.0774   -6096088.08649  -4743582.27347                  22038426.8084
        49.2504         36.7504
  22097392.8034    -197049.75049   -156759.10547                  22097391.1514
        47.0004         31.2504
  23230002.7454    1523855.64149   1182296.28547                  23229999.6624
        42.7504         28.2504
 04  6 29 15 25  0.0000000  0  8G 6G15G16G18G21G22G26G29
  21328714.4704    3098209.64149   2404778.72747                  21328712.1874
        49.5004         38.7504
  22457007.4604   -5259458.43749  -4070917.28547                  22457004.5014
        45.0004         32.0004
  23160157.9574   -1288236.07449  -1004915.80147                  23160154.7214
        43.0004         28.2504
  20465941.8534   -3126096.09849  -2433288.59848                  20465937.9914
        50.2504         42.0004
  20561522.5314   -1610245.82049  -1256149.10548                  20561518.3044
        50.5004         40.5004
  22030145.2694   -6139630.20749  -4777511.18447                  22030141.0994
        50.2504         36.0004
  22098853.5374    -189374.44549   -150778.34847                  22098851.6954
        46.7504         31.5004
  23233607.2554    1542797.41449   1197056.08247                  23233604.5624
        41.7504         27.2504
 04  6 29 15 25 15.0000000  0  8G 6G15G16G18G21G22G26G29
  21334292.6464    3127524.34449   2427621.34447                  21334290.4454
        50.0004         39.0004
  22449326.2634   -5299822.83249  -4102370.05147                  22449323.8134
        44.5004         32.5004
  23159692.8994   -1290681.01249  -1006820.91847                  23159689.9634
        43.0004         28.5004
  20462521.4694   -3144068.97749  -2447293.43448                  20462517.6304
        50.0004         41.7504
  20559546.8894   -1620629.79749  -1264240.53148                  20559542.4964
        50.0004         41.0004
  22021876.7354   -6183083.64849  -4811371.00047                  22021871.7094
        50.0004         36.7504
  22100346.1914    -181531.73849   -144667.15647                  22100343.9904
        47.2504         31.5004
  23237236.0124    1561866.62549   1211915.19147                  23237233.5884
        42.5004         27.7504
 04  6 29 15 25 30.0000000  0  8G 6G15G16G18G21G22G26G29
  21339888.3064    3156928.12949   2450533.36747                  21339885.6434
        50.2504         38.5004
  22441647.7024   -5340175.96549  -4133814.05547                  22441645.3614
        46.2504         33.0004
  23159250.2714   -1293005.62149  -1008632.29347                  23159247.3314
        43.5004         29.0004
  20459120.4204   -3161940.90649  -2461219.61748                  20459116.8654
        49.2504         41.7504
  20557579.0214   -1630971.55549  -1272299.04348                  20557574.7334
        51.0004         41.2504
  22013621.8334   -6226463.35249  -4845173.36747                  22013616.7774
        50.0004         36.2504
  22101867.0774    -173536.87549   -138437.37947                  22101865.4704
        46.5004         31.7504
  23240885.5654    1581047.91049   1226861.63747                  23240883.7864
        40.5004         27.5004
 04  6 29 15 25 45.0000000  0  8G 6G15G16G18G21G22G26G29
  21345497.2804    3186403.58249   2473501.23447                  21345494.5214
        50.5004         38.2504
  22433967.1984   -5380535.16849  -4165262.75447                  22433964.9774
        44.7504         32.5004
  23158827.7524   -1295227.21949  -1010363.43747                  23158824.9094
        43.2504         29.0004
  20455735.7634   -3179729.21149  -2475080.63348                  20455732.0684
        49.2504         41.5004
  20555615.7474   -1641288.23449  -1280338.01648                  20555611.0744
        50.7504         41.0004
  22005377.5244   -6269786.53549  -4878931.68047                  22005373.3024
        49.5004         36.5004
  22103413.8264    -165407.27049   -132102.64847                  22103412.3684
        45.7504         30.0004
  23244553.0364    1600323.80549   1241881.84047                  23244551.7434
        41.5004         27.5004
 04  6 29 15 26  0.0000000  0  8G 6G15G16G18G21G22G26G29
  21351125.7254    3215981.55149   2496548.98047                  21351123.1444
        50.0004         38.2504
  22426291.9654   -5420869.43049  -4196692.02347                  22426289.1484
        43.5004         32.5004
  23158430.3304   -1297315.04749  -1011990.33647                  23158428.2724
        43.5004         30.2504
  20452372.1954   -3197402.92649  -2488852.36348                  20452368.2744
        50.0004         41.7504
  20553662.6564   -1651548.78549  -1288333.24648                  20553658.5414
        49.7504         41.2504
  21997150.3894   -6313022.09049  -4912621.70747                  21997146.0024
        49.5004         36.5004
  22104992.5624    -157112.00849   -125638.82447                  22104990.1934
        46.0004         30.2504
  23248246.0274    1619725.17249   1256999.77747                  23248243.6484
        41.5004         28.0004
 04  6 29 15 26 15.0000000  0  8G 6G15G16G18G21G22G26G29
  21356771.9654    3245652.95749   2519669.53947                  21356769.6974
        49.7504         38.2504
  22418620.0424   -5461187.55549  -4228108.73447                  22418616.7754
        45.7504         32.0004
  23158056.1444   -1299278.08649  -1013520.00047                  23158054.7424
        42.5004         29.0004
  20449029.7824   -3214970.83649  -2502541.65648                  20449025.8594
        50.2504         42.5004
  20551719.2664   -1661762.10949  -1296291.69548                  20551715.4434
        50.0004         41.0004
  21988937.1524   -6356178.77749  -4946250.28547                  21988933.5024
        49.2504         36.5004
  22106601.4384    -148660.08249   -119052.94547                  22106598.6174
        46.2504         30.0004
  23251960.3884    1639242.87549   1272208.35547                  23251957.4794
        43.5004         28.0004
 04  6 29 15 26 30.0000000  0  8G 6G15G16G18G21G22G26G29
  21362435.0284    3275414.66049   2542860.46547                  21362432.8194
        49.7504         37.7504
  22410949.6204   -5501492.45349  -4259515.13347                  22410947.3964
        44.0004         32.0004
  23157706.2024   -1301119.40649  -1014954.79747                  23157704.3504
        44.5004         29.5004
  20445705.9824   -3232436.00449  -2516150.85948                  20445702.1244
        50.7504         42.5004
  20549784.4374   -1671931.05949  -1304215.56648                  20549780.8924
        49.5004         41.7504
  21980739.4934   -6399259.37549  -4979819.57047                  21980735.7474
        49.5004         37.0004
  22108238.5744    -140054.45749   -112347.28147                  22108235.6244
        46.7504         30.0004
  23255695.7784    1658873.81349   1287505.18047                  23255693.8314
        44.0004         28.0004
 04  6 29 15 26 45.0000000  0  8G 6G15G16G18G21G22G26G29
  21368116.3974    3305267.93449   2566122.74247                  21368114.2554
        50.0004         38.2504
  22403282.6584   -5541782.58649  -4290910.03147                  22403280.2304
        45.2504         32.0004
  23157379.4804   -1302837.63349  -1016293.70347                  23157377.4984
        44.5004         29.5004
  20442402.3784   -3249796.98049  -2529678.88348                  20442398.1904
        50.5004         42.5004
  20547858.2714   -1682054.19549  -1312103.71948                  20547854.1974
        50.0004         42.0004
  21972556.1564   -6442262.34849  -5013328.36347                  21972552.4494
        49.5004         37.2504
  22109905.5864    -131293.85949   -105520.84047                  22109903.1244
        46.7504         31.2504
  23259452.7574    1678619.21949   1302891.19547                  23259451.1484
        41.5004         27.0004
 04  6 29 15 27  0.0000000  0  8G 6G15G16G18G21G22G26G29
  21373814.9404    3335213.54349   2589456.97347                  21373812.7074
        50.0004         38.5004
  22395619.2004   -5582057.14149  -4322292.79347                  22395616.1744
        46.2504         32.0004
  23157076.2444   -1304432.15249  -1017536.21547                  23157073.6194
        42.0004         29.0004
  20439118.4394   -3267053.02749  -2543125.16448                  20439114.5504
        49.0004         42.0004
  20545940.6504   -1692130.69149  -1319955.54348                  20545936.9514
        50.7504         41.5004
  21964388.3344   -6485186.71149  -5046775.91847                  21964384.1094
        50.5004         37.5004
  22111602.6504    -122377.48449    -98573.02347                  22111600.1644
        47.0004         31.5004
  23263232.0324    1698479.76249   1318366.92247                  23263229.6484
        40.0004         27.7504
 04  6 29 15 27 15.0000000  0  8G 6G15G16G18G21G22G26G29
  21379530.6324    3365249.62949   2612861.69947                  21379529.3174
        50.7504         39.2504
  22387957.5984   -5622317.71549  -4353664.66047                  22387955.4764
        45.0004         32.0004
  23156795.4864   -1305904.80949  -1018683.73047                  23156793.2584
        43.7504         28.5004
  20435854.6244   -3284205.94949  -2556491.07448                  20435851.0354
        49.5004         42.0004
  20544031.6024   -1702161.95749  -1327772.10248                  20544027.6084
        51.0004         41.5004
  21956234.4504   -6528034.02749  -5080163.41447                  21956230.5384
        50.7504         37.5004
  22113327.9454    -113307.21549    -91505.30547                  22113326.2714
        46.5004         32.0004
  23267033.0574    1718453.50849   1333930.86347                  23267030.3484
        39.7504         26.2504
 04  6 29 15 27 30.0000000  0  8G 6G15G16G18G21G22G26G29
  21385263.5674    3395376.22349   2636336.94947                  21385261.4764
        50.2504         39.0004
  22380298.9684   -5662563.93449  -4385025.35947                  22380296.8094
        45.0004         32.2504
  23156538.3484   -1307255.28149  -1019736.07047                  23156535.7584
        42.5004         29.2504
  20432610.3884   -3301255.49649  -2569776.44148                  20432606.7404
        50.2504         41.7504
  20542131.2764   -1712147.55549  -1335553.09848                  20542127.5884
        49.7504         41.2504
  21948095.4964   -6570803.98449  -5113490.64147                  21948091.0514
        50.2504         37.0004
  22115084.2814    -104082.82449    -84317.49247                  22115081.0014
        45.7504         31.0004
  23270855.4114    1738540.59849   1349583.14546                  23270853.2464
        37.5004         25.5004
 04  6 29 15 27 45.0000000  0  8G 6G15G16G18G21G22G26G29
  21391013.5044    3425592.50049   2659882.10547                  21391011.4004
        50.2504         39.0004
  22372642.8604   -5702796.43049  -4416375.33247                  22372641.1244
        45.5004         32.2504
  23156305.1484   -1308484.43449  -1020693.86347                  23156301.0034
        43.7504         27.5004
  20429385.1244   -3318202.25049  -2582981.70348                  20429381.6294
        49.7504         42.0004
  20540239.6134   -1722088.12149  -1343299.00448                  20540236.0814
        50.0004         41.0004
  21939971.7054   -6613497.03149  -5146757.94147                  21939967.3394
        50.0004         37.5004
  22116868.2684     -94705.07049    -77010.16047                  22116865.9154
        47.0004         30.5004
  23274699.0944    1758740.23849   1365323.12946                  23274698.1064
        39.2504         25.5004
 04  6 29 15 28  0.0000000  0  8G 6G15G16G18G21G22G26G29
  21396780.3604    3455898.87549   2683497.44947                  21396778.5684
        50.5004         38.5004
  22364989.2894   -5743014.53549  -4447714.09847                  22364987.4634
        44.0004         32.5004
  23156094.2274   -1309591.87149  -1021556.84047                  23156090.5214
        44.0004         27.7504
  20426179.9014   -3335045.77749  -2596106.52748                  20426176.2304
        50.0004         41.7504
  20538356.9514   -1731983.13749  -1351009.40648                  20538353.1744
        50.5004         40.5004
  21931862.1714   -6656112.54749  -5179964.82847                  21931857.9314
        50.0004         37.5004
  22118682.0234     -85173.59049    -69583.03147                  22118679.9254
        45.7504         31.0004
  23278564.8914    1779052.66449   1381150.96547                  23278563.3004
        40.7504         26.2504
 04  6 29 15 28 15.0000000  0  8G 6G15G16G18G21G22G26G29
  21402564.4464    3486293.32849   2707181.43447                  21402561.9484
        50.7504         38.5004
  22357338.3444   -5783220.09449  -4479043.09847                  22357335.9864
        45.2504         31.0004
  23155906.3594   -1310579.48849  -1022326.41847                  23155901.9764
        42.5004         27.5004
  20422994.3674   -3351787.98449  -2609152.40248                  20422989.9994
        49.7504         41.7504
  20536482.2014   -1741834.48449  -1358685.77748                  20536478.3804
        50.7504         40.7504
  21923766.6704   -6698652.26249  -5213112.65647                  21923762.7644
        50.5004         36.7504
  22120524.5844     -75490.27349    -62037.59847                  22120522.4834
        46.0004         30.5004
  23282451.4064    1799475.82449   1397065.12547                  23282449.3734
        41.5004         27.5004
 04  6 29 15 28 30.0000000  0  9G 6G15G16G18G21G22G26G29G 3
  21408365.0734    3516775.82449   2730934.00847                  21408362.5634
        50.5004         38.5004
  22349690.1924   -5823412.87949  -4510362.14147                  22349687.2744
        43.5004         31.2504
  23155741.5364   -1311447.18449  -1023002.56247                  23155738.1814
        43.0004         29.2504
  20419827.4174   -3368428.67649  -2622119.17248                  20419823.3444
        49.0004         41.7504
  20534615.5744   -1751641.84449  -1366327.88348                  20534612.3544
        50.2504         41.2504
  21915686.4454   -6741115.83649  -5246201.15247                  21915681.8494
        50.2504         36.7504
  22122396.8384     -65655.10249    -54373.84447                  22122393.8114
        46.7504         30.5004
  23286359.0614    1820009.85249   1413065.64147                  23286357.1574
        42.2504         27.0004
  24481086.6614     -37831.09858
        31.0004
 04  6 29 15 28 45.0000000  0  9G 6G15G16G18G21G22G26G29G 3
  21414182.7824    3547346.93449   2754755.63347                  21414180.5444
        50.5004         38.0004
  22342044.2524   -5863592.14149  -4541670.64547                  22342042.0044
        43.2504         31.5004
  23155599.0044   -1312194.46149  -1023584.87547                  23155596.4514
        45.0004         30.2504
  20416680.3794   -3384967.15249  -2635006.29348                  20416676.2864
        48.7504         41.5004
  20532758.3194   -1761404.44549  -1373935.10948                  20532754.0444
        50.2504         42.0004
  21907620.5254   -6783502.45349  -5279229.67647                  21907615.9404
        49.7504         36.7504
  22124297.5084     -55667.43749    -46591.27347                  22124294.2784
        46.7504         30.5004
  23290287.8454    1840655.13349   1429152.84047                  23290285.4774
        42.7504         29.0004
  24470322.8004     -94379.44558
        31.5004
 04  6 29 15 29  0.0000000  0  9G 6G15G16G18G21G22G26G29G 3
  21420016.9474    3578007.12549   2778646.69147                  21420014.2844
        50.0004         38.5004
  22334401.7184   -5903757.05149  -4572967.98447                  22334398.9134
        44.0004         33.0004
  23155479.5724   -1312820.82849  -1024072.94947                  23155477.2434
        44.5004         29.7504
  20413552.7834   -3401402.92249  -2647813.39148                  20413549.1864
        49.5004         41.5004
  20530909.2404   -1771121.46949  -1381506.81248                  20530905.2334
        49.5004         41.0004
  21899569.4084   -6825811.32449  -5312197.61347                  21899564.3884
        50.2504         37.0004
  22126227.1884     -45526.70749    -38689.42647                  22126223.8614
        46.7504         29.7504
  23294237.6774    1861412.17649   1445327.16047                  23294235.4074
        43.5004         28.5004
  24459567.5164
        28.2504
 04  6 29 15 29 15.0000000  0  9G 6G15G16G18G21G22G26G29G 3
  21425868.5554    3608755.52749   2802606.46547                  21425866.3974
        51.5004         38.7504
  22326760.9044   -5943908.42249  -4604254.73847                  22326758.4634
        46.0004         32.5004
  23155382.7784   -1313327.14549  -1024467.49247                  23155380.8434
        43.5004         28.7504
  20410444.5274   -3417736.79749  -2660541.09448                  20410440.6974
        49.0004         41.7504
  20529068.9774   -1780793.73849  -1389043.65648                  20529064.8744
        50.5004         41.5004
  21891533.0054   -6868043.08249  -5345105.46547                  21891528.0824
        50.2504         37.0004
  22128185.2364     -35234.01249    -30669.16847                  22128182.0444
        45.2504         29.5004
  23298208.8544    1882279.86749   1461587.66447                  23298206.3994
        43.2504         26.7504
  24448816.2874    -207406.43758
        28.2504
 04  6 29 15 29 30.0000000  0  8G 6G15G16G18G21G22G26G29
  21431737.0494    3639593.60249   2826636.11347                  21431734.7944
        50.2504         38.5004
  22319122.8904   -5984044.60249  -4635529.68047                  22319120.4964
        46.0004         32.2504
  23155310.0214   -1313711.95349  -1024767.35547                  23155307.6084
        43.7504         28.2504
  20407355.7154   -3433967.08249  -2673188.07048                  20407351.8914
        49.7504         42.0004
  20527236.8544   -1790419.48849  -1396544.23448                  20527233.3264
        50.2504         41.7504
  21883511.2514   -6910195.98849  -5377951.87147                  21883506.7464
        49.7504         36.5004
  22130173.0214     -24787.56249    -22529.08247                  22130171.2524
        46.0004         30.5004
  23302200.9804    1903259.77349   1477935.64147                  23302198.8464
        41.7504         28.5004
 04  6 29 15 29 45.0000000  0  8G 6G15G16G18G21G22G26G29
  21437621.9504    3670520.05149   2850734.62147                  21437620.0994
        50.5004         38.5004
  22311488.4404   -6024166.43049  -4666793.43747                  22311485.5474
        45.7504         32.0004
  23155260.0344   -1313976.24249  -1024973.31647                  23155256.3214
        43.2504         29.0004
  20404286.7134   -3450094.77749  -2685755.10248                  20404282.9354
        49.2504         41.7504
  20525413.6474   -1799999.68749  -1404009.32848                  20525409.9364
        50.5004         41.7504
  21875504.4224   -6952270.91049  -5410737.51247                  21875499.8574
        50.0004         37.0004
  22132189.7734     -14188.61349    -14270.18047                  22132188.3594
        46.2504         31.0004
  23306214.3384    1924350.71149   1494370.12947                  23306212.9664
        42.5004         27.0004
 04  6 29 15 30  0.0000000  0  8G 6G15G16G18G21G22G26G29
  21443523.7254    3701534.86749   2874902.00047                  21443521.4764
        50.0004         38.2504
  22303856.4714   -6064273.91049  -4698046.01247                  22303853.3114
        44.5004         31.5004
  23155232.3444   -1314120.32049  -1025085.61747                  23155228.2964
        43.0004         27.5004
  20401237.4724   -3466119.96949  -2698242.26248                  20401233.7854
        49.5004         42.5004
  20523599.2804   -1809534.28149  -1411438.88348                  20523595.7494
        50.5004         42.0004
  21867513.4634   -6994267.79349  -5443462.33247                  21867508.8484
        50.2504         37.2504
  22134236.0074      -3437.22749     -5892.51247                  22134234.0884
        46.2504         31.0004
  23310248.4544    1945552.40649   1510890.95747                  23310247.1084
        42.5004         26.5004
 04  6 29 15 30 15.0000000  0  9G 6G15G16G18G21G22G26G29G 3
  21449442.4794    3732639.04749   2899138.99647                  21449440.3074
        50.5004         38.5004
  22296226.8324   -6104365.64849  -4729286.33247                  22296224.4484
        45.5004         31.7504
  23155227.7684   -1314142.88749  -1025103.21147                  23155224.7004
        43.5004         26.7504
  20398207.8194   -3482041.52349  -2710648.66448                  20398203.6534
        50.0004         41.7504
  20521794.0654   -1819021.74249  -1418831.71148                  20521790.0954
        50.2504         42.0004
  21859536.1794   -7036185.09849  -5476125.15647                  21859531.9944
        50.0004         37.0004
  22136311.0004       7467.68049      2604.80147                  22136309.2834
        46.0004         31.7504
  23314303.8464    1966866.03149   1527498.95746                  23314302.3014
        41.0004         25.0004
  24405856.7564
        32.5004
 04  6 29 15 30 30.0000000  0  9G 6G15G16G18G21G22G26G29G 3
  21455378.6814    3763832.87149   2923445.86347                  21455375.8974
        50.0004         38.0004
  22288600.4684   -6144441.20749  -4760514.02347                  22288598.0484
        45.2504         32.5004
  23155246.8114   -1314043.71549  -1025025.94947                  23155243.9734
        42.5004         26.0004
  20395197.3114   -3497859.05149  -2722974.00448                  20395193.5114
        50.2504         41.7504
  20519997.6114   -1828461.63749  -1426187.48048                  20519993.4814
        50.7504         42.0004
  21851574.7284   -7078022.38349  -5508725.63347                  21851570.3864
        50.5004         37.5004
  22138415.4254      18526.51649     11222.06647                  22138413.9344
        46.0004         32.2504
  23318381.6834    1988291.63349   1544194.18446                  23318379.2044
        41.2504         25.5004
  24395127.7314    -118063.93748
        34.7504
 04  6 29 15 30 45.0000000  0  9G 6G15G16G18G21G22G26G29G 3
  21461331.4584    3795115.17249   2947821.66047                  21461328.8154
        49.0004         37.7504
  22280977.6214   -6184501.43749  -4791729.77047                  22280974.5414
        45.5004         32.0004
  23155289.0134   -1313823.90649  -1024854.66047                  23155286.3074
        42.5004         28.0004
  20392207.3454   -3513573.38349  -2735218.93448                  20392203.5934
        49.5004         42.0004
  20518210.2624   -1837855.00449  -1433506.98448                  20518206.0264
        50.2504         41.2504
  21843628.5414   -7119780.53149  -5541264.41847                  21843624.5254
        50.0004         38.5004
  22140548.9764      29738.13349     19958.37147                  22140547.0374
        46.0004         31.7504
  23322480.2704    2009828.18849   1560975.88746                  23322478.4684
        41.5004         25.0004
  24384404.3284    -174413.64848
        34.0004
 04  6 29 15 31  0.0000000  0  9G 6G15G16G18G21G22G26G29G 3
  21467301.1254    3826486.76249   2972267.04747                  21467298.7564
        49.0004         38.0004
  22273357.4064   -6224545.41849  -4822932.84847                  22273354.7774
        46.5004         32.0004
  23155354.1104   -1313482.65649  -1024588.77047                  23155351.2654
        42.0004         28.5004
  20389236.5664   -3529183.78949  -2747382.89548                  20389233.3234
        49.5004         42.0004
  20516431.6114   -1847200.85249  -1440789.46948                  20516427.5544
        50.2504         41.0004
  21835697.7834   -7161458.44549  -5573740.70747                  21835693.4074
        50.2504         38.0004
  22142711.6714      41103.38349     28814.39847                  22142709.4294
        46.7504         32.0004
  23326599.4464    2031476.53949   1577844.72747                  23326598.4584
        43.0004         26.0004
  24373686.9434    -230736.00448
        33.5004
 04  6 29 15 31 15.0000000  0  9G 6G15G16G18G21G22G26G29G 3
  21473287.8204    3857947.38349   2996781.79347                  21473285.3904
        49.5004         37.5004
  22265740.1984   -6264573.18449  -4854123.30547                  22265737.6084
        45.7504         32.7504
  23155442.1124   -1313020.19949  -1024228.42247                  23155439.0194
        43.0004         28.5004
  20386285.8584   -3544690.47349  -2759466.02348                  20386282.1714
        49.7504         41.7504
  20514662.3794   -1856499.17649  -1448034.91848                  20514658.1424
        50.7504         40.7504
  21827781.9714   -7203056.12149  -5606154.46947                  21827777.5394
        50.0004         38.2504
  22144903.9994      52621.92249     37789.87147                  22144902.2454
        47.0004         32.2504
  23330740.2494    2053236.15249   1594800.25847                  23330739.0914
        41.7504         26.0004
  24362974.1694    -287030.85548
        33.7504
 04  6 29 15 31 30.0000000  0  9G 6G15G16G18G21G22G26G29G 3
  21479291.5254    3889496.69949   3021365.65247                  21479288.9804
        49.7504         37.2504
  22258126.0194   -6304584.62949  -4885301.05147                  22258123.8154
        45.5004         32.7504
  23155553.4714   -1312436.67649  -1023773.73847                  23155550.3454
        43.5004         28.0004
  20383354.9244   -3560093.35249  -2771468.27348                  20383351.3234
        50.0004         42.2504
  20512902.3174   -1865749.86749  -1455243.25048                  20512897.8614
        50.2504         41.0004
  21819881.1074   -7244573.54349  -5638505.69547                  21819877.1704
        49.7504         38.0004
  22147124.9694      64293.62149     46884.68447                  22147123.1074
        47.7504         32.5004
  23334902.0644    2075106.81349   1611842.32846                  23334900.8014
        42.2504         23.5004
  24352265.4294    -343297.85548
        31.7504
 04  6 29 15 31 45.0000000  0  9G 6G15G16G18G21G22G26G29G 3
  21485312.2834    3921134.34849   3046018.35547                  21485309.2954
        49.7504         37.0004
  22250515.2504   -6344580.16049  -4916466.38747                  22250513.0004
        45.5004         32.2504
  23155686.9724   -1311732.63749  -1023225.14847                  23155683.4794
        41.0004         28.7504
  20380443.4764   -3575392.98449  -2783390.06648                  20380440.1904
        48.7504         42.2504
  20511150.5224   -1874953.21549  -1462414.68748                  20511146.3614
        51.0004         41.2504
  21811996.2274   -7286010.79349  -5670794.46147                  21811991.4124
        49.7504         37.7504
  22149375.0684      76117.96549     56098.47347                  22149372.8564
        48.2504         33.0004
  23339085.3194    2097088.01249   1628970.51646                  23339082.5284
        44.5004         25.5004
  24341563.2004
        29.5004
 04  6 29 15 32  0.0000000  0  9G 6G15G16G18G21G22G26G29G 3
  21491349.5514    3952859.40649   3070739.14847                  21491346.6884
        50.0004         36.7504
  22242906.7594   -6384560.16849  -4947619.64547                  22242905.0784
        45.0004         32.5004
  23155843.9304   -1310908.76249  -1022583.19547                  23155840.0444
        43.5004         27.7504
  20377551.5554   -3590589.80549  -2795231.73848                  20377547.5744
        49.7504         41.7504
  20509407.8514   -1884109.70349  -1469549.62148                  20509404.0754
        50.2504         41.2504
  21804126.4494   -7327368.42249  -5703021.17247                  21804121.0624
        49.2504         37.5004
  22151653.7094      88094.25849     65430.64147                  22151651.7874
        46.7504         32.5004
  23343288.8264    2119178.89849   1646184.16047                  23343287.0464
        44.0004         27.0004
  24330868.7614
        28.5004
 04  6 29 15 32 15.0000000  0  9G 6G15G16G18G21G22G26G29G 3
  21497403.3264    3984672.64149   3095528.64847                  21497400.6364
        49.7504         37.5004
  22235302.6344   -6424523.85949  -4978760.16847                  22235300.7024
        44.5004         33.2504
  23156023.4474   -1309964.46549  -1021847.38347                  23156019.8664
        43.7504         28.2504
  20374679.2204   -3605683.15649  -2806992.78948                  20374675.4194
        49.2504         42.0004
  20507674.7354   -1893218.37549  -1476647.28948                  20507670.6924
        49.2504         41.2504
  21796271.5804   -7368645.50449  -5735185.12147                  21796266.6624
        50.2504         37.5004
  22153961.8794     100223.29349     74881.81347                  22153960.1964
        46.2504         32.0004
  23347514.5434    2141380.15649   1663483.80947                  23347512.5194
        45.5004         27.5004
  24320177.3634    -511932.35258
        31.5004
 04  6 29 15 32 30.0000000  0  9G 6G15G16G18G21G22G26G29G 3
  21503473.8884    4016573.96549   3120386.80547                  21503471.8904
        49.5004         37.7504
  22227700.8754   -6464471.05949  -5009887.85247                  22227698.2974
        46.2504         34.0004
  23156226.0744   -1308899.64849  -1021017.66447                  23156222.5344
        44.5004         28.5004
  20371826.9004   -3620672.94149  -2818673.13748                  20371822.4634
        50.2504         42.0004
  20505950.5564   -1902279.09049  -1483707.59448                  20505946.9494
        50.2504         41.5004
  21788431.7684   -7409841.85549  -5767286.15247                  21788427.2124
        50.0004         37.0004
  22156300.0114     112504.91849     84451.88747                  22156297.1754
        47.5004         32.2504
  23351760.0694    2163691.75849   1680869.44547                  23351758.0434
        44.7504         28.5004
  24309490.8304    -568086.55558
        33.0004
 04  6 29 15 32 45.0000000  0  9G 6G15G16G18G21G22G26G29G 3
  21509561.3904    4048564.42249   3145314.42247                  21509559.0514
        50.0004         37.7504
  22220102.8334   -6504400.43749  -5041001.64847                  22220100.0274
        47.0004         33.5004
  23156451.9114   -1307713.29349  -1020093.24647                  23156448.6464
        43.5004         28.7504
  20368994.4084   -3635558.13349  -2830271.98848                  20368990.4444
        49.5004         41.7504
  20504236.0434   -1911290.42249  -1490729.41448                  20504231.7354
        51.0004         41.0004
  21780607.4404   -7450956.10549  -5799323.22747                  21780603.3254
        49.5004         36.7504
  22158665.8424     124940.28549     94141.79347                  22158663.5654
        48.0004         33.2504
  23356026.5834    2186114.60249   1698341.76647                  23356024.5704
        44.5004         27.2504
  24298811.4594
        31.5004
 04  6 29 15 33  0.0000000  0  9G 6G15G16G18G21G22G26G29G 3
  21515665.9024    4080644.17249   3170311.61347                  21515663.6314
        50.2504         37.5004
  22212507.8994   -6544311.62149  -5072101.27347                  22212505.2194
        46.0004         32.0004
  23156700.8614   -1306405.18449  -1019073.96147                  23156697.9834
        45.0004         28.7504
  20366181.6244   -3650338.39849  -2841789.07448                  20366177.9904
        49.5004         41.2504
  20502530.3684   -1920252.09449  -1497712.53548                  20502525.9544
        49.7504         41.0004
  21772799.5554   -7491987.68449  -5831295.86747                  21772795.4744
        49.5004         37.0004
  22161061.9354     137529.59449    103951.64147                  22161059.3104
        48.5004         33.0004
  23360315.2154    2208648.80549   1715900.89147                  23360312.6584
        44.7504         27.2504
  24288136.5924    -680302.47358
        31.5004
 04  6 29 15 33 15.0000000  0  9G 6G15G16G18G21G22G26G29G 3
  21521787.8024    4112813.09049   3195378.29747                  21521785.5084
        50.0004         37.7504
  22204916.5624   -6584204.49249  -5103186.60547                  22204914.2374
        46.7504         32.5004
  23156973.0144   -1304975.53549  -1017959.96147                  23156970.2624
        44.5004         29.2504
  20363389.1924   -3665013.92249  -2853224.54748                  20363385.2444
        49.5004         42.0004
  20500834.5294   -1929163.94949  -1504656.84848                  20500830.6204
        49.7504         40.5004
  21765007.7394   -7532936.61349  -5863204.11747                  21765003.1834
        50.0004         37.7504
  22163486.2544     150272.69549    113881.32447                  22163484.5214
        48.7504         33.7504
  23364623.8674    2231294.32449   1733546.73047                  23364622.3814
        44.5004         26.2504
  24277468.1654    -736363.46958
        32.5004
 04  6 29 15 33 30.0000000  0  9G 6G15G16G18G21G22G26G29G 3
  21527925.7314    4145069.59049   3220513.23447                  21527923.4584
        50.0004         37.5004
  22197328.2204   -6624080.25449  -5134258.61747                  22197325.2374
        45.5004         32.0004
  23157268.2334   -1303425.73849  -1016752.34447                  23157264.7974
        45.2504         28.2504
  20360615.9834   -3679585.85549  -2864579.30148                  20360612.3264
        49.5004         42.0004
  20499148.2594   -1938027.45349  -1511563.48048                  20499144.1944
        49.7504         41.5004
  21757230.6954   -7573804.01249  -5895048.82847                  21757226.1934
        50.0004         37.5004
  22165939.9654     163168.10549    123929.69147                  22165938.3254
        48.0004         33.5004
  23368954.2214    2254049.46949   1751277.98847                  23368952.8694
        43.5004         26.0004
  24266806.9734    -792393.80158
        32.7504
 04  6 29 15 33 45.0000000  0  9G 6G15G16G18G21G22G26G29G 3
  21534080.7684    4177414.26249   3245716.84847                  21534078.5514
        50.0004         37.5004
  22189743.6934   -6663938.03149  -5165316.61347                  22189740.4164
        45.5004         32.2504
  23157586.1294   -1301755.16449  -1015450.62547                  23157582.2174
        45.2504         29.5004
  20357862.9344   -3694053.45749  -2875852.76248                  20357859.1584
        49.5004         41.2504
  20497470.9594   -1946841.56649  -1518431.62548                  20497466.7474
        51.2504         41.5004
  21749469.4004   -7614589.05949  -5926829.37147                  21749464.9134
        50.7504         37.2504
  22168423.2874     176216.53149    134097.27347                  22168421.3884
        49.0004         34.0004
  23373305.1014    2276914.88349   1769095.17647                  23373303.7324
        43.5004         26.0004
  24256149.6434    -848392.39548
        32.5004
 04  6 29 15 34  0.0000000  0  9G 6G15G16G18G21G22G26G29G 3
  21540252.6194    4209847.53149   3270989.52347                  21540250.0874
        49.2504         37.0004
  22182162.3414   -6703777.42249  -5196360.26647                  22182159.7164
        41.2504         32.0004
  23157926.8794   -1299963.53549  -1014054.59047                  23157922.9824
        44.0004         27.2504
  20355129.7994   -3708416.25049  -2887044.54748                  20355125.9644
        49.7504         41.2504
  20495802.9684   -1955605.79349  -1525260.90248                  20495799.0514
        51.2504         42.0004
  21741723.9724   -7655291.09049  -5958545.23847                  21741720.0184
        47.5004         37.7504
  22170935.5824     189418.23849    144384.28947                  22170933.8024
        49.0004         35.2504
  23377677.5954    2299890.75849   1786998.42246                  23377675.5084
        42.0004         23.0004
  24245498.4494    -904358.60548
        30.0004
 04  6 29 15 34 15.0000000  0  9G 6G15G16G18G21G22G26G29G 3
  21546440.6844    4242367.93449   3296330.08647                  21546438.7054
        48.7504         37.2504
  22174584.7054   -6743599.32849  -5227390.33247                  22174582.2344
        42.5004         33.0004
  23158290.6144   -1298051.97749  -1012565.08647                  23158287.7554
        41.2504         27.2504
  20352416.2724   -3722675.49649  -2898155.64548                  20352412.7294
        49.7504         41.5004
  20494144.5754   -1964321.12549  -1532052.05948                  20494140.6124
        50.7504         41.5004
  21733994.9024   -7695911.14849  -5990197.21547                  21733990.2644
        48.5004         37.2504
  22173476.6834     202772.01249    154789.79747                  22173474.6144
        49.0004         35.0004
  23382070.2724    2322975.71949   1804986.70346                  23382068.8164
        42.7504         24.0004
  24234855.8504    -960293.39548
        33.7504
 04  6 29 15 34 30.0000000  0  9G 6G15G16G18G21G22G26G29G 3
  21552646.4304    4274977.64549   3321740.23047                  21552644.4684
        48.7504         36.7504
  22167010.7594   -6783401.54349  -5258405.05147                  22167007.7994
        46.2504         33.2504
  23158676.8964   -1296018.47749  -1010980.53147                  23158674.6034
        42.0004         27.5004
  20349723.2564   -3736828.92249  -2909184.29348                  20349719.1824
        49.7504         41.2504
  20492496.1354   -1972985.22349  -1538803.31248                  20492491.6354
        51.5004         41.2504
  21726281.0884   -7736446.91449  -6021783.52047                  21726276.2654
        50.0004         37.5004
  22176047.6394     216279.83249    165315.34847                  22176044.6214
        49.5004         34.0004
  23386484.5564    2346172.02749   1823061.74647                  23386482.9174
        43.2504         25.7504
  24224217.5974   -1016194.02748   -885523.47356                  24224219.4684
        32.5004         20.0004
 04  6 29 15 34 45.0000000  0  9G 6G15G16G18G21G22G26G29G 3
  21558868.3484    4307675.07449   3347218.73447                  21558866.2204
        48.5004         36.7504
  22159440.3914   -6823185.33649  -5289405.38747                  22159437.2794
        46.0004         32.2504
  23159087.4324   -1293864.62949  -1009302.20747                  23159084.4264
        43.7504         29.0004
  20347049.9944   -3750878.08249  -2920131.68748                  20347045.6284
        49.7504         41.7504
  20490856.7054   -1981599.47749  -1545515.72348                  20490852.7374
        50.5004         41.2504
  21718583.0464   -7776899.73849  -6053305.18747                  21718578.2314
        48.7504         37.0004
  22178647.0814     229940.30549    175959.87147                  22178644.0284
        49.7504         34.7504
  23390918.8244    2369477.86349   1841222.11747                  23390917.4184
        42.5004         26.0004
  24213587.5694   -1072061.58649   -929056.63346                  24213586.5274
        37.2504         17.7504
 04  6 29 15 35  0.0000000  0  9G 6G15G16G18G21G22G26G29G 3
  21565107.2294    4340460.62549   3372765.89847                  21565105.3954
        48.5004         37.0004
  22151872.6034   -6862950.03949  -5320390.84847                  22151870.3694
        42.0004         32.2504
  23159520.6054   -1291590.02049  -1007529.80947                  23159517.5144
        43.7504         28.5004
  20344396.0874   -3764822.46549  -2930997.43048                  20344392.8404
        50.0004         42.0004
  20489226.9414   -1990163.13749  -1552188.70748                  20489223.2044
        51.2504         41.0004
  21710901.0374   -7817268.82449  -6084761.60947                  21710896.5044
        47.0004         36.7504
  22181275.1384     243753.77349    186723.60247                  22181273.3744
        48.7504         33.7504
  23395375.1594    2392893.67649   1859468.16847                  23395373.1694
        43.5004         26.2504
  24202962.5384   -1127895.18048   -972563.28946                  24202961.3124
        35.5004         19.0004
 04  6 29 15 35 15.0000000  0  9G 6G15G16G18G21G22G26G29G 3
  21571362.6254    4373332.59049   3398380.39847                  21571360.4934
        49.2504         37.5004
  22144309.4904   -6902697.03549  -5351362.53547                  22144306.5434
        42.5004         33.5004
  23159975.5934   -1289196.25049  -1005664.57847                  23159972.9524
        43.0004         28.2504
  20341762.6164   -3778663.69549  -2941782.81648                  20341758.9684
        49.5004         42.2504
  20487607.0044   -1998677.63349  -1558823.38348                  20487602.9374
        51.0004         41.7504
  21703234.3794   -7857555.53949  -6116153.84847                  21703229.7924
        45.0004         37.2504
  22183932.4914     257718.65649    197605.30947                  22183930.6244
        47.0004         31.7504
  23399851.8454    2416417.69549   1877798.56347                  23399850.7034
        42.2504         28.0004
  24192343.6494   -1183696.05148  -1016044.40646                  24192342.5754
        35.5004         17.7504
 04  6 29 15 35 30.0000000  0  9G 6G15G16G18G21G22G26G29G 3
  21577634.6954    4406291.75449   3424062.84447                  21577632.7624
        49.0004         37.5004
  22136749.6244   -6942425.31249  -5382319.61347                  22136746.3214
        43.7504         33.5004
  23160454.3314   -1286682.53949  -1003705.86347                  23160451.0674
        44.2504         29.2504
  20339148.1794   -3792400.77749  -2952487.03548                  20339144.8664
        50.0004         42.0004
  20485995.8664   -2007141.82849  -1565418.86348                  20485991.9914
        50.5004         41.7504
  21695583.9814   -7897758.87949  -6147481.11747                  21695579.1634
        47.2504         37.5004
  22186618.9024     271835.66849    208605.55947                  22186616.7184
        47.2504         32.5004
  23404349.1174    2440050.65249   1896213.85947                  23404348.4924
        43.2504         29.0004
  24181731.7894   -1239462.80549  -1059499.02046                  24181730.8584
        37.0004         18.2504
 04  6 29 15 35 45.0000000  0  9G 6G15G16G18G21G22G26G29G 3
  21583923.7214    4439338.80949   3449813.77347                  21583921.2234
        49.2504         37.5004
  22129192.8034   -6982133.89149  -5413261.37947                  22129190.5624
        46.2504         33.2504
  23160955.2904   -1284048.14549  -1001653.11747                  23160952.6894
        43.2504         30.0004
  20336554.0164   -3806032.77749  -2963109.37548                  20336550.2534
        50.0004         41.7504
  20484394.9604   -2015554.98449  -1571974.57848                  20484391.2794
        51.0004         41.2504
  21687949.6224   -7937877.85249  -6178742.64847                  21687944.6384
        48.7504         37.5004
  22189334.1934     286105.50449    219724.90247                  22189332.7404
        47.2504         32.5004
  23408866.8214    2463793.30549   1914714.60947                  23408866.4854
        43.5004         29.5004
  24171126.9344   -1295194.46549  -1102926.30946                  24171125.1534
        38.7504         19.5004
 04  6 29 15 36  0.0000000  0  9G 6G15G16G18G21G22G26G29G 3
  21590229.3314    4472475.60249   3475634.64147                  21590226.5514
        49.0004         37.0004
  22121641.0164   -7021820.79349  -5444186.22747                  22121638.1964
        46.7504         33.0004
  23161480.1804   -1281291.24649   -999504.89547                  23161477.0444
        43.5004         29.7504
  20333980.2614   -3819557.91849  -2973648.43748                  20333976.3724
        49.7504         41.7504
  20482804.4054   -2023914.87149  -1578488.78148                  20482800.1234
        51.0004         41.7504
  21680331.9404   -7977910.30949  -6209936.75847                  21680326.9874
        49.7504         37.2504
  22192078.9694     300530.07449    230964.81347                  22192077.4644
        46.7504         33.5004
  23413405.9494    2487647.34049   1933302.16047                  23413404.7294
        42.0004         27.5004
  24160528.5724   -1350888.55549  -1146324.29346                  24160526.9934
        38.0004         20.0004
 04  6 29 15 36 15.0000000  0  9G 6G15G16G18G21G22G26G29G 3
  21596551.9174    4505701.10949   3501524.61747                  21596549.0154
        49.2504         36.5004
  22114092.3664   -7061486.71949  -5475094.73447                  22114090.3484
        46.5004         32.5004
  23162027.9014   -1278412.76649   -997261.91847                  23162025.2124
        43.2504         29.0004
  20331426.9944   -3832977.02749  -2984104.88348                  20331422.6274
        49.0004         42.0004
  20481223.2864   -2032222.14549  -1584961.96548                  20481218.9784
        51.0004         41.2504
  21672730.3694   -8017856.93049  -6241063.98047                  21672725.6974
        50.5004         38.0004
  22194853.1204     315108.52049    242324.63747                  22194850.9634
        47.7504         33.2504
  23417966.7574    2511611.80949   1951975.73046                  23417964.8004
        43.0004         25.5004
  24149936.4524   -1406545.77749  -1189693.49646                  24149935.3944
        37.2504         19.0004
 04  6 29 15 36 30.0000000  0  9G 6G15G16G18G21G22G26G29G 3
  21602891.0184    4539012.94549   3527481.89147                  21602888.2854
        49.2504         36.5004
  22106547.9304   -7101133.68449  -5505988.46147                  22106545.7364
        46.7504         33.2504
  23162598.5484   -1275415.00049   -994926.02047                  23162595.7154
        44.5004         28.7504
  20328893.0954   -3846292.30949  -2994480.42648                  20328888.9944
        49.2504         41.5004
  20479651.9954   -2040478.73049  -1591395.67248                  20479648.0554
        51.2504         41.0004
  21665144.9924   -8057719.83249  -6272125.97747                  21665139.6664
        51.0004         37.5004
  22197656.9314     329838.38749    253802.41447                  22197653.9704
        47.7504         32.7504
  23422547.4054    2535684.35949   1970733.53146                  23422544.6494
        43.7504         25.5004
  24139352.5184   -1462167.73449  -1233035.27046                  24139350.2284
        38.0004         19.0004
 04  6 29 15 36 45.0000000  0  9G 6G15G16G18G21G22G26G29G 3
  21609246.1834    4572411.96949   3553507.08247                  21609244.0554
        48.5004         36.0004
  22099007.2614   -7140760.75449  -5536866.69547                  22099004.6754
        47.5004         33.7504
  23163191.8654   -1272297.16849   -992496.55947                  23163188.7544
        44.2504         28.5004
  20326379.1504   -3859502.92249  -3004774.41048                  20326375.2614
        49.5004         41.7504
  20478091.0384   -2048683.82049  -1597789.25848                  20478087.1214
        51.0004         41.2504
  21657574.9244   -8097497.91449  -6303121.87547                  21657570.6884
        51.0004         37.0004
  22200488.6924     344720.52349    265398.86347                  22200486.3134
        48.2504         34.0004
  23427149.2574    2559865.59849   1989576.00047                  23427145.9594
        44.0004         27.7504
  24128775.0644   -1517753.04349  -1276348.48446                  24128773.1224
        39.0004         19.0004
 04  6 29 15 37  0.0000000  0  9G 6G15G16G18G21G22G26G29G 3
  21615618.0864    4605897.85249   3579599.95747                  21615616.1414
        49.0004         36.5004
  22091469.6634   -7180367.94149  -5567729.43447                  22091467.1854
        46.2504         32.2504
  23163807.6854   -1269059.57449   -989973.78547                  23163805.6424
        45.0004         29.7504
  20323885.1614   -3872608.99649  -3014986.93048                  20323880.7874
        50.0004         42.0004
  20476539.2564   -2056837.64849  -1604142.89148                  20476535.3944
        51.5004         41.7504
  21650021.7624   -8137191.21949  -6334051.72347                  21650017.1534
        50.5004         38.0004
  22203350.1314     359754.66449    277113.75047                  22203347.4524
        48.0004         34.0004
  23431771.6884    2584155.34449   2008503.04747                  23431769.5464
        46.0004         27.2504
  24118203.5634   -1573301.67649  -1319633.14546                  24118202.4154
        38.0004         20.5004
 04  6 29 15 37 15.0000000  0  9G 6G15G16G18G21G22G26G29G 3
  21622007.2784    4639470.62949   3605760.54747                  21622004.5984
        48.7504         36.5004
  22083937.0044   -7219954.86349  -5598576.40247                  22083934.2084
        45.7504         32.2504
  23164446.8134   -1265702.12549   -987357.61347                  23164444.0874
        43.7504         29.7504
  20321411.1074   -3885610.22349  -3025117.77048                  20321407.3094
        50.2504         41.5004
  20474997.5904   -2064939.64849  -1610456.14548                  20474993.9064
        51.0004         41.5004
  21642484.3894   -8176799.40249  -6364915.22347                  21642480.2654
        50.5004         38.0004
  22206239.3684     374940.91449    288947.19947                  22206237.3084
        48.0004         33.5004
  23436414.4874    2608553.52749   2027514.58647                  23436412.9484
        45.5004         28.2504
  24107640.9184   -1628813.05949  -1362888.75046                  24107638.0374
        36.2504         18.5004
 04  6 29 15 37 30.0000000  0  9G 6G15G16G18G21G22G26G29G 3
  21628412.3474    4673128.97749   3631987.81347                  21628409.7424
        48.5004         36.5004
  22076407.4064   -7259522.75049  -5629408.47747                  22076405.1544
        46.5004         33.5004
  23165108.4444   -1262226.27749   -984649.16847                  23165106.0224
        44.5004         30.0004
  20318956.8544   -3898508.03949  -3035168.00848                  20318953.2264
        49.7504         41.7504
  20473465.6494   -2072990.98849  -1616729.92648                  20473461.3294
        51.7504         41.5004
  21634963.5874   -8216323.60549  -6395713.29347                  21634958.9344
        50.0004         38.0004
  22209157.2134     390277.72349    300897.95747                  22209155.5334
        47.5004         34.5004
  23441077.7284    2633058.67249   2046609.47347                  23441075.5294
        45.2504         29.5004
  24097084.1504   -1684287.98449  -1406115.94946                  24097081.8304
        36.2504         19.2504
 04  6 29 15 37 45.0000000  0  9G 6G15G16G18G21G22G26G29G 3
  21634833.6654    4706873.88749   3658282.52347                  21634831.4624
        49.2504         36.2504
  22068881.7274   -7299070.18449  -5660224.65247                  22068879.5504
        46.2504         33.5004
  23165792.3004   -1258630.81649   -981847.53947                  23165789.6024
        43.7504         27.7504
  20316522.3924   -3911301.18049  -3045136.69948                  20316518.8804
        50.2504         42.2504
  20471943.6694   -2080990.33649  -1622963.16848                  20471938.7094
        51.0004         41.5004
  21627458.7554   -8255762.33249  -6426444.76647                  21627453.4104
        50.2504         38.0004
  22212105.2504     405766.29749    312966.96547                  22212103.3974
        47.7504         34.2504
  23445761.4324    2657671.86349   2065788.53947                  23445759.6204
        45.2504         28.5004
  24086534.4154   -1739724.94149  -1449313.58246                  24086532.5904
        38.0004         20.0004
 04  6 29 15 38  0.0000000  0  9G 6G15G16G18G21G22G26G29G 3
  21641272.0204    4740706.17649   3684645.32847                  21641269.5764
        49.5004         36.5004
  22061360.0934   -7338596.18049  -5691024.12947                  22061358.3344
        46.5004         33.5004
  23166499.4374   -1254914.96149   -978952.08647                  23166495.8834
        45.7504         30.5004
  20314107.8204   -3923988.77049  -3055023.13748                  20314104.1004
        50.0004         41.5004
  20470431.0434   -2088936.57449  -1629155.05548                  20470426.9494
        51.2504         41.5004
  21619969.9434   -8295114.62949  -6457108.89147                  21619964.8814
        50.0004         37.7504
  22215081.7054     421407.42649    325154.85947                  22215079.8324
        48.5004         35.2504
  23450464.9674    2682393.92649   2085052.48447                  23450463.8004
        45.0004         28.0004
  24075992.6194   -1795122.68449  -1492480.62546                  24075991.5164
        37.5004         21.7504
 04  6 29 15 38 15.0000000  0  9G 6G15G16G18G21G22G26G29G 3
  21647726.5034    4774624.79349   3711075.40247                  21647724.0614
        50.2504         37.0004
  22053842.1614   -7378101.42649  -5721807.41047                  22053840.1684
        47.0004         32.5004
  23167229.5714   -1251079.77049   -975963.64547                  23167225.4384
        45.5004         29.5004
  20311713.4494   -3936571.79749  -3064828.08648                  20311709.6424
        49.5004         41.7504
  20468928.6964   -2096830.57849  -1635306.22348                  20468924.8224
        51.0004         41.2504
  21612497.5864   -8334381.22349  -6487706.22747                  21612492.9564
        50.0004         38.0004
  22218087.0934     437200.09049    337460.82447                  22218084.5444
        48.5004         35.0004
  23455190.5464    2707223.58249   2104400.26247                  23455189.2474
        45.5004         27.0004
  24065458.3324   -1850481.70749  -1535617.53146                  24065457.1244
        37.5004         21.0004
 04  6 29 15 38 30.0000000  0  9G 6G15G16G18G21G22G26G29G 3
  21654196.7134    4808629.33249   3737572.41447                  21654194.9904
        48.7504         36.7504
  22046329.2234   -7417586.10949  -5752574.68747                  22046326.0584
        46.5004         33.2504
  23167981.5484   -1247125.58649   -972882.47747                  23167977.5234
        45.0004         29.5004
  20309338.9584   -3949050.48049  -3074551.73448                  20309335.0474
        49.7504         41.7504
  20467436.7024   -2104672.40649  -1641416.73848                  20467432.2324
        50.2504         41.0004
  21605041.6874   -8373562.17649  -6518236.83247                  21605037.4764
        48.5004         38.0004
  22221120.9304     453143.98449    349884.62147                  22221118.7834
        47.2504         34.5004
  23459936.6284    2732160.44949   2123831.58647                  23459934.0324
        45.7504         28.5004
  24054931.6174   -1905802.02349  -1578724.19546                  24054929.8384
        38.2504         20.5004
 04  6 29 15 38 45.0000000  0  9G 6G15G16G18G21G22G26G29G 3
  21660684.9634    4842721.75849   3764137.93047                  21660682.2334
        49.0004         36.5004
  22038818.9714   -7457047.95749  -5783324.17247                  22038816.9004
        46.0004         33.2504
  23168757.4144   -1243050.44149   -969707.08247                  23168753.5954
        43.5004         27.0004
  20306984.0274   -3961422.71949  -3084192.43748                  20306980.6124
        49.0004         42.0004
  20465954.9264   -2112459.70349  -1647484.77348                  20465949.9254
        51.2504         41.0004
  21597602.5724   -8412655.19549  -6548698.91847                  21597597.7094
        49.7504         38.2504
  22224184.2114     469241.06349    362427.77347                  22224182.5074
        48.0004         34.5004
  23464702.4444    2757206.72749   2143348.13747                  23464699.8394
        44.5004         25.7504
  24044411.9354   -1961081.01249  -1621798.73046                  24044410.7814
        39.5004         22.0004
 04  6 29 15 39  0.0000000  0  9G 6G15G16G18G21G22G26G29G 3
  21667187.9734    4876899.19149   3790769.69547                  21667186.4534
        48.5004         36.5004
  22031314.7064   -7496489.49249  -5814057.83647                  22031311.1104
        43.5004         33.5004
  23169555.5644   -1238857.20349   -966439.64147                  23169551.5424
        43.2504         27.0004
  20304649.6474   -3973691.32449  -3093752.39548                  20304645.8214
        49.5004         41.5004
  20464482.5754   -2120195.10549  -1653512.36348                  20464478.1604
        50.5004         41.0004
  21590179.5594   -8451662.97349  -6579094.56647                  21590175.0914
        47.5004         38.5004
  22227276.0534     485488.40649    375088.02047                  22227273.9574
        48.0004         33.5004
  23469488.3864    2782359.36349   2162947.57447                  23469486.4834
        43.2504         26.5004
  24033900.3814   -2016321.01249  -1664842.88346                  24033898.0404
        38.2504         20.5004
 04  6 29 15 39 15.0000000  0  9G 6G15G16G18G21G22G26G29G 3
  21673708.6054    4911162.19949   3817468.12147                  21673706.1354
        48.5004         36.0004
  22023813.1184   -7535909.98849  -5844775.09447                  22023809.6824
        42.5004         33.0004
  23170376.0184   -1234545.26249   -963079.69147                  23170372.8104
        43.5004         28.7504
  20302335.1034   -3985855.60549  -3103231.06248                  20302331.3154
        49.7504         42.2504
  20463020.8024   -2127877.78149  -1659498.86748                  20463016.0694
        50.2504         40.7504
  21582773.2234   -8490584.63349  -6609423.12947                  21582768.6544
        45.5004         38.0004
  22230396.1574     501886.62149    387865.85247                  22230394.0134
        47.2504         33.2504
  23474294.9854    2807618.71949   2182630.17646                  23474293.4404
        43.5004         25.5004
  24023395.6534   -2071521.15649  -1707855.95746                  24023393.7494
        37.0004         21.7504
 04  6 29 15 39 30.0000000  0  9G 6G15G16G18G21G22G26G29G 3
  21680244.4694    4945511.72349   3844233.96947                  21680243.1494
        48.0004         36.0004
  22016315.7304   -7575308.12549  -5875474.92247                  22016312.2554
        42.2504         33.5004
  23171219.1034   -1230113.64849   -959626.50047                  23171216.5514
        43.0004         28.2504
  20300040.4384   -3997914.30949  -3112627.45348                  20300036.4754
        49.5004         41.5004
  20461568.9844   -2135506.46149  -1665443.29748                  20461564.8154
        50.2504         41.2504
  21575382.6274   -8529418.86749  -6639683.55147                  21575378.9734
        47.2504         38.0004
  22233546.0194     518436.69149    400762.01647                  22233542.5454
        47.0004         31.0004
  23479121.8564    2832985.87549   2202396.76647                  23479120.9754
        44.0004         26.7504
  24012900.1454   -2126679.80949  -1750836.70746                  24012897.6594
        40.0004         22.5004
 04  6 29 15 39 45.0000000  0  9G 6G15G16G18G21G22G26G29G 3
  21686797.0584    4979945.92249   3871065.78147                  21686795.6974
        47.2504         36.2504
  22008822.5854   -7614685.47749  -5906158.56647                  22008819.1774
        45.7504         34.0004
  23172084.9064   -1225564.14549   -956081.43747                  23172082.5234
        43.5004         29.0004
  20297765.4254   -4009869.16849  -3121942.93048                  20297761.1584
        49.5004         42.0004
  20460127.3404   -2143082.75849  -1671346.91048                  20460123.0154
        50.7504         41.7504
  21568009.2904   -8568167.22749  -6669877.06247                  21568005.0894
        48.7504         38.5004
  22236723.7204     535136.78949    413775.09047                  22236721.0044
        47.0004         31.0004
  23483969.8434    2858459.00849   2222245.93447                  23483968.5454
        45.7504         28.0004
  24002411.0944   -2181798.21949  -1793786.09046                  24002408.9334
        38.2504         21.2504
 04  6 29 15 40  0.0000000  0  9G 6G15G16G18G21G22G26G29G 3
  21693366.4624    5014465.61349   3897964.23047                  21693364.2954
        48.0004         36.0004
  22001333.1844   -7654041.10549  -5936825.29747                  22001330.3764
        46.5004         34.2504
  23172973.3294   -1220896.02749   -952443.94547                  23172970.9514
        45.0004         29.2504
  20295510.5244   -4021719.35949  -3131176.84448                  20295506.3744
        49.7504         42.0004
  20458696.0164   -2150605.66449  -1677208.91448                  20458691.7304
        51.0004         41.5004
  21560652.7294   -8606828.70749  -6700002.87547                  21560648.0924
        49.2504         37.7504
  22239930.7324     551987.70349    426905.65647                  22239928.0374
        48.0004         31.7504
  23488837.7974    2884038.69949   2242178.13347                  23488836.0104
        45.0004         27.5004
  23991930.4784   -2236875.28549  -1836703.26646                  23991927.8364
        39.5004         21.7504
 04  6 29 15 40 15.0000000  0  9G 6G15G16G18G21G22G26G29G 3
  21699951.5074    5049069.88749   3924928.57447                  21699948.9514
        47.7504         36.5004
  21993848.2404   -7693375.69149  -5967475.61747                  21993845.3534
        43.5004         34.7504
  23173884.2574   -1216110.13349   -948714.72747                  23173881.3084
        44.5004         29.7504
  20293274.9674   -4033465.88749  -3140329.98448                  20293270.9804
        49.5004         41.7504
  20457274.3054   -2158075.88749  -1683029.86348                  20457270.4414
        50.7504         41.0004
  21553312.0884   -8645403.98049  -6730061.51647                  21553307.4974
        47.2504         38.2504
  22243165.7304     568988.48049    440153.00047                  22243163.4544
        48.5004         33.0004
  23493725.4874    2909723.98049   2262192.61347                  23493723.7274
        44.2504         27.7504
  23981456.8864   -2291911.34049  -1879588.50046                  23981454.5924
        39.2504         22.0004
 04  6 29 15 40 30.0000000  0  9G 6G15G16G18G21G22G26G29G 3
  21706552.4854    5083759.14849   3951959.16447                  21706550.8734
        48.0004         36.2504
  21986367.2154   -7732688.30549  -5998108.81247                  21986364.4064
        43.5004         34.5004
  23174817.2284   -1211206.11749   -944893.43447                  23174814.7484
        43.7504         28.7504
  20291059.5574   -4045107.89849  -3149401.67248                  20291055.6594
        49.5004         41.2504
  20455862.9264   -2165492.50849  -1688809.04748                  20455858.8044
        51.0004         41.7504
  21545987.5364   -8683892.14549  -6760052.30947                  21545983.3784
        46.5004         38.7504
  22246429.5804     586139.67649    453517.54347                  22246427.6974
        48.2504         33.0004
  23498633.0014    2935515.37549   2282289.80547                  23498631.6174
        43.5004         25.7504
  23970992.3844   -2346905.46149  -1922441.00046                  23970989.8604
        39.2504         22.5004
 04  6 29 15 40 45.0000000  0  9G 6G15G16G18G21G22G26G29G 3
  21713169.7814    5118533.71949   3979056.21547                  21713168.0414
        47.5004         36.5004
  21978890.3824   -7771978.50449  -6028724.54747                  21978887.7784
        46.0004         35.2504
  23175772.5924   -1206183.58249   -940979.79747                  23175769.6794
        44.0004         28.0004
  20288864.2614   -4056645.16849  -3158391.75848                  20288860.2994
        48.0004         41.2504
  20454462.0734   -2172854.98049  -1694546.03548                  20454458.0144
        50.0004         41.7504
  21538680.5804   -8722292.75849  -6789974.84847                  21538676.2884
        50.0004         38.2504
  22249721.1964     603441.41849    466999.39847                  22249720.0174
        47.7504         33.5004
  23503561.2404    2961413.06649   2302469.80147                  23503560.0354
        43.2504         27.0004
  23960535.2614   -2401856.65249  -1965260.10246                  23960532.9374
        40.7504         22.0004
 04  6 29 15 41  0.0000000  0  9G 6G15G16G18G21G22G26G29G 3
  21719803.1874    5153392.53949   4006218.91047                  21719801.4034
        47.2504         36.2504
  21971418.0344   -7811246.96149  -6059323.33647                  21971415.3114
        46.2504         34.7504
  23176751.2034   -1201043.54749   -936974.60547                  23176747.3564
        43.0004         28.2504
  20286688.4804   -4068078.48449  -3167300.83648                  20286684.9494
        48.7504         41.5004
  20453070.9034   -2180164.19549  -1700241.53148                  20453066.9874
        49.5004         42.0004
  21531389.5404   -8760606.57049  -6819829.74247                  21531385.0074
        49.2504         38.2504
  22253042.3604     620892.83249    480597.89547                  22253040.6994
        47.5004         33.2504
  23508509.2154    2987415.94549   2322731.76646                  23508507.6134
        43.5004         25.0004
  23950086.6384   -2456765.73049  -2008046.36746                  23950084.3104
        41.7504         22.2504
 04  6 29 15 41 15.0000000  0  9G 6G15G16G18G21G22G26G29G 3
  21726452.6194    5188334.32449   4033446.26647                  21726451.0404
        46.2504         36.0004
  21963949.5104   -7850494.59049  -6089905.88747                  21963946.7264
        46.0004         34.7504
  23177750.8724   -1195787.03949   -932878.62547                  23177747.9664
        42.7504         27.0004
  20284532.4474   -4079408.78549  -3176129.64848                  20284528.5374
        48.7504         41.2504
  20451689.9474   -2187420.81649  -1705896.04348                  20451686.2224
        49.7504         41.5004
  21524115.4144   -8798834.38749  -6849617.64547                  21524110.8054
        50.0004         38.0004
  22256391.7854     638492.71949    494312.08647                  22256389.8214
        46.7504         33.2504
  23513476.9634    3013522.98449   2343074.85946                  23513475.3574
        42.2504         23.2504
  23939645.2404   -2511633.19549  -2050800.21146                  23939643.6484
        40.5004         22.5004
 04  6 29 15 41 30.0000000  0  9G 6G15G16G18G21G22G26G29G 3
  21733117.7214    5223358.60549   4060737.88347                  21733115.5124
        46.0004         35.5004
  21956484.6664   -7889721.76649  -6120472.50847                  21956481.9724
        45.2504         34.0004
  23178773.5794   -1190414.91049   -928692.56647                  23178770.3714
        42.5004         27.0004
  20282396.1654   -4090636.73849  -3184878.69948                  20282391.7174
        49.2504         41.5004
  20450319.2304   -2194625.27749  -1711509.91448                  20450314.6134
        50.2504         41.2504
  21516856.7224   -8836976.63349  -6879338.86347                  21516852.5684
        50.0004         38.2504
  22259768.9014     656240.33649    508141.41047                  22259767.3394
        46.0004         33.0004
  23518464.9424    3039733.34449   2363498.49646                  23518463.2504
        42.7504         23.0004
  23929212.5584   -2566459.12149  -2093521.68746                  23929210.2464
        41.5004         22.2504
 04  6 29 15 41 45.0000000  0  9G 6G15G16G18G21G22G26G29G 3
  21739798.5884    5258467.38749   4088095.35247                  21739797.2204
        47.5004         35.7504
  21949023.7694   -7928926.07049  -6151021.32047                  21949021.8204
        44.7504         33.7504
  23179818.2224   -1184925.05549   -924414.75447                  23179814.4194
        42.0004         26.7504
  20280279.0104   -4101760.11349  -3193546.25848                  20280275.3224
        49.2504         42.0004
  20448958.2874   -2201775.34049  -1717081.38748                  20448954.3234
        50.0004         41.0004
  21509615.4214   -8875030.86749  -6908991.49647                  21509611.1384
        49.2504         38.0004
  22263174.6174     674137.89549    522087.54747                  22263173.2944
        45.7504         33.5004
  23523472.9594    3066049.08649   2384004.25046                  23523471.0584
        43.5004         24.7504
  23918787.5194   -2621241.02349  -2136208.85546                  23918786.2884
        41.7504         24.5004
 04  6 29 15 42  0.0000000  0  9G 6G15G16G18G21G22G26G29G 3
  21746495.1504    5293657.82849   4115516.45347                  21746493.6794
        47.0004         36.5004
  21941567.5444   -7968110.18049  -6181554.39147                  21941564.5294
        46.2504         34.0004
  23180884.4494   -1179320.20349   -920047.34846                  23180880.9924
        41.0004         25.5004
  20278181.4334   -4112781.98449  -3202134.73048                  20278178.0334
        48.7504         41.7504
  20447607.7234   -2208873.50449  -1722612.41448                  20447603.5674
        49.5004         40.5004
  21502390.2034   -8912999.84449  -6938577.71147                  21502385.4804
        49.2504         38.5004
  22266608.8454     692182.58649    536148.33647                  22266606.8134
        46.5004         33.5004
  23528500.1234    3092467.45749   2404589.99646                  23528498.5494
        43.0004         24.5004
  23908371.3904   -2675981.09449  -2178863.43746                  23908369.8584
        41.5004         25.0004
 04  6 29 15 42 15.0000000  0  9G 6G15G16G18G21G22G26G29G 3
  21753207.5274    5328930.70749   4143001.80147                  21753205.8644
        47.0004         36.7504
  21934114.8014   -8007273.01249  -6212070.88747                  21934112.0904
        45.0004         33.7504
  23181973.4924   -1173599.61349   -915589.76647                  23181969.3614
        43.7504         26.5004
  20276103.6214   -4123701.02749  -3210643.07848                  20276099.6864
        48.5004         42.0004
  20446267.2304   -2215918.54349  -1728102.05948                  20446262.9064
        49.0004         40.7504
  21495181.2374   -8950882.34849  -6968096.53547                  21495176.6794
        48.5004         37.7504
  22270070.4354     710374.99249    550324.22747                  22270068.5904
        46.0004         33.2504
  23533546.9884    3118988.98449   2425256.10246                  23533545.6454
        43.2504         24.5004
  23897962.5194   -2730678.18449  -2221484.50446                  23897960.6824
        40.5004         25.5004
 04  6 29 15 42 30.0000000  0  9G 6G15G16G18G21G22G26G29G 3
  21759935.1734    5364285.29349   4170550.80147                  21759932.6344
        46.5004         36.5004
  21926666.4604   -8046414.93749  -6242571.07847                  21926663.9644
        44.2504         34.0004
  23183084.0614   -1167763.99249   -911042.57047                  23183079.9364
        43.0004         26.5004
  20274045.6484   -4134517.87549  -3219071.79348                  20274041.5754
        47.5004         41.7504
  20444936.5134   -2222910.99649  -1733550.73448                  20444932.5924
        50.0004         41.5004
  21487989.0004   -8988678.73849  -6997548.25447                  21487984.1834
        48.5004         37.7504
  22273560.6784     728714.55549    564614.77347                  22273558.1224
        46.0004         33.5004
  23538613.2064    3145613.04749   2446002.12946                  23538611.6404
        43.0004         25.0004
  23887562.4664   -2785332.33649  -2264072.11746                  23887560.9734
        40.5004         24.7504
 04  6 29 15 42 45.0000000  0  9G 6G15G16G18G21G22G26G29G 3
  21766678.6074    5399721.46949   4198163.38747                  21766676.6574
        46.2504         36.0004
  21919222.1064   -8085535.91849  -6273054.94547                  21919219.6614
        44.2504         34.0004
  23184216.2464   -1161813.56249   -906405.88347                  23184212.9194
        42.2504         28.0004
  20272006.6934   -4145232.60249  -3227420.93048                  20272002.4724
        48.5004         42.0004
  20443616.0704   -2229850.79749  -1738958.37148                  20443611.7554
        48.7504         40.7504
  21480813.3404   -9026388.87949  -7026932.77347                  21480808.0954
        48.2504         38.0004
  22277078.2824     747201.21549    579019.93047                  22277076.3084
        47.0004         34.5004
  23543699.6464    3172339.49249   2466827.89546                  23543697.6214
        43.0004         24.2504
  23877169.8584   -2839943.21949  -2306626.01646                  23877168.6164
        39.5004         24.5004
 04  6 29 15 43  0.0000000  0  9G 6G15G16G18G21G22G26G29G 3
  21773437.0844    5435239.02349   4225839.37547                  21773435.0224
        47.0004         35.5004
  21911781.8014   -8124635.68749  -6303522.30147                  21911779.2864
        46.0004         33.5004
  23185370.7864   -1155748.33249   -901679.76247                  23185368.2384
        42.0004         28.5004
  20269987.2314   -4155845.17649  -3235690.46148                  20269983.0144
        49.0004         41.7504
  20442305.3754   -2236737.72749  -1744324.81248                  20442301.2384
        49.5004         41.0004
  21473653.2464   -9064012.69549  -7056250.02347                  21473648.5774
        49.5004         38.2504
  22280623.9344     765834.62149    593539.45347                  22280623.1434
        47.0004         34.0004
  23548805.0054    3199168.04749   2487733.23446                  23548803.1554
        42.7504         25.2504
  23866786.0664   -2894510.43049  -2349145.89546                  23866784.4514
        41.0004         25.2504
 04  6 29 15 43 15.0000000  0  9G 6G15G16G18G21G22G26G29G 3
  21780211.8344    5470838.57049   4253579.27047                  21780209.3814
        47.0004         35.5004
  21904345.3254   -8163713.42249  -6333972.48847                  21904343.4994
        44.5004         33.2504
  23186546.6594   -1149567.83249   -896863.77747                  23186544.3344
        40.5004         27.7504
  20267987.3434   -4166354.68449  -3243879.68448                  20267983.0844
        49.0004         41.2504
  20441004.8664   -2243570.76649  -1749649.26648                  20441000.9014
        50.5004         41.0004
  21466510.5164   -9101549.17249  -7085499.19547                  21466505.3174
        49.5004         38.7504
  22284198.1884     784615.43049    608173.82447                  22284197.2164
        47.2504         34.5004
  23553930.0174    3226099.20349   2508718.54347                  23553927.9134
        43.5004         26.0004
  23856410.8244   -2949032.94949  -2391630.93447                  23856409.0004
        40.2504         26.2504
 04  6 29 15 43 30.0000000  0  9G 6G15G16G18G21G22G26G29G 3
  21787001.2054    5506519.46549   4281382.54347                  21786999.0814
        46.2504         35.0004
  21896913.5274   -8202769.47349  -6364405.76647                  21896911.1504
        46.0004         34.0004
  23187743.8374   -1143272.64149   -891958.44547                  23187742.3234
        41.0004         27.5004
  20266006.7384   -4176761.93749  -3251989.22748                  20266003.2074
        48.7504         41.7504
  20439714.8604   -2250350.46949  -1754932.14148                  20439710.7734
        50.0004         41.0004
  21459384.0924   -9138998.84849  -7114680.75047                  21459378.6074
        49.2504         39.2504
  22287799.8884     803542.96949    622922.54347                  22287798.7064
        47.5004         34.5004
  23559073.6664    3253132.31349   2529783.26247                  23559072.1474
        43.2504         26.2504
  23846044.3924   -3003510.95749  -2434081.29747                  23846041.9724
        41.0004         25.7504
 04  6 29 15 43 45.0000000  0  9G 6G15G16G18G21G22G26G29G 3
  21793806.4074    5542279.98049   4309247.85547                  21793804.5314
        46.7504         35.2504
  21889484.6124   -8241805.21549  -6394823.23047                  21889482.9664
        46.0004         33.5004
  23188963.7564   -1136864.36749   -886965.01247                  23188961.5084
        40.0004         27.0004
  20264045.0104   -4187068.55949  -3260020.36348                  20264041.5814
        48.0004         42.0004
  20438434.9724   -2257078.20349  -1760174.53948                  20438430.6824
        48.7504         40.7504
  21452273.5044   -9176363.05949  -7143795.70747                  21452268.6914
        48.7504         38.5004
  22291429.7144     822615.60549    637784.32047                  22291427.4534
        46.2504         34.0004
  23564237.1974    3280265.61749   2550926.09046                  23564235.0794
        42.5004         23.5004
  23835685.3624   -3057945.46549  -2476497.78947                  23835683.3744
        41.5004         25.7504
 04  6 29 15 44  0.0000000  0  9G 6G15G16G18G21G22G26G29G 3
  21800627.3294    5578121.73849   4337176.48047                  21800624.8324
        47.2504         36.0004
  21882060.8714   -8280818.82849  -6425223.43047                  21882058.8644
        46.2504         33.5004
  23190205.5754   -1130341.42249   -881882.21147                  23190202.3124
        41.0004         26.7504
  20262103.2774   -4197272.84049  -3267971.74248                  20262099.8414
        47.2504         41.2504
  20437165.0044   -2263752.12949  -1765374.98848                  20437161.0604
        48.2504         41.0004
  21445180.0074   -9213639.99649  -7172842.64847                  21445175.2734
        48.0004         38.5004
  22295086.2384     841834.76649    652760.30547                  22295084.0764
        45.5004         32.7504
  23569419.3714    3307500.72349   2572148.23446                  23569417.8674
        41.5004         22.7504
  23825335.8984   -3112334.45349  -2518878.78147                  23825333.9244
        41.0004         26.2504
 04  6 29 15 44 15.0000000  0  9G 6G15G16G18G21G22G26G29G 3
  21807462.8304    5614043.93849   4365167.79747                  21807460.6154
        47.5004         36.0004
  21874641.1034   -8319810.73049  -6455606.73047                  21874638.1114
        46.7504         33.7504
  23191468.1114   -1123704.60949   -876710.66847                  23191465.1954
        42.2504         28.0004
  20260181.5394   -4207375.28549  -3275843.78548                  20260177.2894
        47.7504         41.0004
  20435904.8804   -2270372.64849  -1770533.83648                  20435900.4924
        48.7504         41.2504
  21438102.8634   -9250830.15249  -7201821.98447                  21438098.5634
        48.2504         38.5004
  22298771.1384     861199.86349    667850.00447                  22298769.0534
        45.0004         31.7504
  23574622.4034    3334836.83249   2593449.08246                  23574619.4134
        42.7504         23.5004
  23814994.4954   -3166678.18749  -2561224.53546                  23814992.7634
        41.0004         25.5004
 04  6 29 15 44 30.0000000  0  9G 6G15G16G18G21G22G26G29G 3
  21814313.4844    5650045.66049   4393221.05947                  21814311.6004
        47.2504         35.5004
  21867225.1384   -8358781.60249  -6485973.63347                  21867222.3914
        45.7504         33.5004
  23192753.2074   -1116954.92649   -871451.19147                  23192749.0214
        41.2504         27.0004
  20258278.1334   -4217376.88749  -3283637.24248                  20258273.7564
        47.5004         42.0004
  20434655.3384   -2276940.58249  -1775651.70348                  20434650.7904
        49.0004         41.5004
  21431042.3854   -9287934.13749  -7230734.18047                  21431038.0534
        48.0004         39.0004
  22302484.2094     880709.88749    683052.60947                  22302482.0574
        44.5004         31.5004
  23579843.2824    3362272.93449   2614827.82446                  23579840.3824
        43.7504         24.2504
  23804662.0894   -3220976.97349  -2603535.25446                  23804660.0114
        40.5004         25.0004
 04  6 29 15 44 45.0000000  0  9G 6G15G16G18G21G22G26G29G 3
  21821179.8644    5686127.19149   4421336.52047                  21821177.1764
        46.0004         35.0004
  21859813.1194   -8397730.83249  -6516323.68047                  21859811.3544
        45.7504         33.2504
  23194058.8184   -1110092.09049   -866103.54747                  23194055.0994
        40.7504         25.7504
  20256393.9764   -4227277.33649  -3291351.87148                  20256389.9194
        47.0004         41.7504
  20433415.4204   -2283455.34449  -1780728.14148                  20433411.2844
        48.5004         41.5004
  21423998.4404   -9324951.39149  -7259578.78947                  21423993.6914
        47.7504         38.5004
  22306224.6544     900365.16449    698368.39147                  22306222.3214
        46.2504         32.0004
  23585083.1744    3389809.22749   2636284.66046                  23585081.3534
        42.5004         24.5004
  23794338.0124   -3275230.16849  -2645810.42646                  23794335.9274
        39.0004         25.5004
 04  6 29 15 45  0.0000000  0  9G 6G15G16G18G21G22G26G29G 3
  21828060.5804    5722288.96949   4449514.53147                  21828058.8024
        46.7504         35.0004
  21852405.9944   -8436657.64149  -6546656.25047                  21852404.1234
        45.7504         34.2504
  23195386.9864   -1103115.52749   -860667.29347                  23195382.5944
        42.2504         27.7504
  20254529.3264   -4237075.87149  -3298987.09448                  20254525.6444
        47.2504         41.5004
  20432186.2484   -2289915.84849  -1785762.31648                  20432182.3544
        48.7504         41.5004
  21416970.8464   -9361881.19549  -7288355.24247                  21416966.0484
        47.2504         37.7504
  22309992.9604     920166.10549    713797.66847                  22309990.3634
        45.5004         33.7504
  23590341.5294    3417446.22349   2657819.97346                  23590341.1564
        42.7504         24.5004
  23784022.9914   -3329436.69549  -2688049.27346                  23784020.5484
        39.0004         24.5004
 04  6 29 15 45 15.0000000  0  9G 6G15G16G18G21G22G26G29G 3
  21834957.4044    5758529.66449   4477754.04347                  21834955.3144
        46.5004         35.5004
  21845002.3384   -8475563.22749  -6576972.28947                  21845000.0954
        45.0004         34.2504
  23196735.7434   -1096026.73449   -855143.57047                  23196732.0364
        43.0004         28.5004
  20252683.7274   -4246773.80949  -3306543.91848                  20252679.9024
        47.5004         41.5004
  20430966.5684   -2296323.46949  -1790755.27048                  20430963.0494
        48.5004         41.0004
  21409959.6744   -9398724.64149  -7317064.40647                  21409954.9254
        48.0004         38.0004
  22313788.4024     940111.19949    729339.29347                  22313785.9724
        45.0004         34.0004
  23595619.8484    3445182.46949   2679432.64146                  23595619.4034
        42.0004         24.2504
  23773715.6474   -3383597.42249  -2730252.41046                  23773713.6524
        38.7504         22.5004
 04  6 29 15 45 30.0000000  0  9G 6G15G16G18G21G22G26G29G 3
  21841868.4394    5794849.79749   4506055.43047                  21841867.1114
        46.5004         35.0004
  21837602.8974   -8514446.52749  -6607270.96547                  21837600.8764
        44.2504         34.5004
  23198106.0284   -1088824.93749   -849531.80947                  23198103.7904
        42.5004         27.7504
  20250857.5054   -4256370.34449  -3314021.74648                  20250853.9804
        47.2504         41.7504
  20429757.7584   -2302676.92249  -1795706.02048                  20429753.7844
        50.2504         41.5004
  21402965.6184   -9435480.75849  -7345705.52747                  21402959.9844
        49.0004         38.2504
  22317610.9084     960201.19549    744993.81647                  22317609.4674
        45.2504         34.2504
  23600916.5114    3473018.50849   2701123.03946                  23600916.3514
        42.7504         24.0004
  23763418.2404   -3437711.07049  -2772418.84846                  23763417.1644
        38.0004         24.2504
 04  6 29 15 45 45.0000000  0  9G 6G15G16G18G21G22G26G29G 3
  21848795.2884    5831248.68049   4534418.18447                  21848793.6394
        46.0004         35.5004
  21830207.8234   -8553308.05149  -6637552.66847                  21830205.2324
        44.0004         34.0004
  23199497.8204   -1081510.95749   -843832.61747                  23199495.0004
        43.0004         28.0004
  20249050.8554   -4265866.05549  -3321421.00848                  20249047.0434
        46.7504         41.2504
  20428558.9784   -2308976.77049  -1800614.98048                  20428554.3704
        50.7504         40.5004
  21395987.2494   -9472150.00849  -7374278.94947                  21395981.8204
        48.7504         38.5004
  22321461.4274     980435.31649    760760.64547                  22321459.5764
        45.7504         34.0004
  23606232.5684    3500953.64849   2722890.67647                  23606231.7224
        43.5004         26.2504
  23753129.4324   -3491777.85549  -2814548.76246                  23753127.3014
        38.0004         23.0004
 04  6 29 15 46  0.0000000  0  9G 6G15G16G18G21G22G26G29G 3
  21855737.2644    5867727.98049   4562843.58647                  21855735.7184
        46.0004         35.7504
  21822817.5194   -8592145.79349  -6667815.82447                  21822814.7824
        45.0004         34.0004
  23200910.9074   -1074083.16449   -838044.73447                  23200907.7484
        42.0004         27.0004
  20247263.4394   -4275259.20349  -3328740.33648                  20247259.4034
        47.7504         41.5004
  20427370.7074   -2315221.11749  -1805480.69148                  20427365.7474
        50.0004         40.7504
  21389026.0124   -9508730.41849  -7402783.16047                  21389021.2984
        48.2504         38.5004
  22325339.8324    1000815.28149    776641.12547                  22325337.5144
        45.0004         34.5004
  23611568.0814    3528989.40649   2744736.69946                  23611566.3294
        43.5004         25.0004
  23742850.1724   -3545795.59449  -2856640.49246                  23742848.3584
        39.5004         24.2504
 04  6 29 15 46 15.0000000  0  9G 6G15G16G18G21G22G26G29G 3
  21862694.1394    5904286.41049   4591330.66447                  21862692.7764
        46.0004         35.5004
  21815431.1634   -8630960.77749  -6698061.25047                  21815429.0634
        45.0004         34.7504
  23202345.5844   -1066542.75449   -832169.12147                  23202342.5744
        41.2504         26.5004
  20245495.4264   -4284550.97349  -3335980.67648                  20245491.2514
        47.5004         42.0004
  20426192.8164   -2321411.03149  -1810303.99648                  20426188.5144
        49.5004         41.0004
  21382081.4714   -9545223.09049  -7431218.98847                  21382077.0544
        49.5004         38.5004
  22329245.1884    1021339.74249    792634.20347                  22329242.8884
        45.7504         34.0004
  23616922.4024    3557124.56649   2766660.18846                  23616919.6634
        43.7504         23.5004
  23732579.9504   -3599765.07049  -2898694.59446                  23732578.8164
        37.5004         25.0004
 04  6 29 15 46 30.0000000  0  9G 6G15G16G18G21G22G26G29G 3
  21869665.8534    5940921.91449   4619877.78947                  21869664.4204
        45.5004         36.0004
  21808049.1314   -8669754.71549  -6728290.29347                  21808047.0804
        44.2504         34.5004
  23203801.7044   -1058891.84449   -826207.39547                  23203798.8784
        41.5004         26.7504
  20243745.9724   -4293743.21149  -3343143.45748                  20243741.8234
        47.0004         41.2504
  20425025.0484   -2327548.28549  -1815086.27348                  20425020.9814
        50.5004         41.7504
  21375153.9264   -9581629.77049  -7459587.81247                  21375149.1224
        49.2504         38.2504
  22333178.1554    1042006.61749    808738.25447                  22333176.0274
        45.2504         34.2504
  23622294.1564    3585356.89849   2788659.37946                  23622291.9864
        42.2504         22.5004
  23722319.2424   -3653687.78549  -2940712.27346                  23722316.9514
        38.5004         23.0004
 04  6 29 15 46 45.0000000  0  9G 6G15G16G18G21G22G26G29G 3
  21876652.0544    5977635.52749   4648485.79747                  21876650.2374
        45.5004         35.7504
  21800670.7874   -8708526.21949  -6758501.83647                  21800668.5184
        43.5004         34.5004
  23205278.9354   -1051129.33649   -820158.70347                  23205276.6614
        41.0004         27.7504
  20242015.9824   -4302834.71149  -3350227.74248                  20242012.0314
        48.0004         41.5004
  20423867.3604   -2333631.41849  -1819826.37548                  20423863.4314
        51.0004         41.7504
  21368242.4084   -9617949.10549  -7487888.57047                  21368237.8884
        49.5004         39.2504
  22337138.3794    1062816.97349    824954.09847                  22337136.1134
        45.0004         33.5004
  23627685.7534    3613687.55949   2810735.19946                  23627683.4754
        42.0004         22.2504
  23712067.4874   -3707562.18749  -2982692.29346                  23712065.0184
        38.5004         23.5004
 04  6 29 15 47  0.0000000  0  9G 6G15G16G18G21G22G26G29G 3
  21883653.3554    6014427.59449   4677154.90647                  21883651.5954
        45.2504         36.0004
  21793297.4834   -8747274.78949  -6788695.52747                  21793294.8304
        44.7504         35.0004
  23206777.4774   -1043254.92249   -814022.81247                  23206775.6354
        41.2504         27.5004
  20240305.2774   -4311825.12549  -3357233.26248                  20240300.9714
        47.0004         41.7504
  20422719.6344   -2339659.77749  -1824523.80148                  20422715.8284
        50.5004         41.2504
  21361347.8124   -9654180.45349  -7516120.78548                  21361343.6204
        49.7504         39.5004
  22341125.7564    1083771.07849    841281.97347                  22341122.9874
        44.0004         33.0004
  23633096.0114    3642116.76649   2832887.78946                  23633093.4184
        41.7504         22.2504
  23701824.2644   -3761387.30149  -3024633.93446                  23701822.9034
        39.5004         24.2504
 04  6 29 15 47 15.0000000  0  9G 6G15G16G18G21G22G26G29G 3
  21890669.0394    6051296.89549   4705884.21947                  21890667.4264
        45.7504         35.5004
  21785928.2164   -8786001.19949  -6818871.96147                  21785925.7124
        46.0004         35.2504
  23208297.0794   -1035269.96949   -807800.77047                  23208295.7754
        39.5004         26.2504
  20238613.2234   -4320715.73449  -3364161.00848                  20238609.2224
        47.7504         42.0004
  20421583.3074   -2345634.23049  -1829179.23448                  20421578.7374
        50.5004         40.5004
  21354469.8954   -9690324.78949  -7544285.18048                  21354465.8074
        50.2504         39.5004
  22345140.2074    1104867.71949    857720.89147                  22345136.9944
        46.0004         32.0004
  23638523.8964    3670643.19549   2855116.14546                  23638521.7214
        41.0004         21.7504
  23691591.7574   -3815163.96149  -3066537.82846                  23691589.4884
        40.5004         25.2504
 04  6 29 15 47 30.0000000  0  9G 6G15G16G18G21G22G26G29G 3
  21897699.6324    6088242.00449   4734672.58247                  21897697.7144
        45.0004         35.5004
  21778562.9204   -8824706.53949  -6849031.96147                  21778560.1524
        46.5004         36.0004
  23209837.8774   -1027175.69949   -801493.52347                  23209835.8794
        41.0004         27.0004
  20236939.9984   -4329507.52749  -3371011.75848                  20236936.5454
        47.5004         42.0004
  20420456.4004   -2351556.10949  -1833793.67648                  20420451.9754
        50.7504         40.7504
  21347608.0464   -9726383.14849  -7572382.59048                  21347604.3264
        50.2504         39.5004
  22349181.4704    1126105.50849    874269.79747                  22349179.0404
        44.0004         32.5004
  23643970.6724    3699265.45349   2877419.21546                  23643968.8264
        41.5004         21.5004
  23681366.6174   -3868893.02349  -3108404.60946                  23681364.1054
        40.0004         24.7504
 04  6 29 15 47 45.0000000  0  9G 6G15G16G18G21G22G26G29G 3
  21904745.0884    6125265.07849   4763521.71947                  21904743.4444
        45.2504         35.7504
  21771201.8914   -8863388.48049  -6879173.72347                  21771199.3804
        46.2504         35.2504
  23211398.6724   -1018970.00049   -795099.49646                  23211395.8364
        42.2504         25.5004
  20235286.7704   -4338198.44549  -3377783.90248                  20235282.7134
        47.2504         41.5004
  20419339.9124   -2357422.78149  -1838365.10248                  20419336.2044
        50.7504         40.7504
  21340763.5244   -9762353.17649  -7600411.18447                  21340759.2144
        50.0004         39.2504
  22353250.1204    1147486.38749    890930.23447                  22353247.5434
        43.5004         32.0004
  23649436.5824    3727985.62149   2899798.52746                  23649433.9494
        40.0004         20.5004
  23671152.6364   -3922571.90249  -3150232.24246                  23671150.5864
        39.0004         23.7504
 04  6 29 15 48  0.0000000  0  9G 6G15G16G18G21G22G26G29G 3
  21911804.9044    6162364.40249   4792430.27747                  21911802.5164
        44.5004         35.2504
  21763844.7514   -8902048.21149  -6909298.17247                  21763842.1804
        46.0004         35.0004
  23212980.6084   -1010654.48449   -788619.89847                  23212977.1594
        43.5004         27.0004
  20233651.5094   -4346790.07449  -3384478.68048                  20233647.8844
        48.0004         41.2504
  20418233.8384   -2363235.55149  -1842894.53948                  20418229.8414
        51.0004         41.2504
  21333935.1244   -9798236.20349  -7628371.96548                  21333930.8904
        50.2504         39.7504
  22357345.5424    1169008.92249    907701.04347                  22357343.8804
        43.2504         32.7504
  23654919.3984    3756801.98049   2922252.84046                  23654917.8764
        40.2504         20.0004
  23660947.0984   -3976201.55949  -3192021.56247                  23660944.8624
        39.7504         25.7504
 04  6 29 15 48 15.0000000  0  9G 6G15G16G18G21G22G26G29G 3
  21918879.1274    6199541.05149   4821399.08647                  21918877.7954
        44.7504         35.0004
  21756492.6294   -8940684.51249  -6939404.37947                  21756489.8194
        46.0004         35.2504
  23214584.6764   -1002228.21149   -782053.98847                  23214581.0364
        43.0004         27.0004
  20232035.7874   -4355281.13349  -3391095.07848                  20232031.7204
        48.0004         41.5004
  20417138.4464   -2368993.28149  -1847381.08248                  20417134.2854
        50.5004         40.5004
  21327123.4634   -9834030.90249  -7656263.93048                  21327119.2264
        50.5004         39.5004
  22361468.8534    1190674.06349    924582.96547                  22361467.1634
        44.0004         34.0004
  23660421.0894    3785715.63749   2944782.98046                  23660420.3244
        38.5004         17.7504
  23650750.9484   -4029780.50049  -3233771.34446                  23650749.4504
        39.2504         25.2504
 04  6 29 15 48 30.0000000  0  9G 6G15G16G18G21G22G26G29G 3
  21925968.3924    6236795.07049   4850428.17247                  21925966.6834
        44.7504         34.7504
  21749145.5364   -8979297.05949  -6969492.07447                  21749142.4364
        45.0004         35.0004
  23216209.2974    -993691.16449   -775401.77747                  23216206.3474
        41.0004         28.0004
  20230438.9264   -4363671.46549  -3397633.00048                  20230434.7824
        47.0004         41.2504
  20416052.9724   -2374695.77049  -1851824.58248                  20416048.9854
        50.7504         40.5004
  21320328.6624   -9869737.03949  -7684086.87548                  21320324.7314
        50.0004         39.5004
  22365618.6164    1212481.85549    941576.02047                  22365616.1154
        43.7504         33.2504
  23665941.5184    3814726.51649   2967388.84046                  23665940.9294
        39.0004         18.2504
  23640565.5994   -4083307.97349  -3275481.04747                  23640563.0144
        40.0004         25.7504
 04  6 29 15 48 45.0000000  0  9G 6G15G16G18G21G22G26G29G 3
  21933072.7084    6274124.74649   4879516.20347                  21933070.0624
        45.0004         34.7504
  21741802.1504   -9017887.22349  -6999562.32047                  21741799.3004
        47.0004         35.5004
  23217854.5554    -985044.97349   -768664.49247                  23217852.7504
        40.5004         27.2504
  20228861.1664   -4371962.58249  -3404093.60548                  20228856.8004
        47.2504         41.0004
  20414978.0574   -2380344.11349  -1856225.89148                  20414973.7274
        51.0004         41.5004
  21313550.5974   -9905356.03149  -7711841.91447                  21313546.0614
        51.0004         39.2504
  22369795.4274    1234430.49649    958678.82847                  22369792.7674
        44.0004         32.0004
  23671480.9024    3843832.68049   2990068.94146                  23671479.3184
        39.2504         17.5004
  23630388.3564   -4136785.28549  -3317151.65246                  23630386.1374
        39.0004         23.0004
 04  6 29 15 49  0.0000000  0  9G 6G15G16G18G21G22G26G29G 3
  21940190.6414    6311531.44149   4908664.26247                  21940188.0634
        46.0004         34.5004
  21734463.2504   -9056453.12549  -7029613.65647                  21734460.6304
        46.7504         35.5004
  23219521.4484    -976288.23449   -761841.09847                  23219518.9814
        42.5004         27.0004
  20227302.5074   -4380153.05949  -3410475.80148                  20227298.6724
        47.0004         40.7504
  20413913.7094   -2385936.24649  -1860583.39848                  20413909.9624
        49.7504         41.5004
  21306789.5634   -9940886.11749  -7739527.68447                  21306784.7404
        50.2504         39.2504
  22373998.9564    1256521.36749    975892.46947                  22373995.8634
        44.0004         32.0004
  23677038.2354    3873036.00849   3012824.71546                  23677036.2214
        39.0004         17.7504
  23620222.1454   -4190210.41049  -3358781.60546                  23620219.3824
        38.7504         22.2504
 04  6 29 15 49 15.0000000  0  9G 6G15G16G18G21G22G26G29G 3
  21947323.8264    6349016.46549   4937873.35547                  21947321.2484
        46.0004         35.0004
  21727129.0214   -9094993.39549  -7059645.03547                  21727126.7284
        45.0004         35.5004
  23221208.2384    -967419.91849   -754930.74647                  23221205.7244
        39.5004         27.5004
  20225763.3904   -4388241.56649  -3416778.52348                  20225759.5704
        46.5004         41.5004
  20412860.6764   -2391471.03149  -1864896.21548                  20412856.7194
        50.5004         40.7504
  21300045.2994   -9976325.87149  -7767143.07047                  21300040.6444
        49.7504         38.5004
  22378229.9684    1278755.69549    993217.94947                  22378226.8184
        43.2504         30.7504
  23682613.4744    3902337.15249   3035656.77346                  23682612.3904
        38.0004         16.2504
  23610065.5264   -4243581.74249  -3400369.62146                  23610062.5344
        38.0004         22.5004
 04  6 29 15 49 30.0000000  0  9G 6G15G16G18G21G22G26G29G 3
  21954474.1774    6386592.46149   4967153.34047                  21954472.0584
        46.5004         34.2504
  21719802.1424   -9133494.86749  -7089646.17647                  21719799.9984
        47.5004         35.5004
  23222920.2394    -958426.96149   -747923.25047                  23222917.0494
        43.0004         26.7504
  20224246.1564   -4396215.24649  -3422991.78548                  20224242.2844
        47.0004         41.7504
  20411820.6594   -2396935.29349  -1869154.09448                  20411816.8864
        49.2504         41.0004
  21293320.6724  -10011662.17649  -7794677.83647                  21293316.5094
        49.7504         38.5004
  22382490.9404    1301146.21149   1010665.10247                  22382487.7644
        43.7504         31.5004
  23688211.1894    3931749.07449   3058575.18446                  23688208.7984
        39.0004         17.0004
  23599922.3084   -4296885.73049  -3441905.16046                  23599919.2374
        39.2504         22.5004
 04  6 29 15 49 45.0000000  0  9G 6G15G16G18G21G22G26G29G 3
  21961641.0154    6424256.98849   4996502.30547                  21961639.6964
        46.0004         35.0004
  21712482.8004   -9171959.75449  -7119618.80547                  21712479.8034
        46.7504         36.0004
  23224655.2644    -949311.98449   -740820.70747                  23224651.0844
        41.0004         28.2504
  20222750.5384   -4404076.46949  -3429117.41448                  20222746.5564
        47.0004         41.2504
  20410794.3734   -2402331.22349  -1873358.70748                  20410790.1554
        50.0004         41.2504
  21286616.1014  -10046897.25849  -7822133.72347                  21286611.8724
        50.0004         38.5004
  22386780.5904    1323690.47749   1028232.07047                  22386779.4524
        44.5004         32.7504
  23693829.0734    3961269.39549   3081577.95746                  23693825.4354
        37.2504         16.2504
  23589791.0584   -4350124.44149  -3483389.86346                  23589788.4154
        40.2504         22.2504
 04  6 29 15 50  0.0000000  0  9G 6G15G16G18G21G22G26G29G 3
  21968817.7764    6461965.21949   5025885.31347                  21968815.4334
        46.7504         34.7504
  21705161.3364   -9210432.55149  -7149597.61747                  21705158.3694
        47.2504         35.5004
  23226404.0224    -940119.92649   -733658.06647                  23226400.4124
        39.7504         27.5004
  20221267.0164   -4411869.97349  -3435190.27048                  20221263.3914
        47.5004         41.5004
  20409771.9334   -2407703.51249  -1877544.91048                  20409767.7384
        50.7504         41.0004
  21279922.0424  -10082075.62149  -7849545.42247                  21279917.2214
        49.5004         39.0004
  22391091.5314    1346343.50449   1045883.77347                  22391090.8844
        45.2504         34.0004
  23699457.5304    3990852.84849   3104629.97746                  23699454.9554
        37.0004         16.2504
  23579664.8634   -4403342.27349  -3524858.27046                  23579662.4834
        40.0004         24.2504
 04  6 29 15 50 15.0000000  0  9G 6G15G16G18G21G22G26G29G 3
  21976002.5584    6499724.36749   5055308.02747                  21976000.9074
        46.0004         34.5004
  21697840.4334   -9248905.82049  -7179576.75847                  21697837.6644
        46.7504         36.0004
  23228168.9404    -930843.62149   -726429.77747                  23228165.4704
        40.5004         26.5004
  20219798.4734   -4419588.44549  -3441204.66448                  20219794.3644
        47.2504         41.5004
  20408755.3274   -2413044.55949  -1881706.75048                  20408750.9294
        50.5004         41.0004
  21273239.6484  -10117189.83249  -7876907.13747                  21273235.5314
        49.5004         38.7504
  22395424.4594    1369112.53949   1063625.87947                  22395423.1814
        46.5004         33.7504
  23705101.2664    4020506.87148   3127736.92246                  23705098.2594
        35.2504         16.2504
  23569542.8664   -4456531.39049  -3566304.35546                  23569540.9304
        39.0004         24.2504
 04  6 29 15 50 30.0000000  0  9G 6G15G16G18G21G22G26G29G 3
  21983199.6514    6537543.89149   5084777.77047                  21983197.6224
        45.5004         33.7504
  21690521.2554   -9287369.70349  -7209548.62547                  21690518.3194
        47.2504         35.2504
  23229952.4204    -921473.43749   -719128.36347                  23229949.0034
        41.0004         28.0004
  20218345.6854   -4427222.02749  -3447152.91048                  20218341.5724
        46.2504         41.2504
  20407746.6084   -2418344.88749  -1885836.90248                  20407742.3704
        49.5004         40.5004
  21266571.9614  -10152230.17249  -7904211.29348                  21266567.7764
        48.5004         39.5004
  22399781.1004    1392007.04749   1081465.74247                  22399778.8944
        45.5004         33.7504
  23710759.3284    4050240.78548   3150906.21946                  23710756.4464
        35.5004         14.7504
  23559429.1504   -4509681.78149  -3607720.16846                  23559426.4714
        39.5004         24.7504
 04  6 29 15 50 45.0000000  0  9G 6G15G16G18G21G22G26G29G 3
  21990408.0694    6575429.54749   5114299.06347                  21990407.4434
        46.0004         33.5004
  21683204.7004   -9325818.11349  -7239508.42247                  21683201.9654
        47.2504         35.0004
  23231753.1834    -912003.62949   -711749.29347                  23231751.1494
        40.2504         26.7504
  20216910.0864   -4434765.06649  -3453030.59048                  20216906.1154
        47.2504         41.2504
  20406747.4004   -2423597.95349  -1889930.19948                  20406742.7204
        50.2504         41.0004
  21259919.3554  -10187190.49649  -7931453.09848                  21259915.1804
        49.7504         39.5004
  22404162.8134    1415032.75049   1099407.83247                  22404160.0604
        46.5004         33.2504
  23716432.5164    4080060.43048   3174142.29346                  23716431.4844
        33.0004         15.5004
  23549323.2214   -4562787.03949  -3649100.88746                  23549320.3494
        40.5004         24.2504
 04  6 29 15 51  0.0000000  0  9G 6G15G16G18G21G22G26G29G 3
  21997630.3164    6613381.91849   5143872.31347                  21997628.5574
        46.2504         33.5004
  21675891.1604   -9364250.17249  -7269455.46947                  21675888.1804
        48.2504         36.0004
  23233574.8654    -902433.71549   -704292.18746                  23233572.1604
        37.2504         25.2504
  20215491.9584   -4442216.84049  -3458837.17248                  20215488.2454
        47.5004         41.0004
  20405756.5954   -2428802.87549  -1893985.97348                  20405752.5144
        49.7504         41.5004
  21253282.0414  -10222069.96549  -7958631.88747                  21253277.6404
        49.5004         39.0004
  22408569.6884    1438190.29349   1117452.67647                  22408567.2494
        45.5004         33.0004
  23722124.1724    4109966.22348
        33.5004
  23539227.0674   -4615846.05149  -3690445.52746                  23539224.4294
        41.5004         24.5004
 04  6 29 15 51 15.0000000  0  9G 6G15G16G18G21G22G26G29G 3
  22004865.4404    6651402.38349   5173498.60947                  22004864.3054
        46.5004         34.2504
  21668580.9854   -9402664.09449  -7299388.39547                  21668578.0494
        47.5004         35.7504
  23235415.6274    -892762.13349   -696755.91847                  23235413.1834
        41.5004         26.7504
  20214092.0254   -4449575.76649  -3464571.40648                  20214087.8244
        46.7504         41.0004
  20404775.8064   -2433958.06649  -1898002.99648                  20404771.8114
        49.7504         41.0004
  21246659.8734  -10256867.00849  -7985746.45747                  21246655.4064
        48.5004         38.7504
  22413001.4034    1461480.88749   1135601.17647                  22412999.2194
        44.7504         32.5004
  23727832.5204    4139959.60548
        32.5004
  23529138.5194   -4668856.90249  -3731752.66446                  23529135.9134
        40.2504         22.5004
 04  6 29 15 51 30.0000000  0  9G 6G15G16G18G21G22G26G29G 3
  22311906.0314    6689488.11749   5203175.78947                  22311903.9234
        46.0004         34.7504
  21961066.9544   -9441057.35549  -7329305.19147                  21961065.2834
        48.2504         35.7504
  23537067.0414    -882990.07849   -689141.34847                  23537066.2644
        40.7504         26.2504
  20512502.0064   -4456841.72749  -3470233.19548                  20512497.6054
        48.0004         41.2504
  20703596.3764   -2439063.07049  -1901980.93048                  20703592.8554
        48.0004         40.5004
  21539847.0684  -10291579.24649  -8012794.94947                  21539842.2614
        47.7504         39.0004
  22717250.8524    1484902.70749   1153851.93447                  22717249.0344
        43.2504         32.0004
  24033348.5624    4170038.15248
        33.0004
  23818852.8054   -4721816.00049  -3773019.45746                  23818850.1304
        40.0004         21.7504
 04  6 29 15 51 45.0000000  0  9G 6G15G16G18G21G22G26G29G 3
  22319167.5304    6727645.29349   5232908.62547                  22319164.5634
        47.0004         35.0004
  21953764.6094   -9479433.67649  -7359208.80147                  21953762.1224
        47.5004         36.0004
  23538946.8654    -873115.06649   -681446.57847                  23538945.2254
        40.7504         26.5004
  20511136.8364   -4464014.27349  -3475822.18748                  20511133.1874
        48.0004         41.5004
  20702634.7534   -2444117.17649  -1905919.18748                  20702630.7714
        48.2504         39.7504
  21533257.2874  -10326209.89149  -8039779.87147                  21533252.5064
        49.0004         39.2504
  22721733.5914    1508459.93049   1172208.20747                  22721731.4934
        45.7504         32.2504
  24039089.8094    4200206.89848
        31.2504
  23808784.1984   -4774728.49649  -3814249.96946                  23808782.0544
        39.5004         23.0004
 04  6 29 15 52  0.0000000  0  9G 6G15G16G18G21G22G26G29G 3
  22326441.2814    6765872.15249   5262695.77047                  22326439.2054
        45.5004         34.2504
  21946465.8514   -9517789.31249  -7389096.32047                  21946463.5424
        47.5004         35.5004
  23540845.8794    -863136.94149   -673671.44547                  23540843.7114
        40.2504         28.0004
  20509789.9204   -4471092.09049  -3481337.37148                  20509786.4884
        48.5004         41.5004
  20701683.1114   -2449118.95749  -1909816.68448                  20701679.3474
        48.2504         40.5004
  21526683.2404  -10360755.60249  -8066698.59047                  21526678.5584
        49.0004         38.5004
  22726242.6794    1532151.90649   1190669.46147                  22726240.0054
        45.7504         32.2504
  24044847.1624    4230464.70348
        31.7504
  23798725.4324   -4827589.56649  -3855440.41046                  23798722.0644
        39.0004         21.0004
 04  6 29 15 52 15.0000000  0  9G 6G15G16G18G21G22G26G29G 3
  22333728.6994    6804168.85949   5292537.34447                  22333727.5564
        44.5004         34.2504
  21939171.0564   -9556123.94549  -7418967.43747                  21939168.3834
        49.0004         36.0004
  23542763.9364    -853055.51249   -665815.76647                  23542761.5404
        38.0004         26.5004
  20508461.3574   -4478074.92249  -3486778.54348                  20508457.4714
        46.2504         41.0004
  20700741.3454   -2454067.88349  -1913672.98448                  20700737.4774
        48.5004         41.0004
  21520125.7664  -10395215.99649  -8093550.84047                  21520121.1854
        49.5004         39.2504
  22730776.5764    1555978.59449   1209235.69947                  22730773.4294
        45.0004         32.0004
  24050621.5834    4260811.62148
        31.2504
  23788675.2984   -4880398.62949  -3896590.30946                  23788672.8874
        40.0004         22.0004
 04  6 29 15 52 30.0000000  0  9G 6G15G16G18G21G22G26G29G 3
  22341030.2684    6842536.71949   5322434.34047                  22341028.5104
        45.7504         34.2504
  21931880.3634   -9594435.84849  -7448820.84447                  21931877.8314
        48.7504         35.7504
  23544701.6034    -842869.66849   -657878.76647                  23544699.4974
        38.5004         26.0004
  20507150.7594   -4484961.25849  -3492144.52348                  20507147.1694
        47.5004         40.2504
  20699810.1464   -2458962.48049  -1917486.97348                  20699806.3134
        48.7504         41.2504
  21513584.6754  -10429589.40249  -8120335.30948                  21513580.4844
        48.2504         39.5004
  22735336.6534    1579941.26649   1227907.89547                  22735334.3114
        45.0004         33.2504
  24056414.3274    4291248.86348
        31.5004
  23778637.1194   -4933153.70749  -3937698.15246                  23778633.5574
        39.0004         21.7504
 04  6 29 15 52 45.0000000  0  9G 6G15G16G18G21G22G26G29G 3
  22348344.1574    6880973.85949   5352385.36347                  22348342.3634
        44.5004         34.5004
  21924593.6994   -9632726.53149  -7478657.73447                  21924591.3314
        48.7504         35.7504
  23546660.4604    -832581.08249   -649861.70347                  23546656.3344
        39.7504         25.7504
  20505858.3514   -4491752.89549  -3497436.70348                  20505853.9974
        48.2504         40.7504
  20698888.6574   -2463804.19949  -1921259.73048                  20698884.6134
        48.5004         41.0004
  21507060.3084  -10463877.40649  -8147053.23047                  21507055.1454
        48.5004         39.2504
  22739921.4384    1604038.16849   1246684.69947                  22739920.6634
        44.7504         32.5004
  24062223.1914    4321774.73048
        33.7504
  23768607.9984   -4985856.24649  -3978765.03946                  23768605.1014
        37.5004         21.5004
 04  6 29 15 53  0.0000000  0  9G 6G15G16G18G21G22G26G29G 3
  22355672.2704    6919482.05549   5382391.72347                  22355671.4734
        44.7504         34.5004
  21917311.7144   -9670993.84049  -7508476.42647                  21917309.1754
        47.5004         35.5004
  23548638.2214    -822188.04749   -641763.27347                  23548633.9734
        40.0004         27.0004
  20504584.1694   -4498447.85249  -3502653.55548                  20504579.7314
        47.7504         40.5004
  20697977.7044   -2468590.91049  -1924989.64148                  20697973.7254
        48.5004         40.5004
  21500551.8244  -10498077.96949  -8173703.00847                  21500547.1364
        49.7504         39.2504
  22744533.4284    1628270.91449   1265567.34447                  22744532.4614
        43.5004         33.0004
  24068050.8344    4352390.87148
        33.7504
  23758589.5464   -5038503.69549  -4019788.98446                  23758586.6694
        38.0004         21.0004
 04  6 29 15 53 15.0000000  0  9G 6G15G16G18G21G22G26G29G 3
  22363013.2904    6958059.59449   5412452.13747                  22363012.0874
        46.0004         34.5004
  21910034.0014   -9709239.24649  -7538278.02747                  21910031.7304
        48.0004         35.5004
  23550635.2394    -811692.48049   -633584.91047                  23550632.1014
        41.0004         26.7504
  20503328.6464   -4505048.05949  -3507796.56648                  20503324.8304
        47.5004         41.0004
  20697076.7674   -2473324.20349  -1928677.92648                  20697072.3554
        47.5004         41.0004
  21494060.2034  -10532192.72749  -8200285.93048                  21494055.1564
        49.5004         39.5004
  22749170.3164    1652637.63749   1284554.39547                  22749168.1444
        43.5004         31.7504
  24073889.9724    4383095.30948
        31.0004
  23748580.7914   -5091097.52049  -4060771.15246                  23748578.3294
        37.5004         21.7504
 04  6 29 15 53 30.0000000  0  9G 6G15G16G18G21G22G26G29G 3
  22370367.6314    6996705.69149   5442565.95747                  22370366.1804
        46.0004         34.5004
  21902760.1974   -9747463.09049  -7568062.83247                  21902758.0464
        49.0004         35.7504
  23552651.5444    -801095.08649   -625327.21547                  23552648.4714
        38.0004         26.2504
  20502090.3794   -4511553.82449  -3512866.00848                  20502086.6494
        48.5004         41.2504
  20696186.6814   -2478004.24649  -1932324.71548                  20696182.3944
        48.7504         41.0004
  21487584.4504  -10566221.94149  -8226802.19547                  21487579.5244
        49.5004         39.2504
  22753832.4274    1677137.78949   1303645.39547                  22753829.9484
        44.2504         31.5004
  24079750.9204    4413887.51648
        30.5004
  23738583.0944   -5143637.60249  -4101711.46146                  23738580.9014
        40.0004         22.7504
 04  6 29 15 53 45.0000000  0  9G 6G15G16G18G21G22G26G29G 3
  22377734.9034    7035421.72749   5472734.29747                  22377733.4184
        46.5004         35.0004
  21895491.5984   -9785663.46549  -7597829.34447                  21895488.8284
        48.5004         35.5004
  23554687.4464    -790394.13749   -616988.82447                  23554684.9594
        39.2504         27.5004
  20500870.4934   -4517963.66449  -3517860.68048                  20500866.7944
        47.7504         41.5004
  20695306.4914   -2482629.21949  -1935928.59048                  20695302.3674
        48.7504         41.2504
  21481125.4984  -10600163.87949  -8253250.44947                  21481120.7394
        50.2504         39.0004
  22758520.3054    1701772.71149   1322841.43047                  22758518.0754
        42.0004         31.0004
  24085628.9684    4444768.80148
        31.5004
  23728595.3314   -5196122.00049  -4142608.35546                  23728593.7554
        39.0004         22.2504
 04  6 29 15 54  0.0000000  0  9G 6G15G16G18G21G22G26G29G 3
  22385116.1454    7074207.07849   5502956.61347                  22385113.9074
        47.2504         35.2504
  21888225.6074   -9823840.92249  -7627578.00847                  21888224.1574
        48.0004         35.2504
  23556743.5944    -779590.67249   -608570.58647                  23556740.5454
        40.0004         26.5004
  20499669.1034   -4524278.31649  -3522781.18748                  20499665.0094
        48.5004         41.2504
  20694436.4964   -2487199.91849  -1939490.17648                  20694431.9534
        48.2504         41.2504
  21474682.6614  -10634018.98049  -8279631.03947                  21474678.0024
        48.5004         39.0004
  22763233.5864    1726541.57449   1342141.80947                  22763231.7194
        43.5004         30.0004
  24091521.8294    4475738.23848
        33.0004
  23718618.9994   -5248550.98449  -4183462.12546                  23718615.1824
        39.0004         22.0004
 04  6 29 15 54 15.0000000  0  9G 6G15G16G18G21G22G26G29G 3
  22392509.3994    7113059.68049   5533231.34447                  22392507.0144
        47.5004         34.5004
  21880964.9834   -9861997.19549  -7657310.15647                  21880962.9174
        47.7504         35.5004
  23558818.8434    -768686.73449   -600074.01647                  23558815.3484
        39.7504         27.0004
  20498485.0124   -4530499.68449  -3527629.00848                  20498481.0394
        49.0004         41.5004
  20693576.6394   -2491717.92249  -1943010.70348                  20693572.3404
        48.2504         41.0004
  21468256.7394  -10667789.03949  -8305945.35948                  21468252.2054
        49.2504         39.5004
  22767971.3414    1751442.38749   1361545.03947                  22767970.0204
        42.0004         29.5004
  24097432.0564    4506793.94958
        32.5004
  23708652.3744   -5300926.08249  -4224273.85246                  23708648.8404
        39.5004         21.7504
 04  6 29 15 54 30.0000000  0  9G 6G15G16G18G21G22G26G29G 3
  22399915.4704    7151980.32849   5563559.09847                  22399913.4094
        47.0004         34.0004
  21873708.5424   -9900131.02049  -7687024.81647                  21873705.7904
        47.5004         35.7504
  23560913.2214    -757681.34049   -591498.42647                  23560910.2414
        40.7504         26.5004
  20497318.9014   -4536626.62549  -3532403.24248                  20497315.2284
        48.0004         41.2504
  20692727.2464   -2496181.75049  -1946489.01648                  20692722.5174
        49.0004         40.5004
  21461847.6634  -10701472.88749  -8332192.51647                  21461842.2104
        49.5004         39.2504
  22772735.8554    1776475.83249   1381051.60547                  22772733.9544
        42.7504         31.0004
  24103357.9134    4537936.64848
        30.5004
  23698696.3024   -5353245.81249  -4265042.46946                  23698693.0434
        39.2504         22.2504
 04  6 29 15 54 45.0000000  0  9G 6G15G16G18G21G22G26G29G 3
  22407334.3284    7190968.95349   5593939.82047                  22407332.4324
        46.5004         33.2504
  21866456.3994   -9938242.19549  -7716721.83247                  21866453.8244
        48.2504         36.0004
  23563026.6094    -746574.61749   -582843.87147                  23563023.3384
        40.0004         26.7504
  20496171.1524   -4542659.14549  -3537103.92248                  20496167.7274
        48.7504         41.0004
  20691888.2584   -2500591.27049  -1949925.00048                  20691883.4114
        48.7504         41.0004
  21455453.7254  -10735070.41849  -8358372.40647                  21455449.0544
        48.7504         38.5004
  22777524.5584    1801641.88749   1400661.51247                  22777523.0084
        42.7504         32.5004
  24109299.3204    4569166.26658
        30.2504
  23688750.5034   -5405509.72749  -4305767.56246                  23688747.1084
        39.7504         22.0004
 04  6 29 15 55  0.0000000  0  9G 6G15G16G18G21G22G26G29G 3
  22414767.4364    7230026.44149   5624374.18447                  22414764.9444
        47.0004         33.2504
  21859207.8894   -9976329.46949  -7746400.22747                  21859205.7474
        48.5004         35.5004
  23565159.5024    -735365.76649   -574109.70747                  23565156.8524
        39.2504         26.5004
  20495041.0544   -4548596.44549  -3541730.37948                  20495037.5504
        48.7504         41.2504
  20691059.4964   -2504945.43049  -1953317.85948                  20691055.3504
        49.5004         41.0004
  21449077.1624  -10768580.48449  -8384484.14147                  21449072.6164
        50.0004         39.2504
  22782339.7614    1826941.40249   1420375.43847                  22782337.8784
        44.5004         34.0004
  24115260.1224    4600483.55148
        31.7504
  23678816.8034   -5457716.40649  -4346448.10246                  23678812.3704
        41.5004         22.2504
 04  6 29 15 55 15.0000000  0  9G 6G15G16G18G21G22G26G29G 3
  22422212.0114    7269151.91049   5654861.52747                  22422210.4704
        46.5004         33.0004
  21851964.8134  -10014393.44949  -7776060.44947                  21851962.4714
        48.2504         36.0004
  23567311.5924    -724055.75049   -565296.71146                  23567309.2254
        38.0004         25.5004
  20493929.5284   -4554439.26249  -3546283.23048                  20493925.9424
        48.7504         41.7504
  20690241.7304   -2509244.71949  -1956667.96148                  20690237.6514
        47.5004         40.7504
  21442716.9904  -10802003.74649  -8410528.23047                  21442711.2824
        48.7504         39.0004
  22787179.1174    1852373.42649   1440192.59047                  22787177.3794
        42.7504         33.2504
  24121234.3684    4631887.64848
        31.7504
  23668892.6984   -5509866.22749  -4387084.26646                  23668889.7644
        40.7504         22.2504
 04  6 29 15 55 30.0000000  0  9G 6G15G16G18G21G22G26G29G 3
  22429671.0654    7308345.42249   5685401.91047                  22429668.9504
        46.2504         33.2504
  21844726.7024  -10052433.60949  -7805702.14147                  21844723.8914
        48.5004         35.5004
  23569483.1994    -712644.44549   -556404.77746                  23569479.6574
        39.5004         24.0004
  20492835.9064   -4560187.26649  -3550762.19548                  20492831.9404
        49.0004         42.0004
  20689434.1254   -2513488.68449  -1959974.95348                  20689430.0974
        49.5004         41.0004
  21436372.9924  -10835339.71149  -8436504.29747                  21436367.9724
        49.0004         39.2504
  22792043.1904    1877937.96549   1460112.98447                  22792041.4634
        44.0004         33.0004
  24127226.8294    4663378.60258
        30.2504
  23658979.5584   -5561958.30549  -4427675.51646                  23658976.4704
        41.0004         22.2504
 04  6 29 15 55 45.0000000  0  9G 6G15G16G18G21G22G26G29G 3
  22437141.9284    7347606.76249   5715995.13347                  22437140.6754
        46.7504         33.5004
  21837492.2064  -10090449.91449  -7835325.21547                  21837489.5714
        48.0004         35.0004
  23571674.1814    -701132.00449   -547434.06647                  23571670.4044
        40.5004         27.0004
  20491760.1744   -4565840.52749  -3555167.32848                  20491756.2084
        49.0004         42.0004
  20688636.9514   -2517677.34049  -1963238.84448                  20688633.0754
        49.5004         40.7504
  21430045.9434  -10868588.39549  -8462412.35247                  21430041.0494
        49.5004         39.0004
  22796933.5334    1903634.82449   1480136.52747                  22796931.2504
        43.2504         31.7504
  24133236.9294    4694956.06648
        32.0004
  23649078.0714   -5613992.50849  -4468221.62946                  23649074.5534
        39.5004         22.2504
 04  6 29 15 56  0.0000000  0  9G 6G15G16G18G21G22G26G29G 3
  22444626.0174    7386935.17249   5746640.62547                  22444624.3274
        46.0004         33.2504
  21830262.2324  -10128442.83249  -7864930.08647                  21830259.3264
        48.7504         36.0004
  23573884.7424    -689519.29349   -538385.23047                  23573880.6074
        41.5004         27.0004
  20490702.0104   -4571399.66049  -3559499.12948                  20490698.5084
        48.7504         42.0004
  20687850.3984   -2521811.02349  -1966459.90248                  20687846.1684
        48.7504         41.0004
  21423735.6744  -10901750.26249  -8488252.76647                  21423730.6284
        49.5004         39.2504
  22801848.0794    1929463.14549   1500262.46947                  22801845.5844
        44.2504         30.7504
  24139262.4704    4726619.36748
        32.0004
  23639186.4784   -5665968.97749  -4508722.71546                  23639184.2684
        39.7504         21.7504
 04  6 29 15 56 15.0000000  0  9G 6G15G16G18G21G22G26G29G 3
  22452122.3274    7426331.60249   5777339.12947                  22452121.0844
        45.2504         33.0004
  21823037.1274  -10166411.09849  -7894515.72747                  21823034.2994
        49.0004         36.0004
  23576113.9364    -677805.32049   -529257.48047                  23576109.9774
        43.5004         25.7504
  20489662.3864   -4576863.75049  -3563756.85548                  20489658.6664
        49.7504         42.0004
  20687074.2814   -2525888.64849  -1969637.27748                  20687070.0874
        50.0004         41.0004
  21417441.4854  -10934824.05549  -8514024.54348                  21417437.3064
        49.5004         39.7504
  22806788.3454    1955423.84449   1520491.58247                  22806785.5954
        44.0004         30.2504
  24145305.4294    4758369.32048
        33.7504
  23629307.7804   -5717886.28949  -4549177.71946                  23629304.5454
        41.5004         22.2504
 04  6 29 15 56 30.0000000  0  9G 6G15G16G18G21G22G26G29G 3
  22459632.4434    7465795.28949   5808090.04747                  22459630.2354
        44.7504         32.7504
  21815816.3024  -10204355.05149  -7924082.43747                  21815814.1474
        48.5004         35.7504
  23578361.8984    -665990.89849   -520051.47747                  23578358.3534
        43.2504         26.2504
  20488640.4134   -4582233.53549  -3567941.10948                  20488636.6664
        49.2504         41.7504
  20686309.0424   -2529910.34849  -1972771.07048                  20686304.8044
        49.5004         41.0004
  21411164.3804  -10967810.33649  -8539728.13347                  21411159.9754
        50.0004         39.0004
  22811753.4474    1981516.10249   1540823.20747                  22811751.6634
        45.2504         31.5004
  24151364.8884    4790205.15648
        32.5004
  23619438.0384   -5769744.62149  -4589586.81246                  23619435.8884
        40.2504         22.5004
 04  6 29 15 56 45.0000000  0  9G 6G15G16G18G21G22G26G29G 3
  22467154.7004    7505325.33649   5838892.64847                  22467152.7934
        46.0004         33.0004
  21808600.1704  -10242275.19549  -7953630.59847                  21808598.6544
        48.7504         36.7504
  23580628.7684    -654076.92649   -510767.85547                  23580625.0674
        41.2504         27.2504
  20487636.7474   -4587509.58249  -3572052.30548                  20487632.9894
        49.2504         42.0004
  20685554.4494   -2533876.64149  -1975861.69148                  20685550.0284
        49.5004         40.5004
  21404903.8064  -11000709.62949  -8565363.93047                  21404899.3464
        49.7504         39.2504
  22816744.1274    2007739.04349   1561256.65247                  22816741.6524
        44.5004         29.5004
  24157436.4754    4822125.97758
        28.5004
  23609581.1074   -5821544.21549  -4629950.14546                  23609578.8584
        40.2504         21.7504
 04  6 29 15 57  0.0000000  0  8G 6G15G16G18G21G22G26G 3
  22474690.2214    7544923.95749   5869748.69147                  22474688.2194
        45.2504         32.7504
  21801389.7864  -10280169.01649  -7983158.24247                  21801387.5914
        48.7504         36.5004
  23582915.7424    -642061.28549   -501405.03947                  23582912.2064
        41.0004         27.2504
  20486650.8304   -4592689.62549  -3576088.71548                  20486647.1564
        49.0004         42.0004
  20684810.5394   -2537785.17649  -1978907.30548                  20684806.5374
        49.2504         41.2504
  21398660.3474  -11033519.53149  -8590930.07848                  21398655.8724
        49.0004         39.5004
  22821759.4494    2034094.81349   1581793.59847                  22821756.8744
        45.5004         29.7504
  23599736.4144   -5873282.36349  -4670265.53946                  23599733.5644
        40.7504         21.7504
 04  6 29 15 57 15.0000000  0  8G 6G15G16G18G21G22G26G 3
  22482238.3304    7584589.18049   5900656.64147                  22482236.2104
        45.5004         32.5004
  21794183.6434  -10318038.07049  -8012666.59447                  21794180.8914
        49.2504         36.5004
  23585220.5634    -629945.93049   -491964.51247                  23585217.8454
        41.0004         25.7504
  20485683.3084   -4597775.52749  -3580051.75448                  20485679.7084
        47.7504         41.7504
  20684077.5604   -2541637.35949  -1981908.99248                  20684073.1164
        49.2504         41.2504
  21392433.3004  -11066241.58649  -8616427.77348                  21392428.9664
        48.7504         40.0004
  22826799.8494    2060581.40249   1602432.46147                  22826797.2874
        45.0004         30.5004
  23589901.6684   -5924960.47749  -4710534.16446                  23589899.3034
        41.5004         25.5004
 04  6 29 15 57 30.0000000  0  8G 6G15G16G18G21G22G26G 3
  22489799.2464    7624320.51249   5931616.09447                  22489797.4464
        45.5004         32.7504
  21786981.8584  -10355882.55949  -8042155.79347                  21786979.1394
        49.5004         36.0004
  23587544.8264    -617731.30949   -482446.60247                  23587542.1344
        40.7504         28.0004
  20484733.3354   -4602767.51249  -3583941.61748                  20484729.1764
        47.7504         41.7504
  20683354.8994   -2545433.52349  -1984867.04348                  20683350.9684
        50.0004         41.2504
  21386223.8764  -11098876.07849  -8641857.24248                  21386219.0984
        49.7504         39.5004
  22831864.5094    2087198.28149   1623172.89147                  22831863.4854
        43.0004         31.0004
  23580079.9734   -5976578.32849  -4750755.87946                  23580077.1004
        41.5004         24.5004
 04  6 29 15 57 45.0000000  0  8G 6G15G16G18G21G22G26G 3
  22497372.1034    7664118.57049   5962627.56347                  22497371.2874
        45.0004         33.0004
  21779785.8344  -10393701.46549  -8071625.06647                  21779782.6354
        49.5004         37.0004
  23589888.6924    -605416.92649   -472850.98847                  23589886.2164
        42.5004         26.7504
  20483801.1424   -4607664.97349  -3587757.80948                  20483797.0674
        48.7504         41.7504
  20682643.0614   -2549172.87149  -1987780.80948                  20682639.7704
        49.2504         41.5004
  21380030.5854  -11131422.18449  -8667217.83648                  21380026.1544
        50.0004         39.7504
  22836954.0514    2113946.03549   1644015.28547                  22836952.7834
        40.7504         29.5004
  23570269.2924   -6028134.83249  -4790929.74646                  23570266.7324
        43.2504         25.2504
 04  6 29 15 58  0.0000000  0  8G 6G15G16G18G21G22G26G 3
  22504958.2584    7703983.63749   5993691.23847                  22504957.2084
        46.0004         32.5004
  21772593.1404  -10431493.99249  -8101073.78147                  21772590.2844
        49.7504         36.2504
  23592251.1894    -593002.25449   -463177.24647                  23592248.7664
        41.5004         27.0004
  20482886.8524   -4612467.35949  -3591499.93048                  20482883.3114
        49.0004         42.2504
  20681942.5564   -2552854.45349  -1990649.58248                  20681938.9674
        50.7504         41.2504
  21373854.1204  -11163879.12949  -8692508.95348                  21373849.4474
        49.5004         39.7504
  22842069.0214    2140824.98049   1664959.90247                  22842066.4124
        42.5004         29.0004
  23560470.2614   -6079629.04349  -4831055.10546                  23560466.8944
        43.0004         22.2504
 04  6 29 15 58 15.0000000  0  8G 6G15G16G18G21G22G26G 3
  22512556.8654    7743916.19149   6024807.50847                  22512556.0894
        45.7504         33.0004
  21765407.1904  -10469259.57449  -8130501.50047                  21765403.3834
        49.5004         35.5004
  23594632.6814    -580487.05149   -453425.14547                  23594630.4724
        40.5004         27.0004
  20481991.6594   -4617174.28549  -3595167.68048                  20481987.8654
        49.0004         42.0004
  20681253.3274   -2556477.73449  -1993472.91848                  20681249.6164
        50.2504         41.2504
  21367694.8534  -11196246.38349  -8717730.18748                  21367690.4344
        50.5004         40.2504
  22847208.9924    2167835.46149   1686007.00447                  22847206.5284
        42.7504         28.7504
  23550682.3094   -6131060.06249  -4871131.19946                  23550679.6964
        41.5004         22.2504
 04  6 29 15 58 30.0000000  0  8G 6G15G16G18G21G22G26G 3
  22520168.3924    7783915.12149   6055975.48447                  22520166.7064
        45.2504         32.5004
  21758224.9794  -10506999.14549  -8159908.96547                  21758222.2624
        49.0004         37.0004
  23597032.3564    -567872.66849   -443595.76247                  23597030.0134
        39.7504         26.5004
  20481113.8974   -4621786.83649  -3598761.86748                  20481110.1704
        48.0004         42.0004
  20680574.7654   -2560043.68449  -1996251.58248                  20680571.1674
        50.2504         41.2504
  21361552.4944  -11228524.93749  -8742882.29348                  21361547.0554
        50.7504         40.0004
  22852373.4314    2194976.10249   1707155.54347                  22852371.9034
        43.5004         29.2504
  23540908.2284   -6182428.54749  -4911158.55946                  23540904.9864
        42.0004         24.7504
 04  6 29 15 58 45.0000000  0  8G 6G15G16G18G21G22G26G 3
  22527792.8234    7823980.14149   6087194.95747                  22527790.8264
        45.5004         32.5004
  21751049.0514  -10544712.21549  -8189295.75447                  21751045.7524
        50.0004         36.5004
  23599451.1694    -555158.95749   -433688.98047                  23599449.9294
        40.5004         27.0004
  20480254.4954   -4626304.98849  -3602282.51248                  20480250.2754
        45.7504         42.5004
  20679907.0624   -2563551.65249  -1998985.05948                  20679903.4844
        48.5004         41.2504
  21355427.0364  -11260714.47749  -8767965.03948                  21355422.1754
        50.2504         40.2504
  22857563.4024    2222246.91449   1728405.53547                  22857561.5354
        43.2504         29.2504
  23531143.8424   -6233733.93449  -4951136.79346                  23531141.5884
        40.2504         22.2504
 04  6 29 15 59  0.0000000  0  8G 6G15G16G18G21G22G26G 3
  22535429.6124    7864111.35949   6118466.01247                  22535427.6094
        46.0004         33.2504
  21743877.6654  -10582398.54349  -8218661.73447                  21743875.0464
        49.0004         36.5004
  23601890.2454    -542346.22349   -423705.08246                  23601888.1034
        42.0004         25.5004
  20479412.2014   -4630728.59049  -3605729.47348                  20479408.2994
        48.5004         42.2504
  20679251.0074   -2567001.35549  -2001673.14848                  20679246.8674
        50.5004         41.0004
  21349318.3514  -11292814.75449  -8792978.23448                  21349313.5984
        51.0004         40.5004
  22862777.6334    2249647.86749   1749756.93847                  22862775.5264
        44.2504         29.2504
  23521393.4304   -6284975.62949  -4991065.34446                  23521391.0564
        42.0004         22.2504
 04  6 29 15 59 15.0000000  0  8G 6G15G16G18G21G22G26G 3
  22543078.0044    7904307.73849   6149787.83247                  22543076.1354
        43.7504         31.7504
  21736710.8574  -10620058.66849  -8248007.27047                  21736707.9514
        49.5004         36.2504
  23604346.8034    -529435.27349   -413644.62547                  23604344.0904
        41.7504         26.7504
  20478588.1524   -4635058.43449  -3609103.37548                  20478584.5324
        48.7504         41.7504
  20678605.5454   -2570393.48449  -2004316.36748                  20678601.3504
        51.5004         41.7504
  21343226.8294  -11324826.47349  -8817922.41848                  21343222.0044
        51.0004         40.5004
  22868016.2644    2277177.83649   1771208.84847                  22868014.2564
        44.0004         28.0004
  23511654.7494   -6336154.09849  -5030944.62546                  23511652.4134
        41.0004         23.0004
 04  6 29 15 59 30.0000000  0  8G 6G15G16G18G21G22G26G 3
  22550740.2954    7944568.85549   6181160.12547                  22550738.2284
        46.0004         32.7504
  21729549.3614  -10657692.75449  -8277332.53147                  21729546.6344
        49.2504         37.0004
  23606822.9064    -516426.65249   -403508.04746                  23606819.1104
        40.0004         25.2504
  20477782.4714   -4639294.98449  -3612404.59048                  20477778.5764
        48.2504         42.0004
  20677970.8704   -2573728.30149  -2006914.92248                  20677966.4204
        51.2504         40.5004
  21337152.1674  -11356749.82049  -8842797.75448                  21337147.5254
        51.0004         40.0004
  22873279.3194    2304836.42249   1792760.96147                  22873277.2734
        43.5004         28.5004
  23501926.7164   -6387269.21949  -5070774.57046                  23501924.5714
        40.7504         24.7504
 04  6 29 15 59 45.0000000  0  8G 6G15G16G18G21G22G26G 3
  22558413.9644    7984894.64149   6212582.77047                  22558412.2674
        45.5004         33.0004
  21722392.8134  -10695300.43449  -8306637.22747                  21722390.3114
        49.5004         36.5004
  23609316.2854    -503320.40649   -393295.42246                  23609314.2844
        40.5004         25.5004
  20476993.5494   -4643438.20749  -3615633.08248                  20476990.3524
        48.5004         42.0004
  20677346.6574   -2577005.49649  -2009468.57848                  20677342.5374
        50.7504         40.0004
  21331093.6194  -11388584.46549  -8867603.96148                  21331089.5704
        50.7504         40.5004
  22878567.6914    2332623.49649   1814413.21947                  22878564.9364
        44.2504         29.5004
  23492211.9484   -6438320.53149  -5110554.78146                  23492209.7644
        40.5004         22.5004
 04  6 29 16  0  0.0000000  0  8G 6G15G16G18G21G22G26G 3
  22566100.5794    8025286.18049   6244056.67647                  22566097.7074
        45.2504         33.0004
  21715241.7844  -10732880.34849  -8335920.25047                  21715238.8024
        50.7504         37.5004
  23611829.3794    -490115.40249   -383005.82446                  23611827.6524
        41.7504         25.5004
  20476223.3464   -4647486.83249  -3618787.85548                  20476219.6224
        48.5004         42.0004
  20676734.6164   -2580223.60249  -2011976.19948                  20676730.4134
        52.0004         41.0004
  21325053.2994  -11420329.18449  -8892340.10548                  21325048.6824
        50.2504         39.7504
  22883879.4274    2360540.04749   1836166.35247                  22883877.3044
        42.2504         29.5004
  23482510.2104   -6489306.37549  -5150284.00046                  23482508.2244
        40.7504         23.0004
 04  6 29 16  0 15.0000000  0  8G 6G15G16G18G21G22G26G 3
  22573799.5984    8065743.68049   6275581.96947                  22573797.6364
        46.0004         32.2504
  21708095.9154  -10770431.95349  -8365181.23047                  21708093.1664
        49.0004         37.0004
  23614360.6564    -476811.60549   -372639.23447                  23614359.1564
        42.0004         26.2504
  20475470.8294   -4651440.68449  -3621868.77748                  20475467.2454
        49.2504         42.0004
  20676133.6694   -2583382.18049  -2014437.44548                  20676129.7494
        51.0004         41.5004
  21319029.5234  -11451983.57449  -8917005.85948                  21319025.0954
        51.5004         40.2504
  22889216.4794    2388586.09449   1858020.39147                  22889215.0114
        45.0004         31.2504
  23472821.1234   -6540225.95749  -5189961.55946                  23472818.3884
        41.2504         22.7504
 04  6 29 16  0 30.0000000  0  8G 6G15G16G18G21G22G26G 3
  22581509.7544    8106264.26649   6307156.42647                  22581508.1794
        44.7504         32.7504
  21700954.8644  -10807957.73049  -8394422.09047                  21700952.0574
        49.7504         37.0004
  23616911.7154    -463411.93049   -362197.95747                  23616908.4234
        42.5004         27.0004
  20474736.3894   -4655302.21549  -3624877.76648                  20474732.7444
        49.7504         42.2504
  20675543.8304   -2586483.63749  -2016854.16848                  20675539.7804
        51.7504         41.5004
  21313022.5614  -11483550.10549  -8941603.14148                  21313017.5454
        50.7504         40.5004
  22894577.9754    2416758.87549   1879973.20747                  22894576.0084
        44.7504         31.7504
  23463142.9934   -6591081.59449  -5229589.27346                  23463141.5694
        40.5004         22.5004
 04  6 29 16  0 45.0000000  0  8G 6G15G16G18G21G22G26G 3
  22589232.7814    8146849.53149   6338781.28947                  22589231.1304
        45.0004         31.5004
  21693819.2984  -10845455.68049  -8423641.26247                  21693816.9414
        49.5004         36.5004
  23619478.9424    -449914.58649   -351680.60247                  23619476.5884
        41.5004         26.2504
  20474018.7554   -4659069.60249  -3627813.38748                  20474015.3564
        49.0004         42.2504
  20674964.5554   -2589525.99649  -2019224.83648                  20674960.7394
        51.0004         41.2504
  21307032.6704  -11515026.76649  -8966130.39548                  21307027.9864
        50.7504         40.5004
  22899963.4564    2445060.07049   1902026.05947                  22899962.4254
        45.0004         32.0004
  23453478.0304   -6641870.78549  -5269165.25446                  23453476.5564
        41.2504         24.5004
 04  6 29 16  1  0.0000000  0  8G 6G15G16G18G21G22G26G 3
  22596968.0204    8187499.21149   6370456.32847                  22596967.7564
        44.7504         32.2504
  21686688.6254  -10882925.80549  -8452838.75047                  21686685.9224
        49.7504         36.5004
  23622065.9004    -436320.13349   -341087.57046                  23622062.9514
        40.5004         24.2504
  20473320.1114   -4662743.46949  -3630676.14548                  20473316.4414
        49.5004         41.7504
  20674396.6944   -2592509.35549  -2021549.53148                  20674392.7204
        51.0004         40.7504
  21301060.2204  -11546413.81249  -8990587.82848                  21301054.6894
        51.2504         40.0004
  22905373.1884    2473489.12549   1924178.55947                  22905372.0734
        46.0004         31.2504
  23443826.1124   -6692593.75449  -5308689.59446                  23443824.2934
        41.0004         24.7504
 04  6 29 16  1 15.0000000  0  8G 6G15G16G18G21G22G26G 3
  22604716.0754    8228213.84049   6402182.00047                  22604713.8904
        44.0004         31.2504
  21679563.5124  -10920367.21549  -8482013.85947                  21679560.8774
        49.0004         36.5004
  23624671.5824    -422628.03149   -330418.40647                  23624668.6304
        40.5004         25.7504
  20472639.3844   -4666322.89149  -3633465.30948                  20472635.2564
        49.5004         42.0004
  20673840.8174   -2595432.60249  -2023827.39148                  20673836.1684
        51.5004         41.0004
  21295104.2034  -11577710.39549  -9014974.77347                  21295099.5434
        50.5004         39.2504
  22910807.6024    2502046.60249   1946431.12147                  22910806.1164
        45.5004         31.0004
  23434186.6644   -6743249.13349  -5348161.30146                  23434185.1844
        42.7504         25.5004
 04  6 29 16  1 30.0000000  0  8G 6G15G16G18G21G22G26G 3
  22612475.9604    8268991.70349   6433956.92647                  22612474.1514
        44.5004         32.2504
  21672444.5234  -10957781.17249  -8511167.59047                  21672441.5844
        48.5004         36.0004
  23627296.1254    -408839.92249   -319674.44946                  23627293.0494
        40.0004         25.2504
  20471975.7044   -4669809.44149  -3636182.09448                  20471972.0224
        48.7504         42.2504
  20673295.3784   -2598297.23849  -2026059.56648                  20673291.2424
        51.5004         41.2504
  21289165.9614  -11608917.94949  -9039292.34448                  21289160.9774
        51.2504         39.5004
  22916265.9914    2530730.73449   1968782.38747                  22916263.9974
        45.0004         31.2504
  23424559.9314   -6793838.15249  -5387581.30946                  23424557.3054
        43.0004         24.5004
 04  6 29 16  1 45.0000000  0  8G 6G15G16G18G21G22G26G 3
  22620247.1584    8309831.44949   6465780.07847                  22620245.5714
        45.2504         32.0004
  21665329.6724  -10995168.55949  -8540300.62547                  21665326.9104
        49.5004         36.5004
  23629937.2274    -394957.09449   -308856.66847                  23629934.7724
        40.2504         25.7504
  20471329.5354   -4673204.36749  -3638827.48448                  20471325.7364
        49.2504         42.5004
  20672761.2124   -2601104.39149  -2028246.96948                  20672756.9974
        51.5004         40.5004
  21283243.8774  -11640037.43049  -9063541.28147                  21283239.1094
        50.0004         39.0004
  22921748.0654    2559540.12949   1991231.23447                  22921746.2704
        44.5004         31.2504
  23414946.4244   -6844361.39149  -5426950.04747                  23414943.1694
        44.0004         26.5004
 04  6 29 16  2  0.0000000  0  8G 6G15G16G18G21G22G26G 3
  22628030.9734    8350732.82449   6497651.25847                  22628029.2304
        45.0004         32.5004
  21658220.3434  -11032529.37949  -8569412.93747                  21658217.2254
        50.0004         37.2504
  23632597.0944    -380979.80149   -297965.28147                  23632594.3814
        41.7504         26.0004
  20470700.2774   -4676507.93749  -3641401.70348                  20470696.8584
        48.2504         41.7504
  20672237.9144   -2603853.72349  -2030389.31648                  20672234.3714
        50.7504         40.5004
  21277339.0224  -11671068.81649  -9087721.58247                  21277333.8914
        51.0004         39.2504
  22927254.8444    2588474.52749   2013777.47347                  22927252.7224
        44.5004         30.5004
  23405342.9844   -6894818.70749  -5466267.42246                  23405341.8214
        43.5004         25.5004
 04  6 29 16  2 15.0000000  0  8G 6G15G16G18G21G22G26G 3
  22635825.8564    8391696.25049   6529570.78947                  22635824.9084
        45.0004         32.5004
  21651115.8194  -11069862.92249  -8598504.00047                  21651112.8554
        50.0004         36.7504
  23635275.7854    -366907.78949   -287000.11747                  23635272.7544
        42.2504         26.5004
  20470089.3614   -4679719.56249  -3643904.27348                  20470085.6624
        48.7504         42.0004
  20671726.3064   -2606544.47749  -2032486.00848                  20671722.0464
        51.2504         41.0004
  21271450.5824  -11702011.52049  -9111832.76648                  21271446.0144
        51.0004         39.7504
  22932783.8914    2617534.19949   2036421.34847                  22932782.2214
        44.2504         29.7504
  23395755.3124   -6945208.99249  -5505532.64147                  23395752.3014
        44.2504         26.5004
 04  6 29 16  2 30.0000000  0  8G 6G15G16G18G21G22G26G 3
  22643633.1134    8432720.91449   6561538.03947                  22643631.2604
        47.0004         31.5004
  21644016.0634  -11107169.54749  -8627574.09847                  21644013.5464
        49.0004         36.2504
  23637972.0884    -352742.02349   -275961.89547                  23637968.2544
        41.0004         26.0004
  20469495.7564   -4682840.03949  -3646335.80548                  20469491.9334
        48.5004         42.0004
  20671224.8114   -2609177.15249  -2034537.43448                  20671221.6554
        51.5004         40.7504
  21265579.2104  -11732866.19149  -9135875.35248                  21265574.7514
        50.7504         39.7504
  22938337.3254    2646718.25049   2059162.16447                  22938336.2104
        44.2504         29.5004
  23386178.9234   -6995532.75849  -5544745.91047                  23386176.8314
        42.7504         26.7504
 04  6 29 16  2 45.0000000  0  8G 6G15G16G18G21G22G26G 3
  22651451.1304    8473807.81349   6593553.78547                  22651450.2094
        46.2504         32.5004
  21636922.6924  -11144447.80949  -8656622.09447                  21636919.7644
        49.7504         36.7504
  23640685.2594    -338481.39549   -264849.72346                  23640681.6474
        41.2504         24.5004
  20468919.4054   -4685867.90249  -3648695.19948                  20468915.6644
        49.5004         41.5004
  20670735.4144   -2611750.34849  -2036542.53548                  20670731.8174
        51.0004         40.7504
  21259724.5824  -11763631.27349  -9159848.14148                  21259720.1154
        50.2504         39.7504
  22943914.4444    2676027.89849   2082000.82847                  22943914.0254
        43.7504         30.0004
  23376615.8344   -7045788.06649  -5583905.85247                  23376613.7154
        42.5004         25.7504
 04  6 29 16  3  0.0000000  0  8G 6G15G16G18G21G22G26G 3
  22659282.1394    8514956.40649   6625617.61347                  22659279.6494
        47.0004         32.0004
  21629834.8664  -11181697.94949  -8685648.17647                  21629831.8804
        49.7504         36.7504
  23643416.2234    -324126.46149   -253664.06246                  23643413.4084
        42.0004         25.2504
  20468360.7134   -4688803.94549  -3650983.01648                  20468356.7334
        49.5004         41.7504
  20670256.8664   -2614264.37149  -2038501.51648                  20670253.2614
        51.5004         41.2504
  21253886.9094  -11794307.23849  -9183751.48448                  21253882.3054
        51.0004         39.7504
  22949515.3014    2705462.18849   2104936.63347                  22949514.6884
        43.7504         30.0004
  23367065.0044   -7095975.04749  -5623012.62146                  23367062.2154
        41.2504         25.2504
 04  6 29 16  3 15.0000000  0  8G 6G15G16G18G21G22G26G 3
  22667123.7464    8556166.44549   6657729.29347                  22667121.0254
        45.7504         31.0004
  21622751.4974  -11218919.84049  -8714652.25447                  21622748.5694
        49.7504         37.2504
  23646165.6354    -309677.52349   -242405.16847                  23646162.5724
        41.7504         26.2504
  20467819.5464   -4691648.21949  -3653199.32848                  20467815.1914
        49.0004         41.2504
  20669789.7824   -2616719.11749  -2040414.30148                  20669786.4384
        50.7504         41.5004
  21248066.8054  -11824894.04749  -9207585.34848                  21248062.1364
        50.5004         39.7504
  22955140.8324    2735021.07049   2127969.52047                  22955139.3094
        44.5004         29.5004
  23357527.0224   -7146093.43449  -5662065.86346                  23357525.6874
        40.2504         24.5004
 04  6 29 16  3 30.0000000  0  8G 6G15G16G18G21G22G26G 3
  22674977.1144    8597437.77749   6689888.76247                  22674975.0234
        45.2504         31.5004
  21615673.3254  -11256113.40249  -8743634.23447                  21615671.0674
        49.2504         37.2504
  23648933.0334    -295134.74249   -231073.15646                  23648931.2474
        40.2504         24.5004
  20467295.7154   -4694400.62949  -3655344.05948                  20467292.3634
        47.7504         41.2504
  20669334.1484   -2619114.46149  -2042280.82048                  20669330.4414
        49.7504         41.5004
  21242263.4234  -11855391.51649  -9231349.60948                  21242258.5004
        50.7504         40.0004
  22960789.5954    2764704.16049   2151099.15647                  22960788.4454
        43.7504         30.5004
  23348003.4864   -7196142.76649  -5701065.30546                  23348000.9674
        42.2504         25.5004
 04  6 29 16  3 45.0000000  0  8G 6G15G16G18G21G22G26G 3
  22682842.8924    8638769.89849   6722095.57447                  22682841.0674
        46.0004         31.5004
  21608600.6974  -11293278.53149  -8772594.07047                  21608598.8534
        49.0004         37.5004
  23651718.8024    -280498.60549   -219668.37946                  23651715.1504
        42.2504         25.5004
  20466789.6614   -4697061.50449  -3657417.47748                  20466785.8434
        45.5004         41.2504
  20668889.3114   -2621450.32049  -2044100.96148                  20668885.8634
        48.7504         41.0004
  21236477.0744  -11885799.79749  -9255044.36348                  21236472.3084
        50.7504         40.0004
  22966461.7504    2794511.06649   2174325.30547                  22966460.4534
        44.5004         29.7504
  23338493.0224   -7246122.93449  -5740010.87946                  23338490.3444
        42.5004         25.5004
 04  6 29 16  4  0.0000000  0  8G 6G15G16G18G21G22G26G 3
  22690719.4924    8680162.90249   6754349.84847                  22690717.4444
        46.2504         31.0004
  21601534.3394  -11330414.86349  -8801531.46147                  21601531.3824
        49.5004         37.5004
  23654521.3494    -265769.08249   -208190.86347                  23654518.0984
        41.7504         26.0004
  20466300.5144   -4699630.93449  -3659419.62948                  20466296.4324
        45.5004         41.0004
  20668456.2604   -2623726.49249  -2045874.61748                  20668452.8104
        47.5004         41.0004
  21230707.2494  -11916118.62949  -9278669.43448                  21230702.7664
        51.5004         40.2504
  22972157.2844    2824441.77349   2197647.90247                  22972155.7664
        44.7504         30.5004
  23328995.2134   -7296033.29749  -5778902.04747                  23328993.2984
        41.0004         25.7504
 04  6 29 16  4 15.0000000  0  8G 6G15G16G18G21G22G26G 3
  22698608.3854    8721616.95349   6786651.67647                  22698605.3944
        46.2504         31.2504
  21594472.8644  -11367521.93449  -8830446.07447                  21594469.9574
        50.0004         36.7504
  23657342.2844    -250946.14149   -196640.52746                  23657339.1784
        41.0004         25.2504
  20465828.8774   -4702108.46949  -3661350.17648                  20465824.9424
        44.0004         41.2504
  20668034.4584   -2625942.46149  -2047601.34848                  20668030.6714
        47.5004         41.0004
  21224954.9434  -11946347.72749  -9302224.57048                  21224950.0234
        50.7504         40.5004
  22977876.6004    2854496.30549   2221066.99647                  22977875.2044
        45.0004         31.5004
  23319510.9614   -7345873.10949  -5817738.27347                  23319508.7284
        43.0004         27.0004
 04  6 29 16  4 30.0000000  0  8G 6G15G16G18G21G22G26G 3
  22706508.2574    8763131.82449   6819000.93047                  22706506.1914
        45.7504         31.2504
  21587417.2204  -11404599.48849  -8859337.66447                  21587415.1804
        49.7504         37.2504
  23660180.9624    -236029.90649   -185017.52747                  23660178.8494
        39.2504         26.0004
  20465375.2064   -4704494.24249  -3663209.22748                  20465371.1884
        45.5004         41.0004
  20667624.6044   -2628098.12149  -2049281.08248                  20667620.7714
        48.5004         41.0004
  21219219.6234  -11976486.88349  -9325709.60548                  21219215.1424
        50.0004         40.2504
  22983619.9794    2884674.43849   2244582.39147                  22983617.7884
        45.2504         30.7504
  23310040.2504   -7395642.03149  -5856519.20747                  23310039.0044
        43.5004         28.0004
 04  6 29 16  4 45.0000000  0  8G 6G15G16G18G21G22G26G 3
  22714418.8834    8804704.85549   6851395.47347                  22714418.1734
        45.5004         31.7504
  21580366.8444  -11441649.85249  -8888208.09447                  21580364.0244
        49.0004         36.7504
  23663036.4544    -221023.09449   -173323.91446                  23663034.1094
        39.2504         22.2504
  20464938.5494   -4706790.73449  -3664998.70348                  20464934.3234
        46.7504         41.0004
  20667225.4544   -2630195.46149  -2050915.37948                  20667221.5554
        49.2504         41.5004
  21213500.9364  -12006538.39149  -9349126.37148                  21213496.4074
        50.5004         39.5004
  22989385.6944    2914973.36349   2268191.94947                  22989383.5724
        45.0004         30.5004
  23300582.8544   -7445341.92649  -5895246.39847                  23300580.3964
        44.2504         27.5004
 04  6 29 16  5  0.0000000  0  8G 6G15G16G18G21G22G26G 3
  22722341.2094    8846336.04749   6883835.33647                  22722340.1544
        45.0004         31.2504
  21573321.9874  -11478672.69949  -8917057.06647                  21573319.5254
        49.7504         36.5004
  23665909.1814    -205925.80149   -161559.82446                  23665906.7324
        41.5004         25.0004
  20464517.5684   -4708997.79749  -3666718.48848                  20464514.3154
        46.7504         41.2504
  20666837.4954   -2632234.29749  -2052504.08248                  20666834.1714
        50.2504         41.7504
  21207799.0214  -12036502.21949  -9372474.80148                  21207794.6204
        51.2504         40.0004
  22995173.6164    2945393.08249   2291895.59447                  22995171.4964
        44.5004         28.7504
  23291137.8514   -7494972.48049  -5933919.54747                  23291136.1824
        44.7504         28.0004
 04  6 29 16  5 15.0000000  0  8G 6G15G16G18G21G22G26G 3
  22730275.1774    8888026.13349   6916321.12547                  22730273.1924
        46.5004         31.5004
  21566282.0234  -11515666.86749  -8945883.67247                  21566279.6254
        50.0004         37.0004
  23668798.8454    -190737.32849   -149724.64146                  23668797.0144
        41.0004         24.5004
  20464115.0944   -4711114.51649  -3668367.87948                  20464111.3414
        48.0004         41.0004
  20666460.8874   -2634213.55549  -2054046.35948                  20666456.7374
        50.2504         41.5004
  21202113.8294  -12066377.26649  -9395754.05148                  21202109.6184
        50.5004         40.2504
  23000985.2054    2975934.34049   2315693.96947                  23000983.3104
        43.5004         29.5004
  23281707.4514   -7544532.23049  -5972537.55147                  23281705.1034
        43.2504         26.5004
 04  6 29 16  5 30.0000000  0  8G 6G15G16G18G21G22G26G 3
  22738219.4824    8929772.33249   6948850.61347                  22738216.9554
        47.0004         31.0004
  21559247.4864  -11552634.61349  -8974689.71547                  21559244.9934
        49.5004         37.5004
  23671706.4034    -175460.37949   -137820.55147                  23671703.6294
        41.0004         25.7504
  20463729.2044   -4713143.60549  -3669948.98448                  20463725.3064
        47.5004         41.2504
  20666095.0114   -2636135.57049  -2055544.02348                  20666090.8944
        51.0004         41.0004
  21196445.6564  -12096165.99249  -9418966.03548                  21196440.7364
        50.7504         40.7504
  23006820.0004    3006594.25449   2339584.82047                  23006817.9304
        44.5004         30.0004
  23272289.6814   -7594023.35549  -6011102.08247                  23272287.4274
        44.5004         28.0004
 04  6 29 16  5 45.0000000  0  8G 6G15G16G18G21G22G26G 3
  22746172.1144    8971569.26249   6981419.60947                  22746171.1354
        45.7504         30.5004
  21552216.5754  -11589581.04749  -9003479.13347                  21552213.7664
        50.0004         37.0004
  23674628.7224    -160100.46549   -125851.81647                  23674627.0554
        39.5004         25.7504
  20463358.9044   -4715090.62949  -3671466.14548                  20463355.1644
        49.0004         41.2504
  20665739.0054   -2638005.52049  -2057001.13348                  20665734.7904
        51.0004         41.0004
  21190792.2394  -12125873.56249  -9442114.78148                  21190787.4114
        50.5004         40.2504
  23012675.5634    3037367.33649   2363563.79347                  23012673.9754
        42.7504         29.2504
  23262884.2904   -7643450.82849  -6049616.96547                  23262881.6224
        44.0004         28.7504
 04  6 29 16  6  0.0000000  0  8G 6G15G16G18G21G22G26G 3
  22754136.7464    9013422.00849   7014032.10947                  22754135.2894
        45.7504         30.5004
  21545191.1094  -11626500.66449  -9032247.66847                  21545188.1474
        49.7504         37.0004
  23677569.2284    -144652.49649   -113814.44546                  23677567.2814
        40.2504         25.2504
  20463004.8474   -4716950.10949  -3672915.09448                  20463000.7984
        49.5004         41.2504
  20665394.7194   -2639817.91049  -2058413.39848                  20665390.2654
        51.7504         41.7504
  21185155.8894  -12155494.52349  -9465196.04748                  21185150.9324
        50.2504         40.5004
  23018554.2974    3068258.72749   2387635.00047                  23018552.0244
        42.7504         28.0004
  23253491.3594   -7692808.76649  -6088077.64947                  23253489.2294
        43.2504         27.5004
 04  6 29 16  6 15.0000000  0  8G 6G15G16G18G21G22G26G 3
  22762112.0584    9055331.50449   7046688.83247                  22762110.0274
        45.7504         31.0004
  21538170.9614  -11663392.30149  -9060994.38347                  21538168.2594
        50.2504         36.7504
  23680526.5704    -129115.58649   -101707.80546                  23680524.6504
        40.2504         25.2504
  20462668.2694   -4718721.10549  -3674295.10248                  20462664.0374
        49.5004         41.7504
  20665060.8164   -2641571.61749  -2059779.93048                  20665056.7554
        51.7504         41.2504
  21179535.9884  -12185027.82049  -9488209.00048                  21179530.6524
        50.5004         40.5004
  23024454.6654    3099269.04749   2411798.85947                  23024453.4754
        41.7504         27.7504
  23244112.1924   -7742095.80549  -6126483.15647                  23244110.3184
        43.2504         27.7504
 04  6 29 16  6 30.0000000  0  8G 6G15G16G18G21G22G26G 3
  22770098.0704    9097297.49249   7079389.55947                  22770096.1174
        44.7504         30.5004
  21531155.9834  -11700255.53949  -9089719.00047                  21531152.9414
        50.2504         36.7504
  23683499.7684    -113489.85949    -89531.94547                  23683497.1334
        41.0004         25.7504
  20462348.0094   -4720403.63349  -3675606.16048                  20462344.2744
        50.0004         42.0004
  20664738.3354   -2643266.28549  -2061100.45748                  20664733.8894
        51.0004         42.2504
  21173931.9894  -12214473.22749  -9511153.47348                  21173927.5624
        50.5004         40.7504
  23030379.3564    3130398.31349   2436055.39847                  23030376.8744
        40.7504         27.7504
  23234746.5224   -7791311.59049  -6164833.10947                  23234744.8014
        41.5004         26.5004
 04  6 29 16  6 45.0000000  0  8G 6G15G16G18G21G22G26G 3
  22778093.8914    9139318.98849   7112133.57447                  22778092.3044
        44.5004         30.2504
  21524146.5754  -11737091.23049  -9118422.12947                  21524143.5524
        49.2504         36.5004
  23686489.5314     -97776.48049    -77287.74646                  23686486.8394
        40.5004         24.5004
  20462043.9914   -4721998.64549  -3676849.02748                  20462040.0404
        49.5004         41.5004
  20664426.6194   -2644902.57049  -2062375.47348                  20664422.5474
        50.5004         41.5004
  21168345.8994  -12243831.64549  -9534030.15248                  21168341.1554
        51.0004         40.7504
  23036324.6614    3161645.30149   2460403.68447                  23036323.9664
        42.5004         29.5004
  23225394.4914   -7840456.57049  -6203127.87347                  23225392.4544
        43.7504         26.5004
 04  6 29 16  7  0.0000000  0  9G 6G15G16G18G21G22G26G 3G14
  22786101.8344    9181396.03149   7144920.86347                  22786099.6014
        45.7504         31.7504
  21517142.1614  -11773898.84849  -9147103.37947                  21517139.3274
        49.5004         36.7504
  23689497.0724     -81975.48849    -64975.32846                  23689494.3454
        40.5004         25.5004
  20461757.1614   -4723505.89849  -3678023.51248                  20461753.1944
        48.7504         41.2504
  20664126.5744   -2646480.17649  -2063604.78948                  20664122.8234
        51.0004         41.0004
  21162775.1764  -12273102.75449  -9556838.80148                  21162771.0914
        51.0004         40.2504
  23042293.8904    3193009.99249   2484843.67247                  23042292.2984
        42.7504         29.7504
  23216056.7084   -7889530.03549  -6241366.93047                  23216054.7974
        42.5004         27.5004
  24721111.9774     -32398.90658
        35.7504
 04  6 29 16  7 15.0000000  0  9G 6G15G16G18G21G22G26G 3G14
  22794118.4174    9223529.33249   7177751.97747                  22794118.0874
        44.7504         31.5004
  21510143.5464  -11810677.57049  -9175762.12547                  21510140.7024
        49.7504         37.0004
  23692519.8844     -66086.41049    -52594.22746                  23692517.7664
        39.0004         25.5004
  20461487.1884   -4724924.87549  -3679129.21148                  20461483.1974
        49.0004         41.2504
  20663837.6074   -2647998.07849  -2064787.57848                  20663834.1694
        50.0004         41.5004
  21157222.4804  -12302285.70749  -9579578.76248                  21157217.9154
        49.7504         40.0004
  23048285.0384    3224492.90649   2509375.83247                  23048283.6744
        44.0004         30.5004
  23206731.9644   -7938530.89549  -6279549.44147                  23206729.6564
        44.2504         27.2504
  24708939.6544     -96360.53149
        38.5004
 04  6 29 16  7 30.0000000  0  9G 6G15G16G18G21G22G26G 3G14
  22802146.9464    9265716.73449   7210625.28547                  22802145.0594
        45.7504         30.2504
  21503149.9524  -11847428.75449  -9204399.42647                  21503147.4884
        50.0004         37.2504
  23695560.5114     -50111.00449    -40145.89846                  23695557.7804
        41.0004         24.5004
  20461233.7214   -4726257.27749  -3680167.44548                  20461230.0614
        47.7504         41.5004
  20663560.1394   -2649457.83249  -2065925.05948                  20663556.4104
        50.0004         41.5004
  21151685.2804  -12331382.11749  -9602251.28948                  21151680.5614
        50.7504         40.2504
  23054297.7424    3256092.15249   2533998.60947                  23054296.2064
        43.5004         30.5004
  23197421.4324   -7987460.28549  -6317676.25447                  23197418.1174
        44.0004         26.2504
  24696766.3044    -160332.23049
        39.2504
 04  6 29 16  7 45.0000000  0  9G 6G15G16G18G21G22G26G 3G14
  22810184.6954    9307958.45349   7243540.86747                  22810184.7614
        44.5004         31.5004
  21496161.5734  -11884152.16849  -9233015.05947                  21496159.0994
        50.0004         37.2504
  23698616.5784     -34049.43049    -27630.38747                  23698613.8534
        41.0004         25.7504
  20460996.8994   -4727502.93449  -3681138.09448                  20460993.0924
        48.5004         41.5004
  20663293.3014   -2650859.44549  -2067017.23048                  20663289.4374
        49.2504         42.0004
  21146165.0194  -12360391.73449  -9624856.17648                  21146160.4314
        51.5004         40.2504
  23060332.9604    3287807.60249   2558711.91447                  23060331.6774
        43.7504         31.0004
  23188123.6224   -8036317.88349  -6355747.10547                  23188121.4424
        45.2504         26.5004
  24684592.3934    -224313.54749   -167790.21156                  24684588.5184
        41.7504         20.5004
 04  6 29 16  8  0.0000000  0  9G 6G15G16G18G21G22G26G 3G14
  22818233.6284    9350253.60249   7276498.10947                  22818233.0624
        46.5004         31.5004
  21489178.7314  -11920848.03949  -9261609.24647                  21489176.0514
        49.5004         36.7504
  23701689.0384     -17902.49249    -15048.35947                  23701685.7424
        42.2504         25.7504
  20460775.8534   -4728662.55549  -3682041.69148                  20460772.1104
        46.0004         40.7504
  20663037.6084   -2652202.66849  -2068063.90248                  20663034.1584
        49.5004         41.2504
  21140660.9744  -12389314.93049  -9647393.72348                  21140656.2524
        50.2504         40.0004
  23066390.5254    3319638.40649   2583515.11747                  23066388.9624
        44.0004         30.5004
  23178840.4724   -8085103.68049  -6393761.99647                  23178837.5644
        42.5004         26.7504
  24672414.4534    -288304.42649   -217653.20746                  24672413.1834
        41.5004         21.0004
 04  6 29 16  8 15.0000000  0  9G 6G15G16G18G21G22G26G 3G14
  22826292.3614    9392601.08249   7309496.11347                  22826290.6814
        45.2504         30.5004
  21482200.9844  -11957517.17249  -9290182.59847                  21482198.4134
        49.2504         37.2504
  23704778.3354      -1671.21949     -2400.64847                  23704775.6884
        41.0004         25.7504
  20460571.5354   -4729737.22349  -3682879.09048                  20460567.6364
        45.0004         41.2504
  20662793.4744   -2653488.52049  -2069065.86348                  20662789.4094
        48.7504         40.5004
  21135173.6524  -12418152.71549  -9669864.70748                  21135168.9484
        50.7504         40.5004
  23072469.3564    3351583.44549   2608407.31647                  23072468.0784
        42.7504         29.5004
  23169570.3644   -8133818.26649  -6431721.37147                  23169567.7424
        43.2504         27.5004
  24660235.2284    -352305.51249   -267524.14846                  24660234.2324
        41.0004         21.7504
 04  6 29 16  8 30.0000000  0  9G 6G15G16G18G21G22G26G 3G14
  22834360.6674    9435000.92249   7342534.94547                  22834359.9604
        46.2504         32.0004
  21475228.2084  -11994159.16049  -9318734.78947                  21475225.0764
        50.5004         37.5004
  23707882.7924      14644.39149     10312.79346                  23707880.7354
        41.7504         25.0004
  20460383.3394   -4730726.57449  -3683650.02048                  20460379.6444
        45.0004         41.7504
  20662559.0514   -2654716.59449  -2070022.80948                  20662555.5564
        47.2504         41.0004
  21129702.0954  -12446904.71949  -9692268.86348                  21129697.7634
        50.5004         40.2504
  23078569.9224    3383642.71949   2633388.53947                  23078568.4304
        41.5004         29.5004
  23160313.4814   -8182460.96949  -6469624.82847                  23160310.6674
        42.2504         26.7504
  24648054.9244    -416316.16449   -317402.59446                  24648053.4144
        41.0004         21.7504
 04  6 29 16  8 45.0000000  0  9G 6G15G16G18G21G22G26G 3G14
  22842439.0584    9477453.32849   7375614.70347                  22842438.3344
        46.0004         32.0004
  21468260.5184  -12030773.45349  -9347265.39147                  21468257.3114
        49.5004         36.7504
  23711003.9644      31044.37549     23091.94546                  23711001.1354
        41.7504         25.0004
  20460211.2004   -4731630.37549  -3684354.28148                  20460207.7274
        46.0004         40.7504
  20662336.5804   -2655886.68749  -2070934.57448                  20662332.5814
        48.0004         41.0004
  21124247.1174  -12475570.72749  -9714606.01648                  21124242.5744
        51.0004         40.0004
  23084692.3814    3415815.96949   2658458.59847                  23084690.5624
        42.7504         29.0004
  23151070.3024   -8231031.50849  -6507471.93747                  23151067.9064
        41.0004         27.5004
  24635872.3854    -480335.77349   -367287.97346                  24635870.0234
        41.0004         22.2504
 04  6 29 16  9  0.0000000  0  9G 6G15G16G18G21G22G26G 3G14
  22850527.3654    9519956.67649   7408734.19147                  22850526.4144
        46.0004         32.0004
  21461298.3924  -12067361.05149  -9375775.19147                  21461294.9794
        50.2504         37.2504
  23714140.2774      47527.16049     35935.66846                  23714137.4864
        40.2504         24.5004
  20460055.3644   -4732450.00049  -3684992.95748                  20460051.6924
        46.7504         41.0004
  20662125.0334   -2656999.60249  -2071801.78148                  20662121.2224
        49.0004         41.2504
  21118808.2454  -12504151.66849  -9736876.86748                  21118803.6444
        51.5004         40.0004
  23090835.9804    3448102.07049   2683616.55947                  23090834.6304
        42.5004         29.7504
  23141841.7434   -8279530.28149  -6545263.14847                  23141839.2804
        42.2504         28.0004
  24623687.5594    -544364.96149   -417180.80546                  24623685.3574
        42.5004         22.5004
 04  6 29 16  9 15.0000000  0  9G 6G15G16G18G21G22G26G 3G14
  22858625.3754    9562511.31349   7441893.61347                  22858624.3714
        46.5004         32.0004
  21454340.6574  -12103921.32049  -9404263.71947                  21454338.1844
        50.0004         37.0004
  23717293.0014      64093.00849     48844.09846                  23717290.0014
        39.2504         24.7504
  20459915.6884   -4733185.22349  -3685565.85948                  20459911.5934
        48.2504         41.2504
  20661924.1694   -2658054.70349  -2072623.94548                  20661920.0204
        50.0004         40.7504
  21113385.5874  -12532647.12549  -9759081.10948                  21113381.1204
        50.7504         40.0004
  23097001.9474    3480501.09449   2708862.52347                  23097000.3164
        43.2504         29.0004
  23132626.2804   -8327956.53549  -6582997.88347                  23132624.2174
        42.0004         28.7504
  24611501.6134    -608402.93749   -467080.50446                  24611499.4914
        41.5004         21.7504
 04  6 29 16  9 30.0000000  0  9G 6G15G16G18G21G22G26G 3G14
  22866732.4374    9605117.56649   7475093.27047                  22866732.2994
        45.0004         31.5004
  21447389.0374  -12140453.66449  -9432730.48447                  21447386.5004
        49.5004         37.5004
  23720460.2754      80742.12149     61817.43846                  23720458.1114
        38.0004         23.7504
  20459791.7794   -4733835.60249  -3686072.63748                  20459787.4734
        50.0004         41.7504
  20661734.8324   -2659051.52349  -2073400.68448                  20661730.5784
        50.7504         41.2504
  21107979.6074  -12561056.61749  -9781218.37548                  21107974.7494
        51.0004         39.7504
  23103188.5264    3513013.12949   2734196.58247                  23103187.5034
        43.7504         29.7504
  23123425.4884   -8376309.46949  -6620675.51247                  23123423.0394
        44.0004         27.5004
  24599314.4694    -672448.87149   -516986.41046                  24599311.9994
        40.2504         21.0004
 04  6 29 16  9 45.0000000  0  9G 6G15G16G18G21G22G26G 3G14
  22874850.6784    9647774.95349   7508332.77347                  22874849.0504
        45.7504         32.2504
  21440442.9324  -12176958.09849  -9461175.50047                  21440439.8264
        50.7504         38.0004
  23723644.9784      97474.04749     74855.26247                  23723643.1584
        38.7504         26.0004
  20459683.7894   -4734401.41449  -3686513.52748                  20459679.7434
        49.5004         41.5004
  20661555.9574   -2659990.20349  -2074132.13748                  20661552.1194
        51.2504         41.5004
  21102589.9174  -12589380.34849  -9803288.81248                  21102585.2404
        50.5004         39.7504
  23109396.8084    3545637.68049   2759618.27347                  23109395.3404
        44.5004         29.7504
  23114238.3954   -8424589.05549  -6658295.96947                  23114235.7104
        43.0004         27.7504
  24587125.5384    -736502.57849   -566898.38346                  24587122.9314
        39.0004         20.0004
 04  6 29 16 10  0.0000000  0  9G 6G15G16G18G21G22G26G 3G14
  22882977.9764    9690484.12149   7541612.63347                  22882976.0054
        46.5004         31.7504
  21433501.5864  -12213433.55949  -9489597.93447                  21433498.7774
        49.7504         37.5004
  23726844.8044     114289.44049     87958.12946                  23726842.3954
        40.2504         25.0004
  20459592.7774   -4734881.80549  -3686887.87148                  20459588.6564
        49.5004         42.0004
  20661388.3154   -2660869.82849  -2074817.56248                  20661384.2754
        51.0004         41.2504
  21097216.5104  -12617617.24249  -9825291.57448                  21097212.1304
        50.0004         39.7504
  23115626.9294    3578375.42249   2785128.19547                  23115624.7794
        44.5004         29.2504
  23105064.9784   -8472793.86749  -6695858.16447                  23105062.8364
        42.7504         27.2504
  24574935.8284    -800562.79749   -616815.43046                  24574932.7724
        39.5004         19.5004
 04  6 29 16 10 15.0000000  0  9G 6G15G16G18G21G22G26G 3G14
  22891114.7294    9733244.71949   7574932.56647                  22891113.3284
        46.2504         32.0004
  21426566.2254  -12249880.11749  -9517997.83647                  21426563.2384
        50.2504         37.2504
  23730060.6114     131187.84449    101125.73846                  23730057.9644
        41.0004         23.5004
  20459517.3304   -4735277.19149  -3687195.96548                  20459513.4754
        50.2504         41.5004
  20661232.2754   -2661689.87549  -2075456.55948                  20661228.2354
        52.0004         40.5004
  21091859.8304  -12645767.49249  -9847226.84448                  21091854.8164
        50.5004         39.5004
  23121878.1394    3611225.89849   2810725.95347                  23121876.0464
        43.5004         28.7504
  23095906.1444   -8520923.73849  -6733361.93747                  23095903.8944
        43.2504         28.0004
  24562744.0814    -864629.25049   -666737.34046                  24562740.7344
        41.0004         21.0004
 04  6 29 16 10 30.0000000  0  9G 6G15G16G18G21G22G26G 3G14
  22899261.1844    9776055.30949   7608291.41847                  22899260.4824
        45.7504         31.7504
  21419636.0744  -12286298.78949  -9546376.03147                  21419633.2114
        50.7504         38.0004
  23733291.5874     148167.75049    114356.80947                  23733288.7034
        41.0004         26.2504
  20459457.6174   -4735589.02049  -3687438.94148                  20459454.4454
        49.5004         41.0004
  20661087.4924   -2662451.79749  -2076050.26648                  20661083.3684
        52.0004         41.5004
  21086519.1834  -12673832.44949  -9869095.62148                  21086514.1934
        50.2504         39.5004
  23128150.0954    3644187.54749   2836410.32847                  23128148.9054
        42.2504         27.7504
  23086761.1234   -8568979.56249  -6770808.03147                  23086759.4624
        42.5004         27.5004
  24550551.0094    -928702.95049   -716664.85246                  24550547.9224
        41.0004         20.0004
 04  6 29 16 10 45.0000000  0  9G 6G15G16G18G21G22G26G 3G14
  22907417.7094    9818915.04749   7641688.60547                  22907415.6474
        46.5004         31.0004
  21412710.3084  -12322689.85949  -9574732.70347                  21412707.7574
        49.5004         37.0004
  23736537.5944     165228.50449    127650.87946                  23736535.3404
        42.0004         25.5004
  20459414.2744   -4735817.71549  -3687617.15648                  20459410.9214
        50.0004         41.2504
  20660953.3864   -2663155.84449  -2076598.88348                  20660949.7044
        51.0004         41.2504
  21081194.4814  -12701812.40649  -9890898.18748                  21081189.3594
        50.7504         40.0004
  23134443.3414    3677259.60249   2862180.75047                  23134442.6754
        42.5004         27.7504
  23077631.6004   -8616961.44549  -6808196.50847                  23077628.9464
        43.2504         27.2504
  24538356.8704    -992783.82049   -766597.99246                  24538354.3744
        40.0004         21.0004
 04  6 29 16 11  0.0000000  0  9G 6G15G16G18G21G22G26G 3G14
  22915582.6614    9861825.71949   7675125.48447                  22915581.5714
        45.7504         30.2504
  21405791.4204  -12359051.28949  -9603066.27747                  21405788.5024
        50.2504         37.5004
  23739800.4254     182371.64549    141009.12546                  23739797.7434
        40.2504         24.2504
  20459387.0154   -4735961.53549  -3687729.23048                  20459382.5704
        50.2504         41.0004
  20660831.3504   -2663800.05549  -2077100.86348                  20660827.0594
        52.0004         42.0004
  21075886.3714  -12729705.45749  -9912633.02048                  21075881.9724
        49.5004         40.0004
  23140757.8424    3710443.80549   2888038.57047                  23140757.6324
        42.5004         27.5004
  23068514.1974   -8664867.28549  -6845525.64147                  23068512.8084
        43.0004         28.2504
  24526161.0654   -1056869.65249   -816534.96946                  24526159.5504
        38.5004         21.0004
